[[{"header":{"parameterUnit":"m.s-1","parameterCategory":1,"la1":31.0,"la2":29.5877,"lo1":-88.7671,"lo2":-86.6584,"dy":0.0162,"dx":0.0185,"nx":115,"ny":88,"refTime":"2026-03-10T00:00:00:Z","depth":0,"parameterNumber":2,"parameterNumberName":"U-component_of_WINDS"},"data":[0.0,0.0,0.0,0.0,0.0,0.0,0.0,0.0,0.0,0.0,0.0,0.0,0.0,0.0,0.0,0.0,0.0,0.0,0.0,0.0,0.0,0.0,0.0,0.0,0.0,0.0,0.0,0.0,0.0,0.0,0.0,0.0,0.0,0.0,0.0,0.0,0.0,0.0,0.0,0.0,0.0,0.0,0.0,0.0,0.0,0.0,0.0,0.0,0.0,0.0,0.0,0.0,0.0,0.0,0.0,0.0,0.0,0.0,0.0,0.0,0.0,0.0,0.0,0.0,0.0,0.0,0.0,0.0,0.0,0.0,0.0,0.0,0.0,0.0,0.0,0.0,0.0,0.0,0.0,0.0,0.0,0.0,0.0,0.0,0.0,0.0,0.0,0.0,0.0,0.0,0.0,0.0,0.0,0.0,0.0,0.0,0.0,0.0,0.0,0.0,0.0,0.0,0.0,0.0,0.0,0.0,0.0,0.0,0.0,0.0,0.0,0.0,0.0,0.0,0.0,0.0,0.0,0.0,0.0,0.0,0.0,0.0,0.0,0.0,0.0,0.0,0.0,0.0,0.0,0.0,0.0,0.0,0.0,0.0,0.0,0.0,0.0,0.0,0.0,0.0,0.0,0.0,0.0,0.0,0.0,0.0,0.0,0.0,0.0,0.0,0.0,0.0,0.0,0.0,0.0,0.0,0.0,0.0,0.0,0.0,0.0,0.0,0.0,0.0,0.0,0.0,0.0,0.0,0.0,0.0,0.0,0.0,0.0,0.0,0.0,0.0,0.0,0.0,0.0,0.0,0.0,0.0,0.0,0.0,0.0,0.0,0.0,0.0,0.0,0.0,0.0,0.0,0.0,0.0,0.0,0.0,0.0,0.0,0.0,0.0,0.0,0.0,0.0,0.0,0.0,0.0,0.0,0.0,0.0,0.0,0.0,0.0,0.0,0.0,0.0,0.0,0.0,0.0,0.0,0.0,0.0,0.0,0.0,0.0,0.0,0.0,0.0,0.0,0.0,0.0,0.0,0.0,0.0,0.0,0.0,0.0,0.0,0.0,0.0,0.0,0.0,0.0,0.0,0.0,0.0,0.0,0.0,0.0,0.0,0.0,0.0,0.0,0.0,0.0,0.0,0.0,0.0,0.0,0.0,0.0,0.0,0.0,0.0,0.0,0.0,0.0,0.0,0.0,0.0,0.0,0.0,0.0,0.0,0.0,0.0,0.0,0.0,0.0,0.0,0.0,0.0,0.0,0.0,0.0,0.0,0.0,0.0,0.0,0.0,0.0,0.0,0.0,0.0,0.0,0.0,0.0,0.0,0.0,0.0,0.0,0.0,0.0,0.0,0.0,0.0,0.0,0.0,0.0,0.0,0.0,0.0,0.0,0.0,0.0,0.0,0.0,0.0,0.0,0.0,0.0,0.0,0.0,0.0,0.0,0.0,0.0,0.0,0.0,0.0,0.0,0.0,0.0,0.0,0.0,0.0,0.0,0.0,0.0,0.0,0.0,0.0,0.0,0.0,0.0,0.0,0.0,0.0,0.0,0.0,0.0,0.0,0.0,0.0,0.0,0.0,0.0,0.0,0.0,0.0,0.0,0.0,0.0,0.0,0.0,0.0,0.0,0.0,0.0,0.0,0.0,0.0,0.0,0.0,0.0,0.0,0.0,0.0,0.0,0.0,0.0,0.0,0.0,0.0,0.0,0.0,0.0,0.0,0.0,0.0,0.0,0.0,0.0,0.0,0.0,0.0,0.0,0.0,0.0,0.0,0.0,0.0,0.0,0.0,0.0,0.0,0.0,0.0,0.0,0.0,0.0,0.0,0.0,0.0,0.0,0.0,0.0,0.0,0.0,0.0,0.0,0.0,0.0,0.0,0.0,0.0,0.0,0.0,0.0,0.0,0.0,0.0,0.0,0.0,0.0,0.0,0.0,0.0,0.0,0.0,0.0,0.0,0.0,0.0,0.0,0.0,0.0,0.0,0.0,0.0,0.0,0.0,0.0,0.0,0.0,0.0,0.0,0.0,0.0,0.0,0.0,0.0,0.0,0.0,0.0,0.0,0.0,0.0,0.0,0.0,0.0,0.0,0.0,0.0,0.0,0.0,0.0,0.0,0.0,0.0,0.0,0.0,0.0,0.0,0.0,0.0,0.0,0.0,0.0,0.0,0.0,0.0,0.0,0.0,0.0,0.0,0.0,0.0,0.0,0.0,0.0,0.0,0.0,0.0,0.0,0.0,0.0,0.0,0.0,0.0,0.0,0.0,0.0,0.0,0.0,0.0,0.0,0.0,0.0,0.0,0.0,0.0,0.0,0.0,0.0,0.0,0.0,0.0,0.0,0.0,0.0,0.0,0.0,0.0,0.0,0.0,0.0,0.0,0.0,0.0,0.0,0.0,0.0,0.0,0.0,0.0,0.0,0.0,0.0,0.0,0.0,0.0,0.0,0.0,0.0,0.0,0.0,0.0,0.0,0.0,0.0,0.0,0.0,0.0,0.0,0.0,0.0,0.0,0.0,0.0,0.0,0.0,0.0,0.0,0.0,0.0,0.0,0.0,0.0,0.0,0.0,0.0,0.0,0.0,0.0,0.0,0.0,0.0,0.0,0.0,0.0,0.0,0.0,0.0,0.0,0.0,0.0,0.0,0.0,0.0,0.0,0.0,0.0,0.0,0.0,0.0,0.0,0.0,0.0,0.0,0.0,0.0,0.0,0.0,0.0,0.0,0.0,0.0,0.0,0.0,0.0,0.0,0.0,0.0,0.0,0.0,0.0,0.0,0.0,0.0,0.0,0.0,0.0,0.0,0.0,0.0,0.0,0.0,0.0,0.0,0.0,0.0,0.0,0.0,0.0,0.0,0.0,0.0,0.0,0.0,0.0,0.0,0.0,0.0,0.0,0.0,0.0,0.0,0.0,0.0,0.0,0.0,0.0,0.0,0.0,0.0,0.0,0.0,0.0,0.0,0.0,0.0,0.0,0.0,0.0,0.0,0.0,0.0,0.0,0.0,0.0,0.0,0.0,0.0,0.0,0.0,0.0,0.0,0.0,0.0,0.0,0.0,0.0,0.0,0.0,0.0,0.0,0.0,0.0,0.0,0.0,0.0,0.0,0.0,0.0,0.0,0.0,0.0,0.0,0.0,0.0,0.0,0.0,0.0,0.0,0.0,0.0,0.0,0.0,0.0,0.0,0.0,0.0,0.0,0.0,0.0,0.0,0.0,0.0,0.0,0.0,0.0,0.0,0.0,0.0,0.0,0.0,0.0,0.0,0.0,0.0,0.0,0.0,0.0,0.0,0.0,0.0,0.0,0.0,0.0,0.0,0.0,0.0,0.0,0.0,0.0,0.0,0.0,0.0,0.0,0.0,0.0,0.0,0.0,0.0,0.0,0.0,0.0,0.0,0.0,0.0,0.0,0.0,0.0,0.0,0.0,0.0,0.0,0.0,0.0,0.0,0.0,0.0,0.0,0.0,0.0,0.0,0.0,0.0,0.0,0.0,0.0,0.0,0.0,0.0,0.0,0.0,0.0,0.0,0.0,0.0,0.0,0.0,0.0,0.0,0.0,0.0,0.0,0.0,0.0,0.0,0.0,0.0,0.0,0.0,0.0,0.0,0.0,0.0,0.0,0.0,0.0,0.0,0.0,0.0,0.0,0.0,0.0,0.0,0.0,0.0,0.0,0.0,0.0,0.0,0.0,0.0,0.0,0.0,0.0,0.0,0.0,0.0,0.0,0.0,0.0,0.0,0.0,0.0,0.0,0.0,0.0,0.0,0.0,0.0,0.0,0.0,0.0,0.0,0.0,0.0,0.0,0.0,0.0,0.0,0.0,0.0,0.0,0.0,0.0,0.0,0.0,0.0,0.0,0.0,0.0,0.0,0.0,0.0,0.0,0.0,0.0,0.0,0.0,0.0,0.0,0.0,0.0,0.0,0.0,0.0,0.0,0.0,0.0,0.0,0.0,0.0,0.0,0.0,0.0,0.0,0.0,0.0,0.0,0.0,0.0,0.0,0.0,0.0,0.0,0.0,0.0,0.0,0.0,0.0,0.0,0.0,0.0,0.0,0.0,0.0,0.0,0.0,0.0,0.0,0.0,0.0,0.0,0.0,0.0,0.0,0.0,0.0,0.0,0.0,0.0,0.0,0.0,0.0,0.0,0.0,0.0,0.0,0.0,0.0,0.0,0.0,0.0,0.0,0.0,0.0,0.0,0.0,0.0,0.0,0.0,0.0,0.0,0.0,0.0,0.0,0.0,0.0,0.0,0.0,0.0,0.0,5.0517,0.0,0.0,0.0,0.0,0.0,0.0,0.0,0.0,0.0,0.0,0.0,0.0,0.0,0.0,0.0,0.0,0.0,0.0,0.0,0.0,0.0,0.0,0.0,0.0,0.0,0.0,0.0,0.0,0.0,0.0,0.0,0.0,0.0,0.0,0.0,0.0,0.0,0.0,0.0,0.0,0.0,0.0,0.0,0.0,0.0,0.0,0.0,0.0,0.0,0.0,0.0,0.0,0.0,0.0,0.0,0.0,0.0,0.0,0.0,0.0,0.0,0.0,0.0,0.0,0.0,0.0,0.0,0.0,0.0,0.0,0.0,0.0,0.0,0.0,0.0,0.0,0.0,0.0,0.0,0.0,0.0,0.0,0.0,0.0,0.0,0.0,0.0,0.0,0.0,0.0,0.0,0.0,0.0,0.0,0.0,0.0,0.0,0.0,0.0,0.0,0.0,0.0,0.0,0.0,0.0,0.0,0.0,0.0,0.0,0.0,5.0707,5.0707,5.0707,5.0707,5.0668,0.0,0.0,0.0,0.0,0.0,0.0,0.0,0.0,0.0,0.0,0.0,0.0,0.0,0.0,0.0,0.0,0.0,0.0,0.0,0.0,0.0,0.0,0.0,0.0,0.0,0.0,0.0,0.0,0.0,0.0,0.0,0.0,0.0,0.0,0.0,0.0,0.0,0.0,0.0,0.0,0.0,0.0,0.0,0.0,0.0,0.0,0.0,0.0,0.0,0.0,0.0,0.0,0.0,0.0,0.0,0.0,0.0,0.0,0.0,0.0,0.0,0.0,0.0,0.0,0.0,0.0,0.0,0.0,0.0,0.0,0.0,0.0,0.0,0.0,0.0,0.0,0.0,0.0,0.0,0.0,0.0,0.0,0.0,0.0,0.0,0.0,0.0,0.0,0.0,0.0,0.0,0.0,0.0,0.0,0.0,0.0,0.0,0.0,0.0,0.0,0.0,0.0,0.0,0.0,0.0,0.0,0.0,0.0,0.0,0.0,0.0,0.0,5.1555,5.1475,5.1247,0.0,0.0,0.0,0.0,0.0,0.0,0.0,0.0,0.0,0.0,0.0,0.0,0.0,0.0,0.0,0.0,0.0,0.0,0.0,0.0,0.0,0.0,0.0,0.0,0.0,0.0,0.0,0.0,0.0,0.0,0.0,0.0,0.0,0.0,0.0,0.0,0.0,0.0,0.0,0.0,0.0,0.0,0.0,0.0,0.0,0.0,0.0,0.0,0.0,0.0,0.0,0.0,0.0,0.0,0.0,0.0,0.0,0.0,0.0,0.0,0.0,0.0,0.0,0.0,0.0,0.0,0.0,0.0,0.0,0.0,0.0,0.0,0.0,0.0,0.0,0.0,0.0,0.0,0.0,0.0,0.0,0.0,0.0,0.0,0.0,0.0,0.0,0.0,0.0,0.0,0.0,0.0,0.0,0.0,0.0,0.0,0.0,0.0,0.0,0.0,0.0,0.0,0.0,0.0,0.0,0.0,0.0,0.0,0.0,0.0,5.1785,5.4089,5.413,0.0,5.2968,0.0,0.0,0.0,0.0,0.0,0.0,0.0,0.0,0.0,0.0,0.0,0.0,0.0,0.0,0.0,0.0,0.0,0.0,0.0,0.0,0.0,0.0,0.0,0.0,0.0,0.0,0.0,0.0,0.0,0.0,0.0,0.0,0.0,0.0,0.0,0.0,0.0,0.0,0.0,0.0,0.0,0.0,0.0,0.0,0.0,0.0,0.0,0.0,0.0,0.0,0.0,0.0,0.0,0.0,0.0,0.0,0.0,0.0,0.0,0.0,0.0,0.0,0.0,0.0,0.0,0.0,0.0,0.0,0.0,0.0,0.0,0.0,0.0,0.0,0.0,0.0,0.0,0.0,0.0,0.0,0.0,0.0,0.0,0.0,0.0,0.0,0.0,0.0,0.0,0.0,0.0,0.0,0.0,0.0,0.0,0.0,0.0,0.0,0.0,0.0,0.0,0.0,0.0,0.0,0.0,0.0,0.0,0.0,0.0,0.0,0.0,5.4472,5.401,5.3315,0.0,0.0,0.0,0.0,0.0,0.0,0.0,0.0,0.0,0.0,0.0,0.0,0.0,0.0,0.0,0.0,0.0,0.0,0.0,0.0,0.0,0.0,0.0,0.0,0.0,0.0,0.0,0.0,0.0,0.0,0.0,0.0,0.0,0.0,0.0,0.0,0.0,0.0,0.0,0.0,0.0,0.0,0.0,0.0,0.0,0.0,0.0,0.0,0.0,0.0,0.0,0.0,0.0,0.0,0.0,0.0,0.0,0.0,0.0,0.0,0.0,0.0,0.0,0.0,0.0,0.0,0.0,0.0,0.0,0.0,0.0,0.0,0.0,0.0,0.0,0.0,0.0,0.0,0.0,0.0,0.0,0.0,0.0,0.0,0.0,0.0,0.0,0.0,0.0,0.0,0.0,0.0,0.0,0.0,0.0,0.0,0.0,0.0,0.0,0.0,0.0,0.0,0.0,0.0,0.0,0.0,0.0,0.0,0.0,0.0,5.3936,0.0,5.5474,5.493,5.3735,5.1965,0.0,0.0,0.0,0.0,0.0,0.0,0.0,0.0,0.0,0.0,0.0,0.0,0.0,0.0,0.0,0.0,0.0,0.0,0.0,0.0,0.0,0.0,0.0,0.0,0.0,0.0,0.0,0.0,0.0,0.0,0.0,0.0,0.0,0.0,0.0,0.0,0.0,0.0,0.0,0.0,0.0,0.0,0.0,0.0,0.0,0.0,0.0,0.0,0.0,0.0,0.0,0.0,0.0,0.0,0.0,0.0,0.0,0.0,0.0,0.0,0.0,0.0,0.0,0.0,0.0,0.0,0.0,0.0,0.0,0.0,0.0,0.0,0.0,0.0,0.0,0.0,0.0,0.0,0.0,0.0,0.0,0.0,0.0,0.0,0.0,0.0,0.0,0.0,0.0,0.0,0.0,0.0,0.0,0.0,0.0,0.0,0.0,0.0,0.0,0.0,0.0,0.0,0.0,0.0,0.0,0.0,0.0,0.0,0.0,5.5666,5.5666,5.8047,5.8085,5.6121,0.0,0.0,0.0,0.0,0.0,0.0,0.0,0.0,0.0,0.0,0.0,0.0,0.0,0.0,0.0,0.0,0.0,0.0,0.0,0.0,0.0,0.0,0.0,0.0,0.0,0.0,0.0,0.0,0.0,0.0,0.0,0.0,0.0,0.0,0.0,0.0,0.0,0.0,0.0,0.0,0.0,0.0,0.0,0.0,0.0,0.0,0.0,0.0,0.0,0.0,0.0,0.0,0.0,0.0,0.0,0.0,0.0,0.0,0.0,0.0,0.0,0.0,0.0,0.0,0.0,0.0,0.0,0.0,0.0,0.0,0.0,0.0,0.0,0.0,0.0,0.0,0.0,0.0,0.0,0.0,0.0,0.0,0.0,0.0,0.0,0.0,0.0,0.0,0.0,0.0,0.0,0.0,0.0,0.0,0.0,0.0,0.0,0.0,0.0,0.0,0.0,0.0,0.0,0.0,0.0,0.0,0.0,0.0,0.0,5.336,5.4127,5.6514,6.0401,5.6507,5.4007,0.0,0.0,0.0,0.0,0.0,0.0,0.0,0.0,0.0,0.0,0.0,0.0,0.0,0.0,0.0,0.0,0.0,0.0,0.0,0.0,0.0,0.0,0.0,0.0,0.0,0.0,0.0,0.0,0.0,0.0,0.0,0.0,0.0,0.0,0.0,0.0,0.0,0.0,0.0,0.0,0.0,0.0,0.0,0.0,0.0,0.0,0.0,0.0,0.0,0.0,0.0,0.0,0.0,0.0,0.0,0.0,0.0,0.0,0.0,0.0,0.0,0.0,0.0,0.0,0.0,0.0,0.0,0.0,0.0,0.0,0.0,0.0,0.0,0.0,0.0,0.0,0.0,0.0,0.0,0.0,0.0,0.0,0.0,0.0,0.0,0.0,0.0,0.0,0.0,0.0,0.0,0.0,0.0,0.0,0.0,0.0,0.0,0.0,0.0,0.0,0.0,0.0,0.0,0.0,0.0,0.0,0.0,0.0,0.0,5.3165,0.0,5.8245,0.0,5.6166,5.3201,0.0,0.0,0.0,0.0,0.0,0.0,0.0,0.0,0.0,0.0,0.0,0.0,0.0,0.0,0.0,0.0,0.0,0.0,0.0,0.0,0.0,0.0,0.0,0.0,0.0,0.0,0.0,0.0,0.0,0.0,0.0,0.0,0.0,0.0,0.0,0.0,0.0,0.0,0.0,0.0,0.0,0.0,0.0,0.0,0.0,0.0,0.0,0.0,0.0,0.0,0.0,0.0,0.0,0.0,0.0,0.0,0.0,0.0,0.0,0.0,0.0,0.0,0.0,0.0,0.0,0.0,0.0,0.0,0.0,0.0,0.0,0.0,0.0,0.0,0.0,0.0,0.0,0.0,0.0,0.0,0.0,0.0,0.0,0.0,0.0,0.0,0.0,0.0,0.0,0.0,0.0,0.0,0.0,0.0,0.0,0.0,0.0,0.0,0.0,0.0,0.0,0.0,0.0,0.0,0.0,0.0,0.0,0.0,5.3206,5.7969,6.0516,6.0707,5.8507,5.7363,5.4168,0.0,0.0,0.0,0.0,0.0,0.0,0.0,0.0,0.0,0.0,0.0,0.0,0.0,0.0,0.0,0.0,0.0,0.0,0.0,0.0,0.0,0.0,0.0,0.0,0.0,0.0,0.0,0.0,0.0,0.0,0.0,0.0,0.0,0.0,0.0,0.0,0.0,0.0,0.0,0.0,0.0,0.0,0.0,0.0,0.0,0.0,0.0,0.0,0.0,0.0,0.0,0.0,0.0,0.0,0.0,0.0,0.0,0.0,0.0,0.0,0.0,0.0,0.0,0.0,0.0,0.0,0.0,0.0,0.0,0.0,0.0,0.0,0.0,0.0,0.0,0.0,0.0,0.0,0.0,0.0,0.0,0.0,0.0,0.0,0.0,0.0,0.0,0.0,0.0,0.0,0.0,0.0,0.0,0.0,0.0,0.0,0.0,0.0,0.0,0.0,0.0,0.0,0.0,0.0,0.0,0.0,0.0,0.0,0.0,5.5703,5.8166,6.051,6.2355,5.728,5.4318,0.0,0.0,0.0,0.0,0.0,0.0,0.0,0.0,0.0,0.0,0.0,0.0,0.0,0.0,0.0,0.0,0.0,0.0,0.0,0.0,0.0,0.0,0.0,0.0,0.0,0.0,0.0,0.0,0.0,0.0,0.0,0.0,0.0,0.0,0.0,0.0,0.0,0.0,0.0,0.0,0.0,0.0,0.0,0.0,0.0,0.0,0.0,0.0,0.0,0.0,0.0,0.0,0.0,0.0,0.0,0.0,0.0,0.0,0.0,0.0,0.0,0.0,0.0,0.0,0.0,0.0,0.0,0.0,0.0,0.0,0.0,0.0,0.0,0.0,0.0,0.0,0.0,0.0,0.0,0.0,0.0,0.0,0.0,0.0,0.0,0.0,0.0,0.0,0.0,0.0,0.0,0.0,0.0,0.0,0.0,0.0,0.0,0.0,0.0,0.0,0.0,0.0,0.0,0.0,0.0,0.0,0.0,0.0,0.0,5.9322,6.1704,6.378,6.5477,5.9667,5.6205,5.5476,0.0,0.0,0.0,0.0,0.0,0.0,0.0,0.0,0.0,0.0,0.0,0.0,0.0,0.0,0.0,0.0,0.0,0.0,0.0,0.0,0.0,0.0,0.0,0.0,0.0,0.0,0.0,0.0,0.0,0.0,0.0,0.0,0.0,0.0,0.0,0.0,0.0,0.0,0.0,0.0,0.0,0.0,0.0,0.0,0.0,0.0,0.0,0.0,0.0,0.0,0.0,0.0,0.0,0.0,0.0,0.0,0.0,0.0,0.0,0.0,0.0,0.0,0.0,0.0,0.0,0.0,0.0,0.0,0.0,0.0,0.0,0.0,0.0,0.0,0.0,0.0,0.0,0.0,0.0,0.0,0.0,0.0,0.0,0.0,0.0,0.0,0.0,0.0,0.0,0.0,0.0,0.0,0.0,0.0,0.0,0.0,0.0,0.0,0.0,0.0,0.0,0.0,0.0,0.0,0.0,0.0,0.0,0.0,6.7439,7.0246,7.0555,6.8057,6.4328,5.9708,0.0,0.0,0.0,0.0,0.0,0.0,0.0,0.0,0.0,0.0,0.0,0.0,0.0,0.0,0.0,0.0,0.0,0.0,0.0,0.0,0.0,0.0,0.0,0.0,0.0,0.0,0.0,0.0,0.0,0.0,0.0,0.0,0.0,0.0,0.0,0.0,0.0,0.0,0.0,0.0,0.0,0.0,0.0,0.0,0.0,0.0,0.0,0.0,0.0,0.0,0.0,0.0,0.0,0.0,0.0,0.0,0.0,0.0,0.0,0.0,0.0,0.0,0.0,0.0,0.0,0.0,0.0,0.0,0.0,0.0,0.0,0.0,0.0,0.0,0.0,0.0,0.0,0.0,0.0,0.0,0.0,0.0,0.0,0.0,0.0,0.0,0.0,0.0,0.0,0.0,0.0,0.0,0.0,0.0,0.0,0.0,0.0,0.0,0.0,0.0,0.0,0.0,0.0,0.0,0.0,0.0,0.0,0.0,0.0,7.1818,7.8552,8.0631,7.74,6.9865,6.4477,0.0,0.0,0.0,0.0,0.0,0.0,0.0,0.0,0.0,0.0,0.0,0.0,0.0,0.0,0.0,0.0,0.0,0.0,0.0,0.0,0.0,0.0,0.0,0.0,0.0,0.0,0.0,0.0,0.0,0.0,0.0,0.0,0.0,0.0,0.0,0.0,0.0,0.0,0.0,0.0,0.0,0.0,0.0,0.0,0.0,0.0,0.0,0.0,0.0,0.0,0.0,0.0,0.0,0.0,0.0,0.0,0.0,0.0,0.0,0.0,0.0,0.0,0.0,0.0,0.0,0.0,0.0,0.0,0.0,0.0,0.0,0.0,0.0,0.0,0.0,0.0,0.0,0.0,0.0,0.0,0.0,0.0,0.0,0.0,0.0,0.0,0.0,0.0,0.0,0.0,0.0,0.0,0.0,0.0,0.0,0.0,0.0,0.0,0.0,0.0,0.0,0.0,0.0,0.0,0.0,0.0,0.0,0.0,7.0127,7.6125,8.5132,8.8904,8.6983,7.7555,7.0129,0.0,0.0,0.0,0.0,0.0,0.0,0.0,0.0,0.0,0.0,0.0,0.0,0.0,0.0,0.0,0.0,0.0,0.0,0.0,0.0,0.0,0.0,0.0,0.0,0.0,0.0,0.0,0.0,0.0,0.0,0.0,0.0,0.0,0.0,0.0,0.0,0.0,0.0,0.0,0.0,0.0,0.0,0.0,0.0,0.0,0.0,0.0,0.0,0.0,0.0,0.0,0.0,0.0,0.0,0.0,0.0,0.0,0.0,0.0,0.0,0.0,0.0,0.0,0.0,0.0,0.0,0.0,0.0,0.0,0.0,0.0,0.0,0.0,0.0,0.0,0.0,0.0,0.0,0.0,0.0,0.0,0.0,0.0,0.0,0.0,0.0,0.0,0.0,0.0,0.0,0.0,0.0,0.0,0.0,0.0,0.0,0.0,0.0,0.0,0.0,0.0,0.0,0.0,0.0,0.0,0.0,0.0,0.0,7.4284,8.0394,9.0137,9.5297,9.5104,8.5286,7.5667,0.0,0.0,0.0,0.0,0.0,0.0,0.0,0.0,0.0,0.0,0.0,0.0,0.0,0.0,0.0,0.0,0.0,0.0,0.0,0.0,0.0,0.0,0.0,0.0,0.0,0.0,0.0,0.0,0.0,0.0,0.0,0.0,0.0,0.0,0.0,0.0,0.0,0.0,0.0,0.0,0.0,0.0,0.0,0.0,0.0,0.0,0.0,0.0,0.0,0.0,0.0,0.0,0.0,0.0,0.0,0.0,0.0,0.0,0.0,0.0,0.0,0.0,0.0,0.0,0.0,0.0,0.0,0.0,0.0,0.0,0.0,0.0,0.0,0.0,0.0,0.0,0.0,0.0,0.0,0.0,0.0,0.0,0.0,0.0,0.0,0.0,0.0,0.0,0.0,0.0,0.0,0.0,0.0,0.0,0.0,0.0,0.0,0.0,0.0,0.0,0.0,0.0,0.0,0.0,0.0,0.0,0.0,0.0,7.7436,8.4666,9.2746,9.729,9.7944,8.6168,7.7013,0.0,0.0,0.0,0.0,0.0,0.0,0.0,0.0,0.0,0.0,0.0,0.0,0.0,0.0,0.0,0.0,0.0,0.0,0.0,0.0,0.0,0.0,0.0,0.0,0.0,0.0,0.0,0.0,0.0,0.0,0.0,0.0,0.0,0.0,0.0,0.0,0.0,0.0,0.0,0.0,0.0,0.0,0.0,0.0,0.0,0.0,0.0,0.0,5.1952,0.0,0.0,0.0,0.0,0.0,0.0,0.0,0.0,0.0,0.0,0.0,0.0,0.0,0.0,0.0,0.0,0.0,0.0,0.0,0.0,0.0,0.0,0.0,0.0,0.0,0.0,0.0,0.0,0.0,0.0,0.0,0.0,0.0,0.0,0.0,0.0,0.0,0.0,0.0,0.0,0.0,0.0,0.0,0.0,0.0,0.0,0.0,0.0,0.0,0.0,0.0,0.0,0.0,0.0,0.0,0.0,0.0,0.0,0.0,8.021,8.7743,9.498,9.8947,9.9065,8.9746,8.1012,0.0,0.0,0.0,0.0,0.0,0.0,0.0,0.0,0.0,0.0,0.0,0.0,0.0,0.0,0.0,0.0,0.0,0.0,0.0,0.0,0.0,0.0,0.0,0.0,0.0,0.0,0.0,0.0,0.0,0.0,0.0,0.0,0.0,0.0,0.0,0.0,0.0,0.0,0.0,0.0,0.0,0.0,0.0,0.0,0.0,0.0,0.0,0.0,0.0,0.0,0.0,0.0,0.0,0.0,0.0,0.0,0.0,0.0,0.0,0.0,0.0,0.0,0.0,0.0,0.0,0.0,0.0,0.0,0.0,0.0,0.0,0.0,0.0,0.0,0.0,0.0,0.0,0.0,0.0,0.0,0.0,0.0,0.0,0.0,0.0,0.0,0.0,0.0,0.0,0.0,0.0,0.0,0.0,0.0,0.0,0.0,0.0,0.0,0.0,0.0,0.0,0.0,0.0,0.0,0.0,0.0,0.0,7.3404,8.2328,9.0511,9.6867,10.0029,9.9796,9.3518,8.5318,7.5317,0.0,0.0,0.0,0.0,0.0,0.0,0.0,0.0,0.0,0.0,0.0,0.0,0.0,0.0,0.0,0.0,0.0,0.0,0.0,0.0,0.0,0.0,0.0,0.0,0.0,0.0,0.0,0.0,0.0,0.0,0.0,0.0,0.0,0.0,0.0,0.0,0.0,0.0,4.8777,5.1272,0.0,0.0,0.0,0.0,0.0,0.0,0.0,0.0,5.259,0.0,0.0,0.0,0.0,0.0,0.0,0.0,0.0,0.0,0.0,0.0,0.0,0.0,0.0,0.0,0.0,0.0,0.0,0.0,0.0,0.0,0.0,0.0,0.0,0.0,0.0,0.0,0.0,0.0,0.0,0.0,0.0,0.0,0.0,0.0,0.0,0.0,0.0,0.0,0.0,0.0,0.0,0.0,0.0,0.0,0.0,0.0,0.0,0.0,0.0,0.0,0.0,0.0,0.0,0.0,0.0,7.1432,7.5515,8.2907,9.391,9.8028,9.9757,9.8911,9.3826,8.6207,7.6205,0.0,0.0,0.0,0.0,0.0,0.0,0.0,0.0,0.0,0.0,0.0,0.0,0.0,0.0,0.0,0.0,0.0,0.0,0.0,0.0,0.0,0.0,0.0,0.0,0.0,0.0,0.0,0.0,0.0,0.0,0.0,0.0,0.0,0.0,0.0,0.0,0.0,0.0,0.0,5.7816,5.8316,0.0,0.0,0.0,0.0,0.0,0.0,0.0,0.0,5.4042,0.0,0.0,0.0,0.0,0.0,0.0,0.0,0.0,0.0,0.0,0.0,0.0,0.0,0.0,0.0,0.0,0.0,0.0,0.0,0.0,0.0,0.0,0.0,0.0,0.0,0.0,0.0,0.0,0.0,0.0,0.0,0.0,0.0,0.0,0.0,0.0,0.0,0.0,0.0,0.0,0.0,0.0,0.0,0.0,0.0,0.0,0.0,0.0,0.0,0.0,0.0,0.0,0.0,0.0,0.0,7.1243,7.8321,8.6555,9.5944,9.8795,9.9911,9.9334,9.2402,8.463,0.0,0.0,0.0,0.0,0.0,0.0,0.0,0.0,0.0,0.0,0.0,0.0,0.0,0.0,0.0,0.0,0.0,0.0,0.0,0.0,0.0,0.0,0.0,0.0,0.0,0.0,0.0,0.0,0.0,0.0,0.0,0.0,0.0,0.0,0.0,0.0,0.0,0.0,0.0,0.0,6.0855,6.2432,6.675,0.0,0.0,0.0,0.0,0.0,0.0,5.7268,5.5781,0.0,0.0,0.0,0.0,0.0,0.0,0.0,0.0,0.0,0.0,0.0,0.0,0.0,0.0,0.0,0.0,0.0,0.0,0.0,0.0,0.0,0.0,0.0,0.0,0.0,0.0,0.0,0.0,0.0,0.0,0.0,0.0,0.0,0.0,0.0,0.0,0.0,0.0,0.0,0.0,0.0,0.0,0.0,0.0,0.0,0.0,0.0,0.0,0.0,0.0,0.0,0.0,0.0,0.0,0.0,7.0246,8.0552,8.9631,9.7134,9.937,10.018,9.968,9.1056,8.3014,0.0,0.0,0.0,0.0,0.0,0.0,0.0,0.0,0.0,0.0,0.0,0.0,0.0,0.0,0.0,0.0,0.0,0.0,0.0,0.0,0.0,0.0,0.0,0.0,0.0,0.0,0.0,0.0,0.0,0.0,0.0,0.0,0.0,0.0,0.0,0.0,0.0,0.0,0.0,0.0,0.0,6.6508,7.0979,6.6641,0.0,0.0,0.0,0.0,6.0786,6.1358,0.0,0.0,0.0,0.0,0.0,0.0,0.0,0.0,0.0,0.0,0.0,0.0,0.0,0.0,0.0,0.0,0.0,0.0,0.0,0.0,0.0,0.0,0.0,0.0,0.0,0.0,0.0,0.0,0.0,0.0,0.0,0.0,0.0,0.0,0.0,0.0,0.0,0.0,0.0,0.0,0.0,0.0,0.0,0.0,0.0,0.0,0.0,0.0,0.0,0.0,0.0,0.0,0.0,0.0,0.0,0.0,7.1748,8.0554,8.909,9.7132,9.9899,10.044,9.8908,9.1366,8.336,0.0,0.0,0.0,0.0,0.0,0.0,0.0,0.0,0.0,0.0,0.0,0.0,0.0,0.0,0.0,0.0,0.0,0.0,0.0,0.0,0.0,0.0,0.0,0.0,0.0,0.0,0.0,0.0,0.0,0.0,0.0,0.0,0.0,0.0,0.0,0.0,0.0,0.0,0.0,0.0,0.0,7.001,6.9975,6.7412,6.5072,0.0,0.0,6.6906,7.0089,7.4292,0.0,0.0,0.0,0.0,0.0,0.0,0.0,0.0,0.0,0.0,0.0,0.0,0.0,0.0,0.0,0.0,0.0,0.0,0.0,0.0,0.0,0.0,0.0,0.0,0.0,0.0,0.0,0.0,0.0,0.0,0.0,0.0,0.0,0.0,0.0,0.0,0.0,0.0,0.0,0.0,0.0,0.0,0.0,0.0,0.0,0.0,0.0,0.0,0.0,0.0,0.0,0.0,0.0,0.0,0.0,6.4556,7.225,8.2937,9.1633,9.7983,9.9791,10.0022,9.8832,8.9058,8.0746,0.0,0.0,0.0,0.0,0.0,0.0,0.0,0.0,0.0,0.0,0.0,0.0,0.0,0.0,0.0,0.0,0.0,0.0,0.0,0.0,0.0,0.0,0.0,0.0,0.0,0.0,0.0,0.0,0.0,0.0,0.0,0.0,0.0,0.0,0.0,0.0,0.0,0.0,0.0,0.0,0.0,0.0,7.3166,7.3131,0.0,0.0,0.0,7.1434,7.146,0.0,0.0,0.0,0.0,0.0,0.0,0.0,0.0,0.0,0.0,0.0,0.0,0.0,0.0,0.0,0.0,0.0,0.0,0.0,0.0,0.0,0.0,0.0,0.0,0.0,0.0,0.0,0.0,0.0,0.0,0.0,0.0,0.0,0.0,0.0,0.0,0.0,0.0,0.0,0.0,0.0,0.0,0.0,0.0,0.0,0.0,0.0,0.0,0.0,0.0,0.0,0.0,0.0,0.0,0.0,0.0,0.0,7.2591,8.5247,9.4095,9.8637,9.9873,10.0024,9.8985,8.8827,0.0,0.0,0.0,0.0,0.0,0.0,0.0,0.0,0.0,0.0,0.0,0.0,0.0,0.0,0.0,0.0,0.0,0.0,0.0,0.0,0.0,0.0,0.0,0.0,0.0,0.0,0.0,3.8659,0.0,0.0,0.0,0.0,0.0,0.0,0.0,0.0,0.0,0.0,0.0,0.0,0.0,0.0,7.4238,7.5513,7.7671,7.8626,0.0,0.0,7.5764,7.5134,8.0412,8.0473,0.0,0.0,0.0,0.0,0.0,0.0,0.0,0.0,0.0,0.0,0.0,0.0,0.0,0.0,0.0,0.0,0.0,0.0,0.0,0.0,0.0,0.0,0.0,0.0,0.0,0.0,0.0,0.0,0.0,0.0,0.0,0.0,0.0,0.0,0.0,0.0,0.0,0.0,0.0,0.0,0.0,0.0,0.0,0.0,0.0,0.0,0.0,0.0,0.0,0.0,0.0,0.0,0.0,0.0,0.0,7.3586,8.6671,9.5213,9.8714,10.0402,10.0825,9.9913,9.3054,8.4656,0.0,0.0,0.0,0.0,0.0,0.0,0.0,0.0,0.0,0.0,0.0,0.0,0.0,0.0,0.0,0.0,0.0,0.0,0.0,0.0,0.0,0.0,0.0,0.0,0.0,0.0,0.0,0.0,0.0,0.0,0.0,0.0,0.0,0.0,0.0,0.0,0.0,0.0,0.0,0.0,0.0,7.4665,7.4778,7.8282,8.2269,0.0,8.2469,8.1038,8.5546,9.2466,9.1635,7.4443,0.0,0.0,0.0,0.0,0.0,0.0,0.0,0.0,0.0,0.0,0.0,0.0,0.0,0.0,0.0,0.0,0.0,0.0,0.0,0.0,0.0,0.0,0.0,0.0,0.0,0.0,0.0,0.0,0.0,0.0,0.0,0.0,0.0,0.0,0.0,0.0,0.0,0.0,0.0,0.0,0.0,0.0,0.0,0.0,0.0,0.0,0.0,0.0,0.0,0.0,0.0,0.0,0.0,6.7741,7.3547,8.6824,9.56,9.9437,10.0271,10.0713,10.0858,9.3769,8.5528,0.0,0.0,0.0,0.0,0.0,0.0,0.0,0.0,0.0,0.0,0.0,0.0,0.0,0.0,0.0,0.0,0.0,0.0,0.0,0.0,0.0,0.0,0.0,0.0,0.0,0.0,0.0,0.0,4.9511,4.9471,4.674,0.0,0.0,0.0,0.0,0.0,0.0,0.0,0.0,0.0,0.0,7.6821,8.0473,8.4166,0.0,0.0,8.5749,8.4789,8.5682,8.8292,8.5786,7.2747,6.8324,0.0,0.0,0.0,0.0,0.0,0.0,0.0,0.0,0.0,0.0,0.0,0.0,0.0,0.0,0.0,0.0,0.0,0.0,0.0,0.0,0.0,0.0,0.0,0.0,0.0,0.0,0.0,0.0,0.0,0.0,0.0,0.0,0.0,0.0,0.0,0.0,0.0,0.0,0.0,0.0,0.0,0.0,0.0,0.0,0.0,0.0,0.0,0.0,0.0,0.0,0.0,0.0,6.8513,7.3853,8.7478,9.6172,9.9667,10.0521,10.0927,10.0818,9.484,8.7415,0.0,0.0,0.0,0.0,0.0,0.0,0.0,0.0,0.0,0.0,0.0,0.0,0.0,0.0,0.0,0.0,0.0,0.0,0.0,0.0,0.0,0.0,0.0,0.0,0.0,0.0,0.0,0.0,5.2318,5.1202,4.6622,0.0,0.0,0.0,0.0,0.0,0.0,0.0,0.0,0.0,0.0,7.9477,8.3901,8.7166,8.8656,8.7204,8.5496,8.4407,8.4496,8.4524,8.1321,7.1975,0.0,0.0,0.0,0.0,0.0,0.0,0.0,0.0,0.0,0.0,0.0,0.0,0.0,0.0,0.0,0.0,0.0,0.0,0.0,0.0,0.0,0.0,0.0,0.0,0.0,0.0,0.0,4.7966,0.0,0.0,4.5593,0.0,0.0,0.0,0.0,0.0,0.0,0.0,0.0,0.0,0.0,0.0,0.0,0.0,0.0,0.0,0.0,0.0,0.0,0.0,0.0,0.0,0.0,6.8821,7.4738,8.8823,9.7109,9.8971,10.1272,10.1771,10.0264,9.6877,9.1111,8.2629,0.0,0.0,0.0,0.0,0.0,0.0,0.0,0.0,0.0,0.0,0.0,0.0,0.0,0.0,0.0,0.0,0.0,0.0,0.0,0.0,0.0,0.0,0.0,0.0,0.0,0.0,4.7429,4.8548,4.8204,0.0,0.0,0.0,0.0,0.0,0.0,0.0,0.0,0.0,6.3512,7.4709,8.2443,8.3522,8.5828,8.7203,8.6372,8.1432,7.9057,8.3077,8.3549,8.1021,0.0,0.0,0.0,0.0,0.0,0.0,0.0,0.0,0.0,0.0,0.0,0.0,0.0,0.0,0.0,0.0,0.0,0.0,0.0,0.0,0.0,0.0,0.0,0.0,0.0,0.0,0.0,5.2864,5.0926,0.0,0.0,0.0,0.0,0.0,0.0,0.0,0.0,0.0,0.0,0.0,6.294,6.4936,0.0,0.0,0.0,0.0,0.0,0.0,0.0,0.0,0.0,0.0,0.0,0.0,6.9592,7.5857,8.8667,9.7089,10.0451,10.1361,10.1569,10.1057,9.8352,9.1358,7.9719,0.0,0.0,0.0,0.0,0.0,0.0,0.0,0.0,0.0,0.0,0.0,0.0,0.0,0.0,0.0,0.0,0.0,0.0,0.0,0.0,0.0,0.0,0.0,0.0,0.0,5.0623,0.0,0.0,0.0,0.0,0.0,0.0,0.0,0.0,0.0,0.0,0.0,5.9625,6.7705,7.4168,7.944,8.3101,8.5286,8.7241,0.0,0.0,0.0,0.0,0.0,0.0,0.0,0.0,0.0,0.0,0.0,0.0,0.0,0.0,6.9646,5.7884,5.6616,5.7349,5.7059,0.0,0.0,0.0,0.0,0.0,0.0,0.0,0.0,0.0,0.0,0.0,0.0,0.0,0.0,5.7019,5.5472,5.5407,0.0,0.0,0.0,0.0,0.0,0.0,0.0,0.0,6.4746,6.7913,6.9558,7.1499,7.1374,0.0,6.828,6.3157,0.0,0.0,0.0,0.0,0.0,0.0,0.0,0.0,7.0152,7.632,8.8334,9.6342,9.9576,10.0571,10.0754,10.0192,9.7245,9.0978,8.109,7.3129,6.6151,0.0,0.0,0.0,0.0,0.0,0.0,0.0,0.0,0.0,0.0,0.0,0.0,0.0,0.0,0.0,0.0,0.0,0.0,0.0,0.0,0.0,0.0,0.0,5.301,0.0,0.0,0.0,0.0,0.0,0.0,0.0,0.0,0.0,5.4891,5.9469,6.5473,7.3011,7.744,8.0748,8.2868,0.0,0.0,0.0,0.0,0.0,0.0,0.0,7.5091,7.2014,7.1627,7.1587,7.1245,7.5286,7.8336,7.7466,0.0,0.0,6.7175,6.5561,6.6017,6.5691,6.767,6.9401,6.94,7.1668,7.3824,0.0,0.0,0.0,0.0,0.0,0.0,0.0,0.0,6.0629,6.0896,0.0,6.0319,0.0,0.0,0.0,0.0,0.0,6.0786,0.0,0.0,7.4002,7.71,7.4602,7.6635,7.6523,7.446,7.5509,7.2834,6.6542,5.8523,0.0,0.0,0.0,0.0,0.0,0.0,7.0364,7.6452,8.8048,9.491,9.6659,9.9041,9.9542,9.788,9.4009,9.0236,8.6533,7.9572,7.3211,6.7683,6.0509,0.0,0.0,0.0,0.0,0.0,0.0,0.0,0.0,0.0,0.0,0.0,0.0,0.0,0.0,0.0,0.0,0.0,0.0,0.0,0.0,5.4203,0.0,0.0,0.0,0.0,0.0,0.0,0.0,0.0,0.0,0.0,5.9278,6.5856,7.3051,7.8702,0.0,0.0,0.0,0.0,8.4265,7.9789,7.755,7.6932,7.7879,7.9773,8.086,8.001,0.0,0.0,8.2054,8.1477,8.1002,7.849,8.2361,8.4178,8.0821,7.7908,7.6084,7.5317,7.5974,7.6474,7.6707,7.9361,8.1544,7.0183,0.0,0.0,0.0,0.0,6.409,6.6806,7.1171,7.032,6.8857,6.7029,6.6367,0.0,0.0,0.0,0.0,0.0,0.0,6.6977,7.0417,7.4482,7.8051,8.1203,8.1891,8.1841,8.1178,8.0388,7.8119,7.4476,6.9941,6.2826,5.3409,0.0,0.0,0.0,0.0,7.1821,7.8442,8.8098,9.4276,9.6564,9.9023,9.9792,9.8729,9.4845,9.1434,8.8655,8.4731,7.9435,7.2592,6.8796,0.0,0.0,0.0,0.0,0.0,0.0,0.0,0.0,0.0,0.0,0.0,0.0,0.0,0.0,0.0,0.0,0.0,0.0,0.0,5.0743,5.386,5.4475,0.0,0.0,0.0,0.0,0.0,0.0,0.0,0.0,0.0,7.055,7.14,7.2899,0.0,0.0,7.8709,7.709,8.0592,8.3932,8.5539,8.5373,0.0,8.7833,8.5694,8.3743,8.3474,8.617,8.8291,8.8323,8.9789,9.0992,9.0738,9.1533,9.1767,9.0716,8.76,8.51,8.4834,8.5824,8.682,8.6978,8.8596,8.9864,7.8974,7.2983,6.8767,6.8278,7.0229,7.0301,7.2755,7.6742,7.6324,7.5096,7.3361,7.2932,6.96,6.4194,6.2362,0.0,0.0,0.0,7.12,7.5662,7.7157,8.0172,8.4171,8.4595,8.454,8.4253,8.3455,8.2027,7.9989,7.7147,7.1295,6.2717,0.0,0.0,6.0859,6.736,7.3695,7.9675,8.6776,9.2005,9.5135,9.759,9.8777,9.8509,9.5352,9.2835,9.1327,8.883,8.48,7.9011,7.5576,6.991,0.0,0.0,0.0,0.0,0.0,0.0,0.0,0.0,0.0,0.0,0.0,4.5313,4.043,0.0,0.0,0.0,4.9624,5.3165,5.5056,5.7322,0.0,0.0,0.0,0.0,0.0,0.0,0.0,6.3364,6.9615,7.4779,7.7636,7.7861,7.8436,8.0435,8.1166,8.1204,8.036,0.0,8.6769,8.936,8.9708,9.0335,9.2172,9.0501,8.9017,8.9359,9.0671,9.1943,9.3016,9.4559,9.5675,9.6091,9.5887,9.5529,9.5529,9.3378,9.1444,9.0846,9.1504,9.2212,9.2283,9.3159,9.3725,8.6399,8.4348,7.6933,7.4548,7.5604,7.6342,7.7602,7.9194,7.9627,7.9773,7.9685,7.9353,7.699,7.3065,7.0006,0.0,7.0457,7.3345,7.6596,8.0142,8.143,8.2998,8.47,8.5331,8.5289,8.4724,8.5126,8.4699,8.3382,8.1044,7.8205,7.4785,7.0344,6.8014,6.8033,7.1399,7.5614,8.0398,8.4797,8.9046,9.3194,9.5433,9.6939,9.7553,9.5441,9.4151,9.3854,9.1657,8.8913,8.5641,8.0944,7.5512,6.9406,0.0,0.0,0.0,0.0,0.0,0.0,0.0,0.0,0.0,0.0,0.0,0.0,0.0,0.0,0.0,5.7055,0.0,6.2406,6.3088,0.0,0.0,0.0,5.9289,6.2829,6.6036,6.9259,7.2419,0.0,0.0,8.1677,8.4516,8.7472,9.0049,9.0011,8.9398,8.86,8.9904,9.142,9.141,9.1822,9.2303,9.3366,9.4155,9.4867,9.5439,9.6283,9.6016,9.6055,9.6168,9.6285,9.6283,9.6283,9.6245,9.6283,9.605,9.5788,9.4097,9.3877,9.3968,9.3936,9.3997,9.4019,8.9147,8.8083,8.6174,8.3821,8.1399,8.1583,8.2586,8.401,8.3582,8.3025,8.2385,8.1519,7.9573,7.6885,7.6723,7.6886,7.7436,7.9374,8.1088,8.2566,8.3509,8.4494,8.5511,8.5676,8.5663,8.5536,8.564,8.5218,8.4291,8.3697,8.2027,7.9462,7.8248,7.4808,6.9427,7.268,7.628,7.9958,8.4611,8.9551,9.473,9.5501,9.5877,9.6027,9.4903,9.3387,9.1527,9.0303,8.8721,8.6654,8.3969,8.0128,7.4897,6.5992,0.0,0.0,0.0,0.0,0.0,0.0,0.0,0.0,0.0,5.0551,4.2736,0.0,5.2161,0.0,5.8778,6.3589,6.571,6.5553,0.0,0.0,6.6936,6.755,7.217,7.4527,7.6356,7.7832,8.1871,8.5396,8.7547,8.9054,9.1206,9.4206,9.0859,8.7671,8.6938,9.0479,9.3115,9.342,9.6277,9.8464,9.7308,9.7027,9.6749,9.6362,9.6283,9.6283,9.6283,9.6283,9.6283,9.6283,9.6283,9.6283,9.6262,9.6283,9.6156,9.5717,9.5248,9.4881,9.4872,9.4475,9.3928,9.0661,8.9959,8.9913,8.8413,8.606,8.6097,8.6582,8.7358,8.6954,8.6101,8.4915,8.3627,8.2104,8.0633,8.1364,8.1604,8.1538,8.3071,8.4238,8.5037,8.582,8.6623,8.7394,8.7394,8.7399,8.7399,8.7394,8.717,8.6725,8.6371,8.5339,8.3683,8.332,8.0457,7.543,7.6085,7.7818,8.0318,8.5082,8.9597,9.3671,9.4584,9.4446,9.3331,9.217,8.9936,8.644,8.589,8.4627,8.2559,8.1391,7.8963,7.4853,6.7941,6.1865,0.0,0.0,0.0,0.0,0.0,0.0,0.0,0.0,0.0,0.0,0.0,5.6085,5.7582,6.3163,6.7702,7.0244,7.0786,7.2016,7.459,7.4395,7.5626,7.955,8.1791,8.3501,8.4753,8.7929,9.0573,9.2009,9.3249,9.4516,9.6129,9.379,9.1708,9.1475,9.3708,9.5523,9.6059,9.8365,9.9748,9.8406,9.7827,9.725,9.6478,9.6283,9.6283,9.6283,9.6283,9.6283,9.6283,9.6283,9.6162,9.5894,9.5807,9.5728,9.5294,9.4743,9.4395,9.4608,9.3827,9.2918,9.1473,9.0767,9.0767,9.0363,8.9698,8.9693,8.9579,8.94,8.94,8.856,8.7055,8.5779,8.4747,8.4082,8.4862,8.4825,8.4262,8.5637,8.6632,8.7353,8.8023,8.8707,8.94,8.94,8.94,8.94,8.94,8.94,8.9359,8.8674,8.7835,8.6876,8.6228,8.4691,8.2231,8.0208,7.9947,8.1485,8.5816,8.9229,9.1588,9.2872,9.2391,9.0074,8.8422,8.5416,8.0914,8.0547,7.9355,7.7118,7.6859,7.5747,7.3319,6.8341,6.4026,0.0,5.6429,0.0,0.0,0.0,0.0,0.0,0.0,0.0,0.0,5.9625,6.1429,6.466,6.9125,7.3012,7.5742,7.7398,7.8938,8.0589,8.1629,8.3131,8.548,8.7867,8.9929,9.1526,9.3647,9.5029,9.529,9.6636,9.7173,9.6673,9.6939,9.6903,9.717,9.7132,9.7502,9.845,9.8488,9.8211,9.7711,9.7401,9.7096,9.6437,9.6283,9.6283,9.6283,9.6283,9.6283,9.6283,9.6204,9.591,9.5298,9.5131,9.4874,9.4493,9.3738,9.3318,9.3692,9.2898,9.1853,9.2349,9.1588,9.1588,9.1514,9.1363,9.1367,9.0583,8.94,8.94,8.8854,8.8023,8.834,8.8046,8.7394,8.812,8.8409,8.8299,8.8556,8.8812,8.8959,8.9106,8.9253,8.94,8.94,8.94,8.94,8.94,8.94,8.94,8.9253,8.8092,8.6081,8.6518,8.5233,8.2378,0.0,0.0,0.0,8.611,8.8385,9.0661,8.9858,8.8504,8.6746,8.5155,0.0,7.9258,7.8355,7.7734,7.717,7.7068,0.0,0.0,0.0,0.0,0.0,0.0,0.0,0.0,0.0,0.0,0.0,6.659,6.5894,6.2814,6.6784,7.0709,7.336,7.5711,7.8671,8.255,8.3241,8.413,8.5786,8.7318,8.8703,8.9936,9.1623,9.3169,9.4147,9.4726,9.5525,9.6783,9.7326,9.744,9.7363,9.8019,9.7944,9.6747,9.717,9.7322,9.6925,9.6892,9.7016,9.744,9.6976,9.6555,9.6324,9.6283,9.6283,9.6247,9.6267,9.6279,9.6242,9.5808,9.5366,9.5145,9.473,9.4367,9.4922,9.3908,9.3043,9.3181,9.2452,9.1812,9.3428,9.3019,9.3019,9.3015,0.0,9.3019,9.2349,9.1202,9.0767,9.011,8.9409,8.9404,8.9179,8.8821,8.9216,8.94,8.9436,8.9803,8.9991,9.0028,9.04,9.0583,9.0588,9.0588,9.0583,9.0588,9.0588,9.0588,9.0546,9.0175,8.9188,8.7573,8.761,8.6591,8.4641,8.5371,8.5596,8.5196,8.6775,8.8752,9.1028,9.0808,8.9454,8.704,8.5045,0.0,0.0,0.0,0.0,0.0,0.0,0.0,0.0,0.0,0.0,7.2336,6.9238,6.798,6.9354,6.9592,7.0867,7.3825,7.6746,7.609,7.0627,7.4131,7.7671,8.0127,8.1554,8.3826,8.7551,8.84,8.9171,9.0368,9.1285,9.1979,9.2441,9.3566,9.4493,9.4948,9.5394,9.6115,9.7322,9.7901,9.8098,9.8175,9.8868,9.8985,9.7827,9.748,9.7209,9.6437,9.6283,9.6437,9.6786,9.6593,9.6093,9.5828,9.6019,9.6093,9.5713,9.5732,9.578,9.5694,9.5174,9.448,9.3612,9.3148,9.2796,9.243,9.1763,9.1237,9.1253,9.151,9.2065,9.4456,9.4304,9.4304,9.4304,9.4304,9.4304,9.3932,9.323,0.0,0.0,0.0,9.0065,8.9767,8.9624,8.9767,8.9845,8.9881,9.0656,9.1023,9.106,9.1725,9.2102,9.2253,9.2102,9.2024,9.2028,9.2028,9.1955,9.1771,9.1138,9.04,8.9624,8.9083,8.8426,8.772,8.8312,8.7954,8.6742,8.7655,8.9238,9.1326,9.1946,9.0661,8.7431,8.527,8.1709,7.6533,7.4254,7.2409,7.0884,7.1548,7.2382,7.3158,7.4466,7.5986,7.7655,7.7518,7.8416,8.0703,7.9631,8.0094,8.2901,8.5632,8.4978,7.9713,8.1364,8.3668,8.6053,8.6705,8.8282,9.1323,9.2249,9.2982,9.3636,9.3828,9.3907,9.3984,9.4833,9.5485,9.5525,9.6252,9.7055,9.7942,9.8598,9.9021,9.9139,9.9755,9.9911,9.8947,9.8024,9.7216,9.6476,9.6283,9.6285,9.6095,9.6057,9.5711,9.4948,9.5328,9.5557,9.4992,9.4745,9.4774,9.4659,9.4063,9.2975,9.1779,9.142,9.0922,8.9802,8.951,8.9505,8.984,9.0624,9.1803,9.4955,9.4304,9.4304,9.4304,9.4304,9.4304,9.4235,9.401,9.2473,9.1363,9.0624,9.1216,9.1101,9.0477,9.1143,9.1473,9.1514,9.2354,9.2753,9.2758,9.2863,9.3272,9.39,9.324,9.29,9.2941,9.2941,9.2537,9.1845,9.1698,9.1216,9.0583,9.0996,9.0849,9.0179,9.022,9.0143,8.9931,8.8789,8.8716,8.9698,8.9193,8.7358,8.4229,8.3214,8.0861,7.7289,7.6199,7.547,7.5235,7.5951,7.7282,7.9186,7.9666,8.1071,8.3466,8.252,8.2788,8.5018,8.4976,8.6632,9.0441,9.1366,9.0289,8.7485,8.8053,8.9434,9.1171,9.0746,9.1248,9.3097,9.352,9.3715,9.3833,9.441,9.4833,9.4951,9.6215,9.7096,9.7098,9.7906,9.8714,9.9411,9.9755,9.9873,10.0027,10.0522,10.0558,9.9142,9.8076,9.723,9.6521,9.6283,9.598,9.5369,9.5179,9.4778,9.402,9.3991,9.4101,9.3745,9.3351,9.3118,9.3059,9.2066,9.1116,9.0615,9.013,8.9916,8.9926,8.9583,8.9624,9.0629,9.0441,9.0436,9.5951,9.5626,9.5589,9.5589,9.5589,9.5144,9.4951,9.4845,9.3675,9.2983,9.2615,9.2537,9.2537,9.2537,9.2065,9.2065,9.2537,9.2937,9.312,9.312,9.3561,9.3942,9.4235,9.3932,9.3529,9.312,9.312,9.2648,9.1886,9.1812,9.1395,9.0661,9.0551,9.051,9.0583,9.0624,9.0803,9.1216,9.0519,9.0551,9.1391,9.1473,9.078,8.9344,8.7688,8.5669,8.3275,8.1595,8.0314,7.9437,8.0593,8.1719,8.2725,8.3683,8.5149,8.7145,8.7041,8.7646,8.9525,8.9982,9.1479,9.4287,9.4554,9.4482,9.4217,9.2787,9.2323,9.3097,9.3176,9.3751,9.498,9.5518,9.5944,9.6408,9.6833,9.7062,9.7139,9.7639,9.8173,9.825,9.8557,9.9139,9.999,10.0103,10.0332,10.0673,10.1132,10.0825,9.9678,9.9158,9.8049,9.6143,9.5967,9.5661,9.4607,9.4292,9.3768,9.268,9.285,9.276,9.2193,9.1616,9.1563,9.1466,9.0575,8.9797,8.9383,8.8988,8.8806,8.8502,8.8418,8.8532,8.8973,8.9519,9.051,9.6727,9.6727,9.6727,9.6727,9.6649,9.602,9.5753,9.5685,9.5107,9.4818,9.4708,9.3818,9.3717,9.4121,9.2946,9.2721,9.334,9.3561,9.3629,9.3707,9.4263,9.4671,9.4818,9.4676,9.4226,9.3703,9.3634,9.312,9.2207,9.2102,9.1693,9.0881,9.0253,9.0253,9.0849,9.0877,9.1179,9.1771,9.1812,9.2138,9.2794,9.3602,9.3868,9.335,9.1946,9.0404,8.8793,8.7105,8.5637,8.4507,8.5564,8.634,8.658,8.7855,8.9235,9.0558,9.1308,9.229,9.3584,9.4407,9.5444,9.6709,9.6865,9.7403,9.8368,9.6406,9.4869,9.4907,9.5525,9.6141,9.6788,9.7365,9.806,9.8714,9.8793,9.8639,9.8755,9.8945,9.9101,9.9101,9.9252,9.9673,10.0178,10.0373,10.064,10.113,10.1279,10.0976,10.0296,10.0233,9.9004,9.678,9.6153,9.589,9.4344,9.383,9.3109,9.1617,9.1719,9.1528,9.0694,9.0263,8.997,8.9857,8.9342,8.8676,8.8058,8.793,8.7831,8.7623,8.7614,8.75,8.7977,8.9115,9.062,9.6722,9.6727,9.68,9.6727,9.6759,9.6644,9.6607,9.6607,9.6502,9.6465,9.6282,9.4855,9.4267,9.4267,9.4125,9.4047,9.4231,9.4955,9.524,9.5244,9.535,9.5795,9.6282,9.5721,9.5359,9.5208,9.5203,9.4363,9.301,9.2973,9.2537,9.1767,9.1624,9.162,9.1693,9.1693,9.1734,9.1803,9.1812,9.184,9.1955,9.2758,9.2464,9.0987,9.2244,9.2088,9.0514,9.0881,9.1037,9.0968,9.0986,9.1505,9.2184,9.3031,9.3885,9.4668,9.5344,9.6196,9.694,9.7839,9.8214,9.8521,9.8493,9.8582,9.8865,9.8521,9.8291,9.8228,9.8315,9.8329,9.856,9.8639,9.8752,9.8983,9.8983,9.8793,9.8983,9.9488,9.999,9.9988,10.0481,10.1094,10.1053,10.1092,10.1166,10.1243,10.1279,10.1056,10.0447,10.0676,10.0337,9.8083,9.7423,9.6578,9.5092,9.4172,9.2891,9.1452,9.0648,9.0246,8.9739,8.9016,8.8343,8.8509,8.7905,8.7411,8.7293,8.7142,8.7366,8.7697,8.7908,8.8238,8.8927,8.9441,9.0253,9.8112,9.8112,9.8107,9.8112,9.8112,9.8107,9.8112,9.807,9.7608,9.7424,9.7277,9.6208,9.5694,9.5658,9.4749,9.4561,9.5029,9.5354,9.5501,9.5538,9.5978,9.6387,9.6612,9.6387,9.5974,9.5533,9.5501,9.4914,9.3969,9.3827,9.3602,9.3313,9.3276,9.3276,9.3244,9.2794,9.2794,9.3244,9.2799,9.3015,9.3818,9.3418,9.323,9.3483,9.3712,9.3529,9.2905,9.3129,9.3056,9.2643,9.3019,9.3459,9.379,9.4115,9.4389,9.4775,9.5407,9.6114,9.6836,9.7234,9.7867,9.8763,9.8873,9.9235,10.0175,10.0286,10.0132,9.963,9.9104,9.8985,9.9478,9.9562,9.9752,10.0171,10.0286,10.0286,10.0289,10.0555,10.0827,10.0825,10.1092,10.1279,10.1279,10.1279,10.1279,10.1279,10.1279,10.1092,10.0866,10.1094,10.0825,9.9946,9.8996,9.6937,9.4496,9.3375,9.2079,9.0151,8.9135,8.8866,8.8392,8.7951,8.7447,8.7466,8.7284,8.7066,8.706,8.7019,8.7165,8.7647,8.8092,8.8573,8.9845,9.0101,9.0656,9.9098,9.9098,9.9098,9.9098,9.9098,9.9098,9.9098,9.9025,9.8484,9.8122,9.7833,9.7277,9.6906,9.6575,9.5479,9.5295,9.5795,9.5832,9.5827,9.5942,9.6644,9.7021,9.7052,9.7268,9.6937,9.624,9.6203,9.5653,9.4713,9.4382,9.4304,9.4304,9.4304,9.4304,9.4231,9.368,9.3712,9.4199,9.3717,9.4111,9.5129,9.4363,9.44,9.5611,9.5254,9.4965,9.497,9.519,9.4923,9.4143,9.4849,9.5174,9.4955,9.4959,9.504,9.5271,9.5762,9.6387,9.7137,9.7191,9.7791,9.9084,9.9413,10.0064,10.1078,10.1512,10.1308,10.0552,9.987,9.9793,10.001,10.0518,10.1019,10.1592,10.1669,10.1669,10.163,10.1474,10.1243,10.1279,10.1241,10.1279,10.1279,10.1279,10.1279,10.1279,10.1279,10.1279,10.1279,10.1281,10.1202,10.1035,9.9948,9.79,9.4467,9.3415,9.1826,9.0021,8.9054,8.8467,8.7623,8.7452,8.6999,8.7238,8.7197,8.7187,8.7105,8.7064,8.7513,8.7798,8.8459,8.9417,9.0693,9.0881,9.1143,9.9098,9.9135,9.9135,9.9208,9.9135,9.9172,9.9135,9.9245,9.9098,9.8626,9.8053,9.7865,9.7424,9.6791,9.6649,9.6612,9.6649,9.6607,9.6649,9.6791,9.7466,9.7833,9.7911,9.8589,9.8521,9.7645,9.7571,9.6878,9.5452,9.4717,9.4304,9.4341,9.4456,9.4377,9.4414,9.4336,9.4263,9.4451,9.4345,9.474,9.5501,9.5496,9.5868,9.6754,9.6617,9.6539,9.6681,9.7314,9.7319,9.6539,9.7167,9.7277,9.6649,9.657,9.6819,9.7433,9.7626,9.797,9.8621,9.8714,9.9131,10.0025,10.0634,10.1203,10.1315,10.1887,10.1909,10.1282,10.1018,10.0822,10.0501,10.1459,10.2313,10.2517,10.2558,10.252,10.2517,10.1899,10.1358,10.1279,10.1279,10.1279,10.1279,10.1279,10.1279,10.1279,10.1279,10.1255,10.1171,10.1235,10.0923,10.0343,9.98,9.9148,9.6627,9.4671,9.3111,9.1224,8.959,8.9152,8.8699,8.8195,8.7562,8.7265,8.777,8.7852,8.7396,8.7636,8.8388,8.9077,9.0115,9.1143,9.1326,9.1624,9.1739,10.109,10.0655,10.0655,10.0618,10.0623,10.0618,10.0623,10.0581,10.0062,9.9732,9.9365,9.8888,9.8516,9.8254,9.8217,9.7965,9.7461,9.6942,9.7236,9.8075,9.8012,9.8163,9.8663,9.8988,9.8663,9.8012,9.7902,9.7356,9.6355,9.5956,9.5846,9.5841,9.5841,9.5846,9.5736,9.5322,9.5286,9.5731,9.5359,9.5937,9.7588,9.7814,9.8401,9.9595,9.8237,9.7713,9.8217,9.8521,9.83,9.7498,9.776,9.7539,9.6869,9.7204,9.7568,9.7866,9.8356,9.855,9.8389,9.8767,9.9424,10.0152,10.0505,10.099,10.1293,10.164,10.148,10.0973,10.1156,10.1173,10.1281,10.1987,10.2828,10.3328,10.3443,10.3212,10.2825,10.2787,10.2553,10.1589,10.1279,10.1279,10.1329,10.1317,10.1279,10.1279,10.1277,10.1083,10.0705,10.0598,10.0188,9.8959,9.8173,9.7219,9.5372,9.4576,9.3451,9.1551,9.0071,8.9576,8.9078,8.8952,8.8472,8.8494,8.8834,8.8862,8.8494,8.8597,8.9321,8.9917,9.1033,9.1478,9.1702,9.1776,9.1812,10.2595,10.1944,10.1908,10.1871,10.1871,10.1614,10.1651,10.1756,10.1053,10.0545,10.0246,9.9727,9.936,9.9135,9.9098,9.8993,9.8599,9.786,9.807,9.9025,9.8819,9.8961,9.947,9.9764,9.9443,9.8677,9.8127,9.7461,9.6795,9.6727,9.6727,9.669,9.6727,9.6727,9.6612,9.6167,9.6203,9.6497,9.6162,9.6928,9.8841,9.9098,9.9874,10.099,9.9889,9.915,9.9507,9.9465,9.9108,9.8447,9.853,9.8305,9.7635,9.8012,9.8269,9.8342,9.8787,9.8883,9.8452,9.8805,9.9447,10.0231,10.0827,10.1337,10.1751,10.2051,10.1783,10.1381,10.143,10.1876,10.2356,10.2993,10.3628,10.4176,10.4294,10.4064,10.352,10.3676,10.3292,10.2517,10.2246,10.1989,10.1513,10.162,10.1311,10.0724,10.0727,10.0631,9.9994,9.9768,9.9237,9.7764,9.7109,9.6129,9.4813,9.408,9.3395,9.1645,9.0885,9.0273,8.9771,8.9661,8.9638,8.9728,8.9782,8.9773,8.9779,8.9803,9.0092,9.0546,9.1033,9.1551,9.1698,9.1776,9.1812,10.3439,10.2737,10.2695,10.2737,10.2627,10.2123,10.2086,10.2527,10.1903,10.1247,10.0645,10.0356,9.9947,9.9355,9.9397,9.9612,9.9989,9.9433,9.9176,9.9392,9.9874,10.0177,10.0356,10.0953,10.0801,10.0026,9.8641,9.7571,9.6984,9.6869,9.6837,9.6764,9.6722,9.6727,9.6727,9.6612,9.6649,9.669,9.6607,9.7415,9.8873,9.8988,9.969,10.1137,10.1174,10.0838,10.0324,10.0324,9.9952,9.9323,9.9769,9.9874,9.9135,9.9066,9.9093,9.9098,9.9172,9.9172,9.9135,9.9292,9.9856,10.0446,10.1751,10.2407,10.2402,10.297,10.307,10.2363,10.2322,10.275,10.352,10.4167,10.4775,10.5102,10.51,10.5056,10.4736,10.4244,10.3829,10.3588,10.3407,10.3048,10.2069,10.1853,10.1505,10.0108,9.9906,9.9971,9.921,9.8987,9.8286,9.6997,9.6183,9.5399,9.4471,9.3621,9.2803,9.1978,9.1683,9.1253,9.0661,9.0404,9.0404,9.0481,9.0618,9.0609,9.0597,9.0593,9.0611,9.0991,9.1363,9.1624,9.1698,9.1812,9.1812,10.4242,10.3549,10.3513,10.3518,10.3591,10.3801,10.3875,10.3518,10.3224,10.2705,10.1929,10.1389,10.0985,10.0806,10.077,10.088,10.1095,10.0838,10.0765,10.0696,10.0439,10.0618,10.1095,10.1362,10.1068,10.0251,9.9255,9.8631,9.8259,9.7791,9.7539,9.7424,9.6984,9.6727,9.6722,9.6727,9.6727,9.6727,9.6727,9.7236,9.8195,9.8264,9.8819,9.9764,10.0361,10.077,10.11,10.1137,10.0728,9.9984,10.0136,10.0172,9.9984,9.992,9.9911,9.9989,10.0471,10.0471,10.0131,10.0902,10.1362,10.1393,10.2152,10.2315,10.1937,10.2161,10.227,10.1911,10.1864,10.2169,10.2908,10.3258,10.4178,10.5814,10.6015,10.5418,10.44,10.3157,10.2595,10.2865,10.2558,10.1932,10.1622,10.1768,10.1325,10.0084,9.9982,9.976,9.8598,9.8368,9.7269,9.5503,9.5133,9.4871,9.386,9.3162,9.2615,9.217,9.2028,9.1845,9.1363,9.1069,9.1069,9.1188,9.1326,9.1395,9.1381,9.1336,9.1239,9.1322,9.1624,9.1739,9.1776,9.1812,9.1812,10.582,10.4913,10.5175,10.5285,10.5243,10.5526,10.5495,10.5102,10.4252,10.3623,10.2999,10.1981,10.1509,10.1619,10.2091,10.2018,10.1619,10.2055,10.2055,10.1546,10.1027,10.1063,10.1472,10.1509,10.1105,10.0361,9.9805,9.9397,9.9061,9.8594,9.8337,9.8227,9.7818,9.7451,9.7199,9.7135,9.7021,9.6764,9.6727,9.7094,9.787,9.8494,9.9186,10.0026,10.1058,10.1834,10.2348,10.239,10.2013,10.1315,10.0948,10.077,10.0728,10.0728,10.0733,10.0875,10.1431,10.1724,10.1384,10.2375,10.2962,10.2604,10.3136,10.3432,10.2945,10.268,10.2387,10.2387,10.2174,10.2157,10.2635,10.3054,10.3923,10.5275,10.5418,10.5015,10.3935,10.303,10.2705,10.304,10.2821,10.2154,10.1628,10.1754,10.1218,10.0233,10.0054,9.9874,9.8688,9.8355,9.7046,9.5898,9.5428,9.4669,9.3244,9.2689,9.2363,9.2244,9.217,9.2024,9.173,9.1588,9.1551,9.1734,9.1863,9.1867,9.1863,9.1721,9.1624,9.1776,9.1812,9.1812,9.1812,9.1812,9.1812,10.7881,10.6717,10.7341,10.753,10.7456,10.6974,10.7047,10.7121,10.5395,10.4436,10.3964,10.2862,10.2096,10.227,10.3518,10.3376,10.2312,10.3376,10.3413,10.25,10.2055,10.2133,10.1944,10.1656,10.1137,10.054,10.0393,10.0026,9.9544,9.9287,9.9172,9.914,9.8956,9.8699,9.8085,9.798,9.764,9.7163,9.6979,9.7424,9.82,9.9407,10.054,10.1357,10.2679,10.3518,10.3628,10.3743,10.3513,10.2774,10.1976,10.1614,10.1656,10.1656,10.1724,10.1761,10.2375,10.2669,10.2884,10.3476,10.3848,10.3726,10.4371,10.5137,10.4604,10.3896,10.3567,10.359,10.3091,10.2781,10.2988,10.3433,10.3956,10.3976,10.4278,10.412,10.3927,10.3803,10.3651,10.3588,10.3726,10.3321,10.1722,10.207,10.1284,10.0143,9.9906,9.975,9.9265,9.8774,9.859,9.7648,9.6356,9.5391,9.4237,9.3304,9.295,9.2501,9.2354,9.206,9.195,9.1845,9.1812,9.1991,9.2221,9.2258,9.2175,9.1918,9.1812,9.1812,9.1812,9.1812,9.1959,9.2143,9.2359,10.8547,10.8217,10.8406,10.8474,10.8547,10.8846,10.8804,10.8474,10.7813,10.6969,10.6465,10.5579,10.4918,10.5144,10.5469,10.5463,10.517,10.55,10.5647,10.5175,10.5102,10.4325,10.3193,10.2055,10.1431,10.121,10.1137,10.11,10.0838,10.0246,9.9994,9.9952,9.947,9.9061,9.8773,9.8773,9.8694,9.8511,9.8442,9.8846,9.959,10.0062,10.0691,10.1504,10.2595,10.3403,10.3922,10.4504,10.4425,10.3628,10.282,10.2705,10.3119,10.3151,10.3114,10.3188,10.3408,10.3586,10.3733,10.4352,10.4499,10.4027,10.4922,10.4842,10.4278,10.4044,10.3881,10.3887,10.3672,10.3562,10.3596,10.3767,10.392,10.3912,10.3983,10.381,10.3374,10.352,10.3525,10.2503,10.2805,10.2567,10.1997,10.1682,10.1429,10.0428,10.0151,10.0156,9.9662,9.9355,9.9231,9.8364,9.73,9.6441,9.5472,9.4392,9.3584,9.2946,9.2501,9.1987,9.1881,9.1812,9.1812,9.1886,9.2166,9.2285,9.2079,9.1845,9.1808,9.2005,9.1808,9.1881,9.2652,9.3061,9.3308,10.9606,10.9349,10.9679,10.9815,10.9863,11.0304,11.0236,10.9716,10.9055,10.8584,10.7928,10.6864,10.6381,10.6455,10.7079,10.6974,10.6528,10.7115,10.7011,10.635,10.6276,10.5537,10.4325,10.3041,10.2343,10.1944,10.1646,10.1509,10.1399,10.1032,10.0801,10.0733,10.0361,9.9952,9.9622,9.9612,9.958,9.9585,9.9617,9.9989,10.0733,10.1499,10.205,10.271,10.3586,10.4541,10.4986,10.5422,10.5128,10.4105,10.3481,10.3403,10.3812,10.388,10.388,10.3917,10.421,10.4389,10.4614,10.5453,10.5904,10.5726,10.6192,10.6177,10.5689,10.5196,10.4908,10.4493,10.4158,10.3917,10.388,10.388,10.388,10.3939,10.4177,10.4046,10.3314,10.3653,10.3474,10.2899,10.2857,10.2889,10.2123,10.2013,10.1572,10.1063,10.0821,10.0656,10.0324,10.0096,9.9888,9.9291,9.8545,9.7728,9.6709,9.5621,9.435,9.3643,9.3166,9.2542,9.2138,9.2033,9.1968,9.2051,9.2184,9.2322,9.234,9.2331,9.2432,9.2432,9.2079,9.2281,9.3093,9.3496,9.3822,11.0854,11.0168,11.0885,11.1216,11.1142,11.1216,11.1069,11.088,10.979,10.9166,10.8835,10.7598,10.7409,10.7,10.8542,10.8285,10.7005,10.8253,10.796,10.7372,10.7005,10.6559,10.5747,10.4467,10.3549,10.2857,10.205,10.1944,10.1981,10.1871,10.1871,10.1944,10.1834,10.1357,10.0985,10.0718,10.0576,10.0686,10.087,10.1499,10.2427,10.3486,10.4221,10.4871,10.5789,10.6491,10.6638,10.6675,10.6088,10.4551,10.4331,10.4472,10.443,10.4362,10.4394,10.4614,10.5165,10.5484,10.5673,10.6932,10.7823,10.786,10.851,10.8763,10.7956,10.7221,10.6386,10.5861,10.4714,10.4462,10.4394,10.4247,10.4362,10.4525,10.4928,10.4818,10.4357,10.4142,10.4105,10.3953,10.3922,10.3623,10.3104,10.2768,10.2558,10.2191,10.1866,10.1531,10.1279,10.1043,10.0997,10.0897,10.0046,9.9103,9.8004,9.6848,9.5492,9.4414,9.4084,9.3533,9.2831,9.2583,9.2345,9.24,9.2923,9.318,9.3224,9.3225,9.3212,9.3134,9.295,9.3161,9.3524,9.3639,9.3891,11.1656,11.0959,11.1106,11.1216,11.1216,11.1216,11.1216,11.1173,11.0885,11.0665,11.0555,11.0225,11.0047,11.0083,11.0298,11.0115,10.9171,10.9575,10.947,10.936,10.9208,10.8725,10.7582,10.5893,10.4462,10.3733,10.3481,10.3334,10.3293,10.3298,10.3696,10.4022,10.3151,10.271,10.3004,10.2522,10.2223,10.2296,10.2815,10.3853,10.4955,10.5579,10.6381,10.7367,10.7954,10.8175,10.829,10.8285,10.8101,10.7666,10.7157,10.679,10.6649,10.6649,10.6643,10.6643,10.679,10.7011,10.7304,10.8369,10.9433,10.9397,10.9973,11.0597,11.0393,10.8962,10.8252,10.7727,10.6743,10.5831,10.5647,10.5794,10.5684,10.5684,10.5867,10.5977,10.5867,10.5799,10.5212,10.4472,10.4499,10.453,10.377,10.3654,10.3476,10.3293,10.2925,10.2517,10.2265,10.1976,10.1886,10.1865,10.1354,10.0346,9.9158,9.7975,9.6703,9.5772,9.5405,9.5222,9.4483,9.4088,9.4217,9.4089,9.3901,9.4034,9.4053,9.4053,9.4042,9.395,9.401,9.452,9.4809,9.4483,9.441,11.2133,11.1772,11.1766,11.1546,11.1362,11.1998,11.2102,11.1876,11.217,11.2102,11.1808,11.1772,11.1552,11.1216,11.1179,11.0928,11.0671,11.0566,11.0346,11.0052,10.9905,10.9318,10.829,10.6963,10.5678,10.4614,10.4032,10.3922,10.3953,10.4284,10.4604,10.5117,10.4577,10.4724,10.5023,10.4614,10.4724,10.506,10.5395,10.6276,10.7299,10.7556,10.7776,10.861,10.8793,10.8793,10.8762,10.9171,10.9092,10.8982,10.9055,10.8877,10.829,10.8149,10.8185,10.8149,10.8149,10.8149,10.8474,10.9213,10.9942,11.0057,11.0781,11.0814,11.0692,10.9755,10.8997,10.8315,10.7456,10.6827,10.646,10.6386,10.6386,10.6386,10.6386,10.6386,10.6386,10.6386,10.6161,10.5353,10.5495,10.5196,10.4829,10.4535,10.4137,10.3848,10.3628,10.3256,10.3276,10.2998,10.2551,10.2446,10.2243,10.1485,10.0303,9.9112,9.7919,9.7314,9.7094,9.7163,9.7011,9.6736,9.6572,9.5867,9.5004,9.4856,9.487,9.488,9.5031,9.5257,9.5547,9.6093,9.624,9.58,9.5836,11.2695,11.259,11.2585,11.217,11.1845,11.2994,11.3068,11.2548,11.3104,11.2695,11.2286,11.2218,11.1656,11.1326,11.1216,11.1137,11.077,11.0623,11.0083,10.9439,10.936,10.8741,10.7787,10.7199,10.6491,10.5306,10.4798,10.4472,10.4614,10.4939,10.549,10.56,10.5972,10.6198,10.6423,10.6607,10.6607,10.7016,10.7346,10.7934,10.8804,10.9055,10.9307,10.9606,10.9454,10.9417,10.9527,10.9832,10.99,10.9307,11.0482,11.0335,10.9601,10.9019,10.8982,10.8987,10.8987,10.8987,10.9166,10.9874,11.0535,11.0388,11.1153,11.1322,11.0908,11.0425,10.9683,10.8751,10.7954,10.7163,10.6533,10.6386,10.6386,10.6386,10.6386,10.6386,10.6386,10.6386,10.6308,10.6271,10.6088,10.5789,10.5568,10.5269,10.4834,10.4436,10.4215,10.411,10.4089,10.3848,10.3391,10.3107,10.2946,10.2553,10.1407,10.092,9.9612,9.9003,9.8819,9.8961,9.9181,9.9049,9.8486,9.6786,9.5987,9.598,9.5844,9.5706,9.594,9.6451,9.6754,9.6979,9.7052,9.7048,9.7341,11.4011,11.3398,11.3398,11.3325,11.3251,11.3508,11.3251,11.2475,11.2768,11.2181,11.1583,11.1441,11.1509,11.1216,11.1216,11.0518,10.9821,10.9711,10.9166,10.8484,10.8332,10.7934,10.7645,10.7016,10.6455,10.6276,10.5873,10.5757,10.5831,10.6124,10.6565,10.69,10.6864,10.6974,10.7635,10.7456,10.7934,10.8453,10.8778,10.9397,10.9979,11.0524,11.1032,11.1405,11.1074,11.0781,11.0739,11.0885,11.0917,11.0843,11.1063,11.0995,11.0634,11.0125,10.9905,10.9832,11.0015,11.0094,10.9979,11.1153,11.1814,11.2176,11.2438,11.2921,11.2503,11.1707,11.066,10.9931,10.8547,10.7278,10.6497,10.6497,10.646,10.6423,10.657,10.657,10.657,10.657,10.657,10.657,10.6491,10.6344,10.6046,10.5899,10.5647,10.5317,10.5091,10.4981,10.4913,10.4551,10.3974,10.3827,10.3748,10.3219,10.2543,10.2318,10.1709,10.0948,10.066,10.066,10.0843,10.1068,10.0254,9.8797,9.7783,9.7568,9.7281,9.6639,9.6845,9.7346,9.7534,9.7755,9.8447,9.903,9.8809,11.4592,11.4231,11.4237,11.3985,11.3808,11.4536,11.4384,11.3791,11.4048,11.357,11.2726,11.2396,11.1913,11.1399,11.1216,11.0702,11.0225,11.0041,10.9569,10.8956,10.8442,10.7934,10.7609,10.6796,10.646,10.6381,10.6386,10.646,10.646,10.6832,10.764,10.8668,10.8773,10.9501,11.0467,11.0865,11.0614,11.0729,11.1012,11.1374,11.1783,11.2255,11.2658,11.2768,11.2622,11.2249,11.1845,11.1808,11.1583,11.1284,11.1216,11.1216,11.1216,11.1258,11.1043,11.086,11.1306,11.1374,11.1043,11.2029,11.2585,11.184,11.2212,11.2328,11.2212,11.154,11.1069,11.0236,10.8993,10.7462,10.7053,10.7016,10.7016,10.7084,10.7336,10.7556,10.7598,10.7619,10.7357,10.7016,10.6717,10.657,10.6381,10.6271,10.6344,10.6234,10.5972,10.5862,10.5783,10.5311,10.4761,10.4541,10.4431,10.4038,10.3602,10.3544,10.3398,10.2784,10.2422,10.2422,10.2348,10.2458,10.21,10.1165,10.0348,9.9407,9.7871,9.6989,9.7581,9.8278,9.8787,9.9407,10.0429,10.0938,10.0645,11.5033,11.5033,11.5039,11.4677,11.4353,11.5417,11.5516,11.5039,11.5375,11.4683,11.3472,11.3209,11.2432,11.1509,11.1216,11.1179,11.1216,11.1137,11.0597,10.9874,10.9323,10.8626,10.7818,10.7304,10.7121,10.7556,10.7414,10.7053,10.7194,10.7561,10.8736,10.9905,11.0995,11.1955,11.2774,11.2811,11.3508,11.3587,11.3587,11.3624,11.3802,11.3692,11.3692,11.3765,11.3692,11.3209,11.2695,11.2658,11.2218,11.1845,11.1656,11.1656,11.1614,11.2212,11.2328,11.2029,11.2958,11.2695,11.2432,11.2396,11.2658,11.184,11.1357,11.1289,11.1289,11.1252,11.0891,10.9947,10.9035,10.808,10.7934,10.7866,10.7823,10.7928,10.8321,10.8725,10.8594,10.8464,10.8259,10.7808,10.721,10.6796,10.6643,10.6827,10.6906,10.69,10.6712,10.6717,10.657,10.6234,10.5747,10.5348,10.5076,10.4803,10.4646,10.4687,10.4541,10.4252,10.4074,10.4069,10.3885,10.3733,10.3258,10.2782,10.2148,10.1025,9.9174,9.7982,9.8863,9.9666,10.0266,10.0875,10.1562,10.2113,10.2155,11.5852,11.5846,11.5846,11.5779,11.5705,11.5889,11.5553,11.4929,11.4996,11.4005,11.2774,11.2585,11.2139,11.1399,11.1216,11.1216,11.1252,11.1289,11.1038,11.0498,11.0131,10.9617,10.8835,10.8615,10.8841,10.9134,10.936,10.914,10.8877,10.8877,10.9569,11.0995,11.1882,11.2511,11.3172,11.3723,11.3587,11.3624,11.3661,11.3985,11.4457,11.4053,11.4163,11.4347,11.4132,11.3692,11.3503,11.3429,11.3062,11.2432,11.2915,11.2879,11.2548,11.3025,11.3361,11.3361,11.3514,11.3514,11.3172,11.3172,11.2768,11.217,11.1656,11.1326,11.1216,11.1179,11.0891,11.0089,10.9648,10.9281,10.8767,10.8652,10.8657,10.8731,10.8951,10.9055,10.8987,10.9444,10.9209,10.8847,10.8317,10.7462,10.6942,10.7241,10.7462,10.7456,10.7456,10.7456,10.7404,10.7084,10.6685,10.626,10.6234,10.5993,10.5563,10.5642,10.5574,10.5463,10.5243,10.5243,10.4834,10.4467,10.4514,10.4032,10.3392,10.2768,10.1404,10.07,10.0724,10.082,10.111,10.1714,10.2401,10.2957,10.3623,11.5999,11.5999,11.5999,11.5999,11.5999,11.5999,11.5815,11.5558,11.5442,11.4567,11.3288,11.3104,11.2401,11.1399,11.1216,11.1473,11.1808,11.1919,11.2034,11.1851,11.1563,11.1159,11.0817,11.0414,11.045,11.0634,11.0786,11.119,11.0964,11.0744,11.1001,11.2401,11.2952,11.3692,11.409,11.4714,11.4934,11.5013,11.5013,11.516,11.5301,11.5191,11.5123,11.5448,11.5118,11.4714,11.4347,11.4273,11.387,11.3282,11.3514,11.3477,11.3361,11.376,11.4268,11.4305,11.4751,11.4536,11.3802,11.4096,11.3613,11.2653,11.206,11.173,11.1399,11.1179,11.1106,11.0739,11.023,10.9832,10.9575,10.9501,10.9465,10.9538,10.9716,10.9936,10.9973,11.0089,11.0179,10.9822,10.9424,10.8642,10.8007,10.8185,10.8406,10.8295,10.8259,10.8222,10.8244,10.8166,10.7672,10.7121,10.7252,10.7398,10.6811,10.6491,10.6423,10.6203,10.5416,10.538,10.5233,10.5054,10.5033,10.475,10.4011,10.3502,10.315,10.2129,10.0978,10.1307,10.1834,10.2558,10.3356,10.4614,10.5018,11.5815,11.5999,11.5999,11.5889,11.5742,11.5889,11.5999,11.5999,11.5962,11.5087,11.3796,11.3136,11.2212,11.1546,11.1473,11.1992,11.2695,11.2915,11.3356,11.3503,11.3356,11.2873,11.2432,11.1998,11.1913,11.2054,11.2322,11.291,11.3392,11.3282,11.3209,11.4169,11.4279,11.4793,11.5595,11.5815,11.5779,11.5779,11.5815,11.5993,11.6208,11.6287,11.625,11.6287,11.6219,11.592,11.5259,11.5075,11.4714,11.409,11.4242,11.4316,11.409,11.4598,11.5075,11.5191,11.5558,11.5375,11.4867,11.4787,11.4561,11.357,11.2396,11.1986,11.1326,11.1216,11.1216,11.11,11.0744,11.0419,11.0278,11.0309,11.0304,11.045,11.0702,11.0995,11.1179,11.0891,11.0786,11.0535,11.0246,11.0063,10.9575,10.9465,10.9355,10.9134,10.9061,10.9024,10.8968,10.8907,10.8497,10.7934,10.8038,10.8211,10.7886,10.7446,10.7341,10.7047,10.6261,10.6035,10.6224,10.5757,10.5374,10.4976,10.442,10.3664,10.2971,10.198,10.1161,10.2026,10.2857,10.3502,10.442,10.5678,10.6198,11.5332,11.5999,11.5962,11.5595,11.4996,11.5705,11.5999,11.5889,11.5925,11.5013,11.3398,11.2176,11.1473,11.1357,11.184,11.2548,11.3477,11.4268,11.4488,11.4592,11.4592,11.4163,11.3802,11.3613,11.3754,11.4225,11.4194,11.4745,11.5558,11.5338,11.5448,11.5815,11.5485,11.5742,11.5962,11.5999,11.5999,11.5999,11.5999,11.6397,11.6758,11.6942,11.6936,11.7009,11.7015,11.6758,11.5999,11.5815,11.5522,11.4782,11.5191,11.5265,11.4965,11.5338,11.5705,11.5779,11.5846,11.5779,11.5632,11.5228,11.4813,11.4262,11.3234,11.195,11.1289,11.1216,11.1216,11.1216,11.0964,11.1001,11.1038,11.1106,11.0922,11.0959,11.1032,11.1106,11.1216,11.1179,11.1069,11.1106,11.0959,11.0671,11.0634,11.0377,11.0193,10.9973,10.99,10.9863,10.9454,10.9367,10.9099,10.8804,10.8835,10.8835,10.8683,10.8468,10.8363,10.818,10.7655,10.7655,10.7802,10.7121,10.6324,10.5081,10.4483,10.3638,10.2861,10.2051,10.1905,10.2973,10.3775,10.4095,10.4897,10.6046,10.6423,11.4677,11.4573,11.5075,11.5369,11.5553,11.5852,11.5742,11.5296,11.5259,11.4341,11.2805,11.1735,11.1216,11.1326,11.1509,11.2396,11.3472,11.3839,11.4641,11.5301,11.5485,11.5338,11.5087,11.5013,11.5234,11.5442,11.5522,11.5595,11.5925,11.6439,11.6685,11.6648,11.6366,11.6035,11.5999,11.6109,11.6035,11.5999,11.6072,11.6391,11.6899,11.6721,11.6685,11.7193,11.6611,11.636,11.5999,11.5999,11.581,11.5705,11.5852,11.5705,11.5516,11.5852,11.5962,11.5999,11.5999,11.5999,11.5999,11.5595,11.5149,11.3827,11.2616,11.1583,11.1326,11.1216,11.1216,11.1216,11.1216,11.1216,11.1216,11.1179,11.1142,11.1216,11.1216,11.1216,11.1216,11.1216,11.1362,11.1362,11.1252,11.1069,11.1106,11.1106,11.0959,11.0775,11.0744,11.0592,11.0188,10.9968,10.979,10.9716,10.9711,10.9417,10.927,10.9276,10.9318,10.9166,10.8977,10.883,10.8762,10.8505,10.7551,10.6082,10.4745,10.4177,10.3447,10.2466,10.2289,10.2584,10.3413,10.4325,10.528,10.6418,10.6638,11.4598,11.4389,11.4929,11.5332,11.5668,11.5889,11.5516,11.4886,11.4813,11.3901,11.2401,11.1808,11.1546,11.1656,11.2243,11.2836,11.3943,11.4384,11.5081,11.5595,11.5925,11.5999,11.5999,11.5925,11.5815,11.5999,11.603,11.603,11.647,11.6978,11.7266,11.7303,11.7052,11.6874,11.6764,11.6439,11.6256,11.6072,11.6323,11.6758,11.7376,11.7162,11.699,11.7455,11.6905,11.6323,11.6109,11.5999,11.5999,11.5925,11.5999,11.5999,11.5999,11.5999,11.5999,11.5999,11.5999,11.5999,11.5999,11.5889,11.5375,11.4194,11.2989,11.2102,11.1583,11.1362,11.1216,11.1216,11.1216,11.1216,11.1216,11.1216,11.1216,11.1216,11.1216,11.1216,11.1216,11.1216,11.1473,11.1656,11.1473,11.1326,11.1509,11.1509,11.1289,11.1106,11.0995,11.0959,11.0849,11.0702,11.0671,11.0634,11.0628,11.0225,10.9821,11.0004,11.0193,11.0188,10.9931,10.9459,10.9276,10.9092,10.8682,10.7365,10.6113,10.5079,10.4306,10.363,10.2593,10.1666,10.3119,10.4944,10.5689,10.6717,10.7011,11.5222,11.5925,11.5889,11.5516,11.5106,11.5705,11.5516,11.4703,11.4592,11.3791,11.2475,11.2255,11.2255,11.2506,11.3313,11.4011,11.4598,11.5259,11.5779,11.5889,11.5999,11.5999,11.5999,11.5999,11.5999,11.5999,11.603,11.6323,11.6936,11.7119,11.756,11.7969,11.7902,11.7975,11.819,11.756,11.6795,11.6287,11.6862,11.756,11.8153,11.8153,11.8085,11.8159,11.7419,11.6685,11.636,11.6035,11.5999,11.5999,11.5999,11.5999,11.5999,11.5999,11.5999,11.5999,11.5999,11.5999,11.5999,11.5999,11.5485,11.4672,11.3503,11.2952,11.2365,11.1808,11.1362,11.1515,11.1289,11.1216,11.1216,11.1216,11.1216,11.1252,11.1252,11.1436,11.1473,11.1772,11.2102,11.2322,11.1808,11.1478,11.1772,11.1876,11.1588,11.1405,11.1252,11.1216,11.1252,11.1179,11.1074,11.1074,11.1032,11.0885,11.0555,11.0849,11.1032,11.1063,11.0733,11.0115,10.979,10.9643,10.9064,10.8269,10.7449,10.6387,10.5636,10.4969,10.4141,10.3575,10.4436,10.5783,10.6455,10.7089,10.764,11.5259,11.5962,11.5442,11.5369,11.5589,11.5852,11.5265,11.4059,11.3466,11.2915,11.2511,11.2401,11.2401,11.2658,11.3099,11.3974,11.4813,11.4965,11.5332,11.5962,11.5999,11.5999,11.5999,11.5999,11.5999,11.5999,11.6035,11.614,11.6323,11.6973,11.726,11.7633,11.8269,11.8379,11.8336,11.8043,11.7792,11.7682,11.7938,11.8342,11.9003,11.8783,11.8709,11.9119,11.8006,11.7156,11.6721,11.6366,11.6072,11.6035,11.5999,11.5999,11.5999,11.5999,11.5999,11.5999,11.5999,11.5999,11.5999,11.5925,11.5626,11.4892,11.4163,11.3576,11.3136,11.2432,11.2102,11.1887,11.1625,11.1473,11.1216,11.1247,11.1284,11.1362,11.1509,11.1955,11.2181,11.2701,11.3068,11.3141,11.2842,11.2695,11.2811,11.2695,11.2365,11.2108,11.1992,11.1583,11.1473,11.1326,11.1184,11.1179,11.1179,11.1179,11.1216,11.1436,11.1546,11.1546,11.1069,11.0371,11.0157,11.023,10.9259,10.8351,10.8026,10.7675,10.6905,10.6255,10.6077,10.6035,10.6712,10.7178,10.7776,10.8369,10.8888,11.5516,11.5931,11.5442,11.5516,11.5962,11.5999,11.5228,11.398,11.3178,11.2811,11.2884,11.3099,11.3277,11.335,11.3607,11.4017,11.518,11.5259,11.5338,11.5999,11.5999,11.5999,11.5999,11.5999,11.5999,11.6072,11.6323,11.647,11.6617,11.7272,11.767,11.7927,11.8336,11.8825,11.8783,11.8599,11.8122,11.8085,11.8269,11.9229,11.967,11.9743,11.9596,11.9554,11.885,11.7817,11.7235,11.6727,11.6292,11.6146,11.6035,11.5999,11.5999,11.5999,11.5999,11.5999,11.5999,11.5999,11.5999,11.5999,11.5699,11.5332,11.4457,11.4053,11.387,11.3282,11.2958,11.2622,11.2218,11.2102,11.1992,11.1955,11.1955,11.2102,11.2286,11.2732,11.2915,11.3398,11.3765,11.3839,11.3765,11.3734,11.3697,11.3514,11.3251,11.2994,11.2737,11.2328,11.1998,11.1873,11.1788,11.1814,11.182,11.1899,11.193,11.1919,11.1992,11.2029,11.1662,11.1221,11.1074,11.119,10.9795,10.8804,10.9223,10.9194,10.8114,10.7523,10.7816,10.8191,10.8731,10.9055,10.9239,10.9465,10.9801,11.5999,11.5999,11.5999,11.5962,11.5999,11.5999,11.5522,11.4782,11.398,11.3618,11.3661,11.4341,11.4482,11.4813,11.5448,11.5705,11.5815,11.5852,11.5925,11.5962,11.5999,11.5999,11.5999,11.5999,11.6109,11.636,11.6611,11.6942,11.7193,11.7345,11.7749,11.8116,11.8306,11.8568,11.8495,11.8342,11.8085,11.8489,11.915,11.9963,12.0398,12.0808,12.0771,12.0624,12.0104,11.915,11.8373,11.7566,11.6942,11.6507,11.6109,11.6035,11.5999,11.5999,11.5999,11.5999,11.5999,11.5999,11.5999,11.5999,11.5999,11.5699,11.5222,11.4923,11.4598,11.4127,11.3723,11.3545,11.3251,11.3325,11.3367,11.3288,11.3251,11.3361,11.3429,11.3613,11.3649,11.3943,11.431,11.4389,11.4206,11.4169,11.4206,11.4096,11.4206,11.4169,11.3985,11.3906,11.3519,11.3047,11.2993,11.2895,11.2901,11.2839,11.276,11.2627,11.2658,11.2732,11.2952,11.2664,11.2511,11.2229,11.1486,11.1008,11.1122,11.0757,10.9836,10.9695,11.0076,11.0414,11.0188,11.0157,11.0083,11.0052,11.0204,11.5999,11.5999,11.5999,11.5999,11.5999,11.5999,11.5889,11.5558,11.4818,11.4451,11.4482,11.4708,11.4886,11.4849,11.5033,11.5516,11.581,11.5999,11.5999,11.5999,11.5999,11.5999,11.5999,11.6035,11.6323,11.6721,11.7046,11.7193,11.7046,11.7162,11.6806,11.6733,11.7351,11.7326,11.743,11.7419,11.8373,11.926,11.9957,12.0435,12.0985,12.1395,12.1548,12.1505,12.1468,12.0655,11.9994,11.8636,11.7975,11.7645,11.6549,11.6072,11.5999,11.5999,11.5999,11.5999,11.5999,11.5999,11.5999,11.5999,11.5999,11.5999,11.5699,11.5742,11.5411,11.4971,11.4451,11.4347,11.4132,11.4065,11.4028,11.4028,11.4028,11.4096,11.4242,11.4457,11.4494,11.4787,11.5118,11.5118,11.4971,11.4934,11.4934,11.5044,11.5154,11.5265,11.5228,11.5118,11.4915,11.4358,11.4081,11.3983,11.3737,11.3579,11.3488,11.3342,11.3404,11.3472,11.3765,11.3839,11.3392,11.3158,11.3098,11.2872,11.246,11.2141,11.1669,11.1669,11.1557,11.1142,11.0922,11.0922,11.0922,11.0781,11.0713,11.5522,11.5558,11.5889,11.5999,11.5999,11.5999,11.5999,11.5925,11.5485,11.5253,11.5253,11.5296,11.5265,11.5332,11.5375,11.5595,11.5962,11.5999,11.5999,11.5999,11.5999,11.5999,11.5999,11.6066,11.6464,11.6936,11.7193,11.7193,11.7009,11.6464,11.6035,11.6151,11.6219,11.6434,11.6795,11.7529,11.8447,11.937,12.0104,12.0545,12.1065,12.1621,12.1988,12.2172,12.2313,12.2019,12.096,11.9266,11.8899,11.8483,11.7193,11.7407,11.745,11.7498,11.7021,11.6947,11.6292,11.6146,11.5999,11.5999,11.5999,11.5999,11.5999,11.5962,11.5852,11.5522,11.5338,11.5191,11.4867,11.461,11.4573,11.4573,11.4573,11.4615,11.494,11.5265,11.5485,11.5705,11.5815,11.5925,11.5889,11.5889,11.5925,11.5999,11.5999,11.5815,11.5705,11.5668,11.5522,11.5251,11.5017,11.4957,11.4572,11.4222,11.4186,11.4228,11.4327,11.4499,11.4793,11.4756,11.4273,11.3985,11.383,11.3652,11.3463,11.3017,11.2554,11.2675,11.2616,11.2102,11.1693,11.1698,11.1552,11.1216,11.1142,11.4892,11.4929,11.5668,11.5999,11.5999,11.5999,11.5999,11.5999,11.5925,11.5999,11.5925,11.5846,11.5779,11.5742,11.5668,11.5742,11.5962,11.5999,11.5999,11.5999,11.5999,11.5999,11.6035,11.6103,11.6648,11.7046,11.7303,11.7413,11.7009,11.6464,11.5999,11.6078,11.6544,11.6758,11.6831,11.7314,11.7865,11.8085,11.8972,11.9596,12.0661,12.1432,12.2056,12.2209,12.2313,12.2123,12.0184,11.9339,11.9376,11.8869,11.8821,11.9402,11.9499,11.9003,11.8416,11.7718,11.6733,11.6182,11.5999,11.5999,11.5999,11.5999,11.5999,11.5999,11.5925,11.5852,11.5742,11.5705,11.5375,11.5344,11.5344,11.5301,11.5338,11.5344,11.5522,11.5668,11.5779,11.5925,11.5925,11.5999,11.5999,11.5999,11.5999,11.5999,11.5999,11.5999,11.5999,11.5999,11.5925,11.5779,11.5711,11.5637,11.5329,11.4984,11.5176,11.5203,11.527,11.5485,11.5668,11.5338,11.4635,11.4482,11.4556,11.4499,11.4432,11.3709,11.3277,11.3458,11.3424,11.2805,11.2475,11.2511,11.2286,11.1955,11.1473,11.5369,11.4886,11.5668,11.5999,11.5999,11.5999,11.5999,11.5999,11.5999,11.5999,11.5889,11.5479,11.5479,11.592,11.5479,11.5522,11.5925,11.5999,11.5999,11.5999,11.5999,11.5999,11.6177,11.6538,11.6936,11.734,11.7596,11.7633,11.7015,11.6397,11.5999,11.6035,11.636,11.6434,11.6434,11.6806,11.6843,11.6953,11.7535,11.8636,11.9853,12.0734,12.1395,12.1841,12.2092,12.2496,12.1285,12.0954,12.0734,12.0318,12.0312,12.0569,12.0759,11.926,11.8526,11.8122,11.6916,11.6219,11.5999,11.5999,11.5999,11.5999,11.5999,11.5999,11.5999,11.5999,11.5999,11.5999,11.5999,11.5999,11.5999,11.5999,11.5999,11.5999,11.5999,11.5999,11.5999,11.5999,11.5999,11.5999,11.5999,11.5999,11.5999,11.5999,11.5999,11.5999,11.5999,11.5999,11.5999,11.5925,11.5889,11.5852,11.5889,11.5756,11.5889,11.5852,11.5779,11.5779,11.5852,11.5442,11.4954,11.4942,11.501,11.5437,11.54,11.4609,11.4188,11.4363,11.4177,11.3534,11.3282,11.3319,11.3251,11.2989,11.2212,11.4121,11.3895,11.5002,11.5442,11.5522,11.5846,11.5999,11.5999,11.5999,11.5999,11.5962,11.5589,11.5589,11.5993,11.5516,11.5406,11.5962,11.5999,11.5999,11.5999,11.5999,11.5999,11.6323,11.6826,11.7046,11.7376,11.7523,11.7419,11.6764,11.636,11.5999,11.5999,11.5999,11.6035,11.6035,11.5999,11.5999,11.6072,11.6501,11.7571,11.8935,11.9627,12.022,12.074,12.1181,12.1468,12.0691,12.0141,12.0104,12.0104,12.0324,12.0765,12.0545,11.9297,11.8563,11.7975,11.7058,11.5999,11.5999,11.5999,11.5999,11.5999,11.5999,11.5999,11.5999,11.5999,11.5999,11.5999,11.5999,11.5999,11.5999,11.5999,11.5999,11.5999,11.5999,11.5999,11.5999,11.5999,11.5999,11.5999,11.5999,11.5999,11.5999,11.5999,11.5999,11.5999,11.5999,11.5999,11.5999,11.5999,11.5999,11.5999,11.5999,11.5999,11.5962,11.5962,11.5925,11.5999,11.5999,11.5773,11.5473,11.5402,11.5501,11.5756,11.5798,11.5391,11.5128,11.5109,11.4869,11.4305,11.4158,11.4121,11.4053,11.3918,11.3209,11.2658,11.2768,11.4084,11.4635,11.4745,11.5375,11.5705,11.581,11.5815,11.5815,11.5773,11.5742,11.5883,11.5993,11.5705,11.5852,11.5962,11.5999,11.5999,11.5999,11.5999,11.5999,11.636,11.6905,11.7303,11.7376,11.7376,11.6831,11.6146,11.6329,11.6549,11.6182,11.6078,11.6115,11.6035,11.5999,11.5999,11.5999,11.636,11.7021,11.7755,11.8373,11.8966,11.9339,11.9303,11.8642,11.8116,11.8,11.8447,11.8856,11.9774,12.0691,12.0618,11.9658,11.8746,11.8012,11.6874,11.6182,11.5999,11.5999,11.5999,11.5999,11.5999,11.5999,11.5999,11.5999,11.5999,11.5999,11.5999,11.5999,11.5999,11.5999,11.5999,11.5999,11.5999,11.5999,11.5999,11.5999,11.5999,11.5999,11.5999,11.5999,11.5999,11.5999,11.5999,11.5999,11.5999,11.5999,11.5999,11.5999,11.5999,11.5999,11.5999,11.5999,11.5999,11.5999,11.5999,11.5999,11.5999,11.5999,11.5883,11.5493,11.545,11.5871,11.5829,11.5622,11.558,11.5518,11.5242,11.4965,11.5002,11.4929,11.4898,11.4683,11.4206,11.3361,11.3398,11.3728,11.3839,11.3875,11.4028,11.4426,11.496,11.5039,11.5039,11.5002,11.507,11.5327,11.5883,11.4536,11.4646,11.5962,11.5999,11.5999,11.5999,11.5999,11.5999,11.6292,11.6984,11.7896,11.7817,11.734,11.6721,11.6213,11.7027,11.7173,11.6072,11.6721,11.6575,11.6035,11.5999,11.5999,11.5999,11.6177,11.6727,11.7639,11.819,11.8416,11.8526,11.8342,11.8563,11.8673,11.8599,11.8489,11.8526,11.8819,12.0214,12.0398,11.9621,11.8416,11.7755,11.666,11.6219,11.5999,11.5999,11.5999,11.5999,11.5999,11.5999,11.5999,11.5999,11.5999,11.5999,11.5999,11.5999,11.5999,11.5999,11.5999,11.5999,11.5999,11.5999,11.5999,11.5999,11.5999,11.5999,11.5999,11.5999,11.5999,11.5999,11.5999,11.5999,11.5999,11.5999,11.5999,11.5999,11.6035,11.5999,11.5999,11.5999,11.5999,11.5999,11.5999,11.5999,11.5999,11.5999,11.5779,11.5259,11.5332,11.5846,11.5999,11.5877,11.5871,11.5787,11.5761,11.5589,11.5742,11.5779,11.5668,11.5448,11.4934]},{"header":{"parameterUnit":"m.s-1","parameterCategory":1,"la1":31.0,"la2":29.5877,"lo1":-88.7671,"lo2":-86.6584,"dy":0.0162,"dx":0.0185,"nx":115,"ny":88,"refTime":"2026-03-10T00:00:00:Z","depth":0,"parameterNumber":3,"parameterNumberName":"V-component_of_WINDS"},"data":[0.0,0.0,0.0,0.0,0.0,0.0,0.0,0.0,0.0,0.0,0.0,0.0,0.0,0.0,0.0,0.0,0.0,0.0,0.0,0.0,0.0,0.0,0.0,0.0,0.0,0.0,0.0,0.0,0.0,0.0,0.0,0.0,0.0,0.0,0.0,0.0,0.0,0.0,0.0,0.0,0.0,0.0,0.0,0.0,0.0,0.0,0.0,0.0,0.0,0.0,0.0,0.0,0.0,0.0,0.0,0.0,0.0,0.0,0.0,0.0,0.0,0.0,0.0,0.0,0.0,0.0,0.0,0.0,0.0,0.0,0.0,0.0,0.0,0.0,0.0,0.0,0.0,0.0,0.0,0.0,0.0,0.0,0.0,0.0,0.0,0.0,0.0,0.0,0.0,0.0,0.0,0.0,0.0,0.0,0.0,0.0,0.0,0.0,0.0,0.0,0.0,0.0,0.0,0.0,0.0,0.0,0.0,0.0,0.0,0.0,0.0,0.0,0.0,0.0,0.0,0.0,0.0,0.0,0.0,0.0,0.0,0.0,0.0,0.0,0.0,0.0,0.0,0.0,0.0,0.0,0.0,0.0,0.0,0.0,0.0,0.0,0.0,0.0,0.0,0.0,0.0,0.0,0.0,0.0,0.0,0.0,0.0,0.0,0.0,0.0,0.0,0.0,0.0,0.0,0.0,0.0,0.0,0.0,0.0,0.0,0.0,0.0,0.0,0.0,0.0,0.0,0.0,0.0,0.0,0.0,0.0,0.0,0.0,0.0,0.0,0.0,0.0,0.0,0.0,0.0,0.0,0.0,0.0,0.0,0.0,0.0,0.0,0.0,0.0,0.0,0.0,0.0,0.0,0.0,0.0,0.0,0.0,0.0,0.0,0.0,0.0,0.0,0.0,0.0,0.0,0.0,0.0,0.0,0.0,0.0,0.0,0.0,0.0,0.0,0.0,0.0,0.0,0.0,0.0,0.0,0.0,0.0,0.0,0.0,0.0,0.0,0.0,0.0,0.0,0.0,0.0,0.0,0.0,0.0,0.0,0.0,0.0,0.0,0.0,0.0,0.0,0.0,0.0,0.0,0.0,0.0,0.0,0.0,0.0,0.0,0.0,0.0,0.0,0.0,0.0,0.0,0.0,0.0,0.0,0.0,0.0,0.0,0.0,0.0,0.0,0.0,0.0,0.0,0.0,0.0,0.0,0.0,0.0,0.0,0.0,0.0,0.0,0.0,0.0,0.0,0.0,0.0,0.0,0.0,0.0,0.0,0.0,0.0,0.0,0.0,0.0,0.0,0.0,0.0,0.0,0.0,0.0,0.0,0.0,0.0,0.0,0.0,0.0,0.0,0.0,0.0,0.0,0.0,0.0,0.0,0.0,0.0,0.0,0.0,0.0,0.0,0.0,0.0,0.0,0.0,0.0,0.0,0.0,0.0,0.0,0.0,0.0,0.0,0.0,0.0,0.0,0.0,0.0,0.0,0.0,0.0,0.0,0.0,0.0,0.0,0.0,0.0,0.0,0.0,0.0,0.0,0.0,0.0,0.0,0.0,0.0,0.0,0.0,0.0,0.0,0.0,0.0,0.0,0.0,0.0,0.0,0.0,0.0,0.0,0.0,0.0,0.0,0.0,0.0,0.0,0.0,0.0,0.0,0.0,0.0,0.0,0.0,0.0,0.0,0.0,0.0,0.0,0.0,0.0,0.0,0.0,0.0,0.0,0.0,0.0,0.0,0.0,0.0,0.0,0.0,0.0,0.0,0.0,0.0,0.0,0.0,0.0,0.0,0.0,0.0,0.0,0.0,0.0,0.0,0.0,0.0,0.0,0.0,0.0,0.0,0.0,0.0,0.0,0.0,0.0,0.0,0.0,0.0,0.0,0.0,0.0,0.0,0.0,0.0,0.0,0.0,0.0,0.0,0.0,0.0,0.0,0.0,0.0,0.0,0.0,0.0,0.0,0.0,0.0,0.0,0.0,0.0,0.0,0.0,0.0,0.0,0.0,0.0,0.0,0.0,0.0,0.0,0.0,0.0,0.0,0.0,0.0,0.0,0.0,0.0,0.0,0.0,0.0,0.0,0.0,0.0,0.0,0.0,0.0,0.0,0.0,0.0,0.0,0.0,0.0,0.0,0.0,0.0,0.0,0.0,0.0,0.0,0.0,0.0,0.0,0.0,0.0,0.0,0.0,0.0,0.0,0.0,0.0,0.0,0.0,0.0,0.0,0.0,0.0,0.0,0.0,0.0,0.0,0.0,0.0,0.0,0.0,0.0,0.0,0.0,0.0,0.0,0.0,0.0,0.0,0.0,0.0,0.0,0.0,0.0,0.0,0.0,0.0,0.0,0.0,0.0,0.0,0.0,0.0,0.0,0.0,0.0,0.0,0.0,0.0,0.0,0.0,0.0,0.0,0.0,0.0,0.0,0.0,0.0,0.0,0.0,0.0,0.0,0.0,0.0,0.0,0.0,0.0,0.0,0.0,0.0,0.0,0.0,0.0,0.0,0.0,0.0,0.0,0.0,0.0,0.0,0.0,0.0,0.0,0.0,0.0,0.0,0.0,0.0,0.0,0.0,0.0,0.0,0.0,0.0,0.0,0.0,0.0,0.0,0.0,0.0,0.0,0.0,0.0,0.0,0.0,0.0,0.0,0.0,0.0,0.0,0.0,0.0,0.0,0.0,0.0,0.0,0.0,0.0,0.0,0.0,0.0,0.0,0.0,0.0,0.0,0.0,0.0,0.0,0.0,0.0,0.0,0.0,0.0,0.0,0.0,0.0,0.0,0.0,0.0,0.0,0.0,0.0,0.0,0.0,0.0,0.0,0.0,0.0,0.0,0.0,0.0,0.0,0.0,0.0,0.0,0.0,0.0,0.0,0.0,0.0,0.0,0.0,0.0,0.0,0.0,0.0,0.0,0.0,0.0,0.0,0.0,0.0,0.0,0.0,0.0,0.0,0.0,0.0,0.0,0.0,0.0,0.0,0.0,0.0,0.0,0.0,0.0,0.0,0.0,0.0,0.0,0.0,0.0,0.0,0.0,0.0,0.0,0.0,0.0,0.0,0.0,0.0,0.0,0.0,0.0,0.0,0.0,0.0,0.0,0.0,0.0,0.0,0.0,0.0,0.0,0.0,0.0,0.0,0.0,0.0,0.0,0.0,0.0,0.0,0.0,0.0,0.0,0.0,0.0,0.0,0.0,0.0,0.0,0.0,0.0,0.0,0.0,0.0,0.0,0.0,0.0,0.0,0.0,0.0,0.0,0.0,0.0,0.0,0.0,0.0,0.0,0.0,0.0,0.0,0.0,0.0,0.0,0.0,0.0,0.0,0.0,0.0,0.0,0.0,0.0,0.0,0.0,0.0,0.0,0.0,0.0,0.0,0.0,0.0,0.0,0.0,0.0,0.0,0.0,0.0,0.0,0.0,0.0,0.0,0.0,0.0,0.0,0.0,0.0,0.0,0.0,0.0,0.0,0.0,0.0,0.0,0.0,0.0,0.0,0.0,0.0,0.0,0.0,0.0,0.0,0.0,0.0,0.0,0.0,0.0,0.0,0.0,0.0,0.0,0.0,0.0,0.0,0.0,0.0,0.0,0.0,0.0,0.0,0.0,0.0,0.0,0.0,0.0,0.0,0.0,0.0,0.0,0.0,0.0,0.0,0.0,0.0,0.0,0.0,0.0,0.0,0.0,0.0,0.0,0.0,0.0,0.0,0.0,0.0,0.0,0.0,0.0,0.0,0.0,0.0,0.0,0.0,0.0,0.0,0.0,0.0,0.0,0.0,0.0,0.0,0.0,0.0,0.0,0.0,0.0,0.0,0.0,0.0,0.0,0.0,0.0,0.0,0.0,0.0,0.0,0.0,0.0,0.0,0.0,0.0,0.0,0.0,0.0,0.0,0.0,0.0,0.0,0.0,0.0,0.0,0.0,0.0,0.0,0.0,0.0,0.0,0.0,0.0,0.0,0.0,0.0,0.0,0.0,0.0,0.0,0.0,0.0,0.0,0.0,0.0,0.0,0.0,0.0,0.0,0.0,0.0,0.0,0.0,0.0,0.0,0.0,0.0,0.0,0.0,0.0,0.0,0.0,0.0,0.0,0.0,0.0,0.0,0.0,0.0,0.0,0.0,0.0,0.0,0.0,0.0,0.0,0.0,0.0,0.0,0.0,0.0,0.0,0.0,0.0,0.0,0.0,0.0,0.0,0.0,0.0,0.0,0.0,0.0,0.0,0.0,0.0,0.0,0.0,0.0,0.0,0.0,0.0,0.0,0.0,0.0,0.8865,0.0,0.0,0.0,0.0,0.0,0.0,0.0,0.0,0.0,0.0,0.0,0.0,0.0,0.0,0.0,0.0,0.0,0.0,0.0,0.0,0.0,0.0,0.0,0.0,0.0,0.0,0.0,0.0,0.0,0.0,0.0,0.0,0.0,0.0,0.0,0.0,0.0,0.0,0.0,0.0,0.0,0.0,0.0,0.0,0.0,0.0,0.0,0.0,0.0,0.0,0.0,0.0,0.0,0.0,0.0,0.0,0.0,0.0,0.0,0.0,0.0,0.0,0.0,0.0,0.0,0.0,0.0,0.0,0.0,0.0,0.0,0.0,0.0,0.0,0.0,0.0,0.0,0.0,0.0,0.0,0.0,0.0,0.0,0.0,0.0,0.0,0.0,0.0,0.0,0.0,0.0,0.0,0.0,0.0,0.0,0.0,0.0,0.0,0.0,0.0,0.0,0.0,0.0,0.0,0.0,0.0,0.0,0.0,0.0,0.0,0.8912,0.8912,0.8912,0.8912,0.8906,0.0,0.0,0.0,0.0,0.0,0.0,0.0,0.0,0.0,0.0,0.0,0.0,0.0,0.0,0.0,0.0,0.0,0.0,0.0,0.0,0.0,0.0,0.0,0.0,0.0,0.0,0.0,0.0,0.0,0.0,0.0,0.0,0.0,0.0,0.0,0.0,0.0,0.0,0.0,0.0,0.0,0.0,0.0,0.0,0.0,0.0,0.0,0.0,0.0,0.0,0.0,0.0,0.0,0.0,0.0,0.0,0.0,0.0,0.0,0.0,0.0,0.0,0.0,0.0,0.0,0.0,0.0,0.0,0.0,0.0,0.0,0.0,0.0,0.0,0.0,0.0,0.0,0.0,0.0,0.0,0.0,0.0,0.0,0.0,0.0,0.0,0.0,0.0,0.0,0.0,0.0,0.0,0.0,0.0,0.0,0.0,0.0,0.0,0.0,0.0,0.0,0.0,0.0,0.0,0.0,0.0,0.0,0.0,0.0,0.0,0.0,0.0,0.9054,0.9055,0.9,0.0,0.0,0.0,0.0,0.0,0.0,0.0,0.0,0.0,0.0,0.0,0.0,0.0,0.0,0.0,0.0,0.0,0.0,0.0,0.0,0.0,0.0,0.0,0.0,0.0,0.0,0.0,0.0,0.0,0.0,0.0,0.0,0.0,0.0,0.0,0.0,0.0,0.0,0.0,0.0,0.0,0.0,0.0,0.0,0.0,0.0,0.0,0.0,0.0,0.0,0.0,0.0,0.0,0.0,0.0,0.0,0.0,0.0,0.0,0.0,0.0,0.0,0.0,0.0,0.0,0.0,0.0,0.0,0.0,0.0,0.0,0.0,0.0,0.0,0.0,0.0,0.0,0.0,0.0,0.0,0.0,0.0,0.0,0.0,0.0,0.0,0.0,0.0,0.0,0.0,0.0,0.0,0.0,0.0,0.0,0.0,0.0,0.0,0.0,0.0,0.0,0.0,0.0,0.0,0.0,0.0,0.0,0.0,0.0,0.0,0.9095,0.953,0.9522,0.0,0.9362,0.0,0.0,0.0,0.0,0.0,0.0,0.0,0.0,0.0,0.0,0.0,0.0,0.0,0.0,0.0,0.0,0.0,0.0,0.0,0.0,0.0,0.0,0.0,0.0,0.0,0.0,0.0,0.0,0.0,0.0,0.0,0.0,0.0,0.0,0.0,0.0,0.0,0.0,0.0,0.0,0.0,0.0,0.0,0.0,0.0,0.0,0.0,0.0,0.0,0.0,0.0,0.0,0.0,0.0,0.0,0.0,0.0,0.0,0.0,0.0,0.0,0.0,0.0,0.0,0.0,0.0,0.0,0.0,0.0,0.0,0.0,0.0,0.0,0.0,0.0,0.0,0.0,0.0,0.0,0.0,0.0,0.0,0.0,0.0,0.0,0.0,0.0,0.0,0.0,0.0,0.0,0.0,0.0,0.0,0.0,0.0,0.0,0.0,0.0,0.0,0.0,0.0,0.0,0.0,0.0,0.0,0.0,0.0,0.0,0.0,0.0,0.9605,0.9523,0.9416,0.0,0.0,0.0,0.0,0.0,0.0,0.0,0.0,0.0,0.0,0.0,0.0,0.0,0.0,0.0,0.0,0.0,0.0,0.0,0.0,0.0,0.0,0.0,0.0,0.0,0.0,0.0,0.0,0.0,0.0,0.0,0.0,0.0,0.0,0.0,0.0,0.0,0.0,0.0,0.0,0.0,0.0,0.0,0.0,0.0,0.0,0.0,0.0,0.0,0.0,0.0,0.0,0.0,0.0,0.0,0.0,0.0,0.0,0.0,0.0,0.0,0.0,0.0,0.0,0.0,0.0,0.0,0.0,0.0,0.0,0.0,0.0,0.0,0.0,0.0,0.0,0.0,0.0,0.0,0.0,0.0,0.0,0.0,0.0,0.0,0.0,0.0,0.0,0.0,0.0,0.0,0.0,0.0,0.0,0.0,0.0,0.0,0.0,0.0,0.0,0.0,0.0,0.0,0.0,0.0,0.0,0.0,0.0,0.0,0.0,0.9495,0.0,0.9774,0.9709,0.9513,0.9199,0.0,0.0,0.0,0.0,0.0,0.0,0.0,0.0,0.0,0.0,0.0,0.0,0.0,0.0,0.0,0.0,0.0,0.0,0.0,0.0,0.0,0.0,0.0,0.0,0.0,0.0,0.0,0.0,0.0,0.0,0.0,0.0,0.0,0.0,0.0,0.0,0.0,0.0,0.0,0.0,0.0,0.0,0.0,0.0,0.0,0.0,0.0,0.0,0.0,0.0,0.0,0.0,0.0,0.0,0.0,0.0,0.0,0.0,0.0,0.0,0.0,0.0,0.0,0.0,0.0,0.0,0.0,0.0,0.0,0.0,0.0,0.0,0.0,0.0,0.0,0.0,0.0,0.0,0.0,0.0,0.0,0.0,0.0,0.0,0.0,0.0,0.0,0.0,0.0,0.0,0.0,0.0,0.0,0.0,0.0,0.0,0.0,0.0,0.0,0.0,0.0,0.0,0.0,0.0,0.0,0.0,0.0,0.0,0.0,0.9808,0.9808,1.0252,1.0258,0.9927,0.0,0.0,0.0,0.0,0.0,0.0,0.0,0.0,0.0,0.0,0.0,0.0,0.0,0.0,0.0,0.0,0.0,0.0,0.0,0.0,0.0,0.0,0.0,0.0,0.0,0.0,0.0,0.0,0.0,0.0,0.0,0.0,0.0,0.0,0.0,0.0,0.0,0.0,0.0,0.0,0.0,0.0,0.0,0.0,0.0,0.0,0.0,0.0,0.0,0.0,0.0,0.0,0.0,0.0,0.0,0.0,0.0,0.0,0.0,0.0,0.0,0.0,0.0,0.0,0.0,0.0,0.0,0.0,0.0,0.0,0.0,0.0,0.0,0.0,0.0,0.0,0.0,0.0,0.0,0.0,0.0,0.0,0.0,0.0,0.0,0.0,0.0,0.0,0.0,0.0,0.0,0.0,0.0,0.0,0.0,0.0,0.0,0.0,0.0,0.0,0.0,0.0,0.0,0.0,0.0,0.0,0.0,0.0,0.0,0.9386,0.9536,0.9949,1.0625,0.9988,0.9546,0.0,0.0,0.0,0.0,0.0,0.0,0.0,0.0,0.0,0.0,0.0,0.0,0.0,0.0,0.0,0.0,0.0,0.0,0.0,0.0,0.0,0.0,0.0,0.0,0.0,0.0,0.0,0.0,0.0,0.0,0.0,0.0,0.0,0.0,0.0,0.0,0.0,0.0,0.0,0.0,0.0,0.0,0.0,0.0,0.0,0.0,0.0,0.0,0.0,0.0,0.0,0.0,0.0,0.0,0.0,0.0,0.0,0.0,0.0,0.0,0.0,0.0,0.0,0.0,0.0,0.0,0.0,0.0,0.0,0.0,0.0,0.0,0.0,0.0,0.0,0.0,0.0,0.0,0.0,0.0,0.0,0.0,0.0,0.0,0.0,0.0,0.0,0.0,0.0,0.0,0.0,0.0,0.0,0.0,0.0,0.0,0.0,0.0,0.0,0.0,0.0,0.0,0.0,0.0,0.0,0.0,0.0,0.0,0.0,0.9367,0.0,1.0254,0.0,0.9896,0.9388,0.0,0.0,0.0,0.0,0.0,0.0,0.0,0.0,0.0,0.0,0.0,0.0,0.0,0.0,0.0,0.0,0.0,0.0,0.0,0.0,0.0,0.0,0.0,0.0,0.0,0.0,0.0,0.0,0.0,0.0,0.0,0.0,0.0,0.0,0.0,0.0,0.0,0.0,0.0,0.0,0.0,0.0,0.0,0.0,0.0,0.0,0.0,0.0,0.0,0.0,0.0,0.0,0.0,0.0,0.0,0.0,0.0,0.0,0.0,0.0,0.0,0.0,0.0,0.0,0.0,0.0,0.0,0.0,0.0,0.0,0.0,0.0,0.0,0.0,0.0,0.0,0.0,0.0,0.0,0.0,0.0,0.0,0.0,0.0,0.0,0.0,0.0,0.0,0.0,0.0,0.0,0.0,0.0,0.0,0.0,0.0,0.0,0.0,0.0,0.0,0.0,0.0,0.0,0.0,0.0,0.0,0.0,0.0,0.9359,1.0246,1.0645,1.0687,1.0341,1.0082,0.9528,0.0,0.0,0.0,0.0,0.0,0.0,0.0,0.0,0.0,0.0,0.0,0.0,0.0,0.0,0.0,0.0,0.0,0.0,0.0,0.0,0.0,0.0,0.0,0.0,0.0,0.0,0.0,0.0,0.0,0.0,0.0,0.0,0.0,0.0,0.0,0.0,0.0,0.0,0.0,0.0,0.0,0.0,0.0,0.0,0.0,0.0,0.0,0.0,0.0,0.0,0.0,0.0,0.0,0.0,0.0,0.0,0.0,0.0,0.0,0.0,0.0,0.0,0.0,0.0,0.0,0.0,0.0,0.0,0.0,0.0,0.0,0.0,0.0,0.0,0.0,0.0,0.0,0.0,0.0,0.0,0.0,0.0,0.0,0.0,0.0,0.0,0.0,0.0,0.0,0.0,0.0,0.0,0.0,0.0,0.0,0.0,0.0,0.0,0.0,0.0,0.0,0.0,0.0,0.0,0.0,0.0,0.0,0.0,0.0,0.9822,1.0248,1.0678,1.1012,1.01,0.9578,0.0,0.0,0.0,0.0,0.0,0.0,0.0,0.0,0.0,0.0,0.0,0.0,0.0,0.0,0.0,0.0,0.0,0.0,0.0,0.0,0.0,0.0,0.0,0.0,0.0,0.0,0.0,0.0,0.0,0.0,0.0,0.0,0.0,0.0,0.0,0.0,0.0,0.0,0.0,0.0,0.0,0.0,0.0,0.0,0.0,0.0,0.0,0.0,0.0,0.0,0.0,0.0,0.0,0.0,0.0,0.0,0.0,0.0,0.0,0.0,0.0,0.0,0.0,0.0,0.0,0.0,0.0,0.0,0.0,0.0,0.0,0.0,0.0,0.0,0.0,0.0,0.0,0.0,0.0,0.0,0.0,0.0,0.0,0.0,0.0,0.0,0.0,0.0,0.0,0.0,0.0,0.0,0.0,0.0,0.0,0.0,0.0,0.0,0.0,0.0,0.0,0.0,0.0,0.0,0.0,0.0,0.0,0.0,0.0,1.0443,1.088,1.1255,1.1527,1.0512,0.9902,0.9759,0.0,0.0,0.0,0.0,0.0,0.0,0.0,0.0,0.0,0.0,0.0,0.0,0.0,0.0,0.0,0.0,0.0,0.0,0.0,0.0,0.0,0.0,0.0,0.0,0.0,0.0,0.0,0.0,0.0,0.0,0.0,0.0,0.0,0.0,0.0,0.0,0.0,0.0,0.0,0.0,0.0,0.0,0.0,0.0,0.0,0.0,0.0,0.0,0.0,0.0,0.0,0.0,0.0,0.0,0.0,0.0,0.0,0.0,0.0,0.0,0.0,0.0,0.0,0.0,0.0,0.0,0.0,0.0,0.0,0.0,0.0,0.0,0.0,0.0,0.0,0.0,0.0,0.0,0.0,0.0,0.0,0.0,0.0,0.0,0.0,0.0,0.0,0.0,0.0,0.0,0.0,0.0,0.0,0.0,0.0,0.0,0.0,0.0,0.0,0.0,0.0,0.0,0.0,0.0,0.0,0.0,0.0,0.0,1.1872,1.2376,1.2421,1.1971,1.1298,1.0503,0.0,0.0,0.0,0.0,0.0,0.0,0.0,0.0,0.0,0.0,0.0,0.0,0.0,0.0,0.0,0.0,0.0,0.0,0.0,0.0,0.0,0.0,0.0,0.0,0.0,0.0,0.0,0.0,0.0,0.0,0.0,0.0,0.0,0.0,0.0,0.0,0.0,0.0,0.0,0.0,0.0,0.0,0.0,0.0,0.0,0.0,0.0,0.0,0.0,0.0,0.0,0.0,0.0,0.0,0.0,0.0,0.0,0.0,0.0,0.0,0.0,0.0,0.0,0.0,0.0,0.0,0.0,0.0,0.0,0.0,0.0,0.0,0.0,0.0,0.0,0.0,0.0,0.0,0.0,0.0,0.0,0.0,0.0,0.0,0.0,0.0,0.0,0.0,0.0,0.0,0.0,0.0,0.0,0.0,0.0,0.0,0.0,0.0,0.0,0.0,0.0,0.0,0.0,0.0,0.0,0.0,0.0,0.0,0.0,1.2684,1.3862,1.4217,1.3648,1.229,1.1351,0.0,0.0,0.0,0.0,0.0,0.0,0.0,0.0,0.0,0.0,0.0,0.0,0.0,0.0,0.0,0.0,0.0,0.0,0.0,0.0,0.0,0.0,0.0,0.0,0.0,0.0,0.0,0.0,0.0,0.0,0.0,0.0,0.0,0.0,0.0,0.0,0.0,0.0,0.0,0.0,0.0,0.0,0.0,0.0,0.0,0.0,0.0,0.0,0.0,0.0,0.0,0.0,0.0,0.0,0.0,0.0,0.0,0.0,0.0,0.0,0.0,0.0,0.0,0.0,0.0,0.0,0.0,0.0,0.0,0.0,0.0,0.0,0.0,0.0,0.0,0.0,0.0,0.0,0.0,0.0,0.0,0.0,0.0,0.0,0.0,0.0,0.0,0.0,0.0,0.0,0.0,0.0,0.0,0.0,0.0,0.0,0.0,0.0,0.0,0.0,0.0,0.0,0.0,0.0,0.0,0.0,0.0,0.0,1.2375,1.3455,1.5011,1.5664,1.5313,1.3664,1.2366,0.0,0.0,0.0,0.0,0.0,0.0,0.0,0.0,0.0,0.0,0.0,0.0,0.0,0.0,0.0,0.0,0.0,0.0,0.0,0.0,0.0,0.0,0.0,0.0,0.0,0.0,0.0,0.0,0.0,0.0,0.0,0.0,0.0,0.0,0.0,0.0,0.0,0.0,0.0,0.0,0.0,0.0,0.0,0.0,0.0,0.0,0.0,0.0,0.0,0.0,0.0,0.0,0.0,0.0,0.0,0.0,0.0,0.0,0.0,0.0,0.0,0.0,0.0,0.0,0.0,0.0,0.0,0.0,0.0,0.0,0.0,0.0,0.0,0.0,0.0,0.0,0.0,0.0,0.0,0.0,0.0,0.0,0.0,0.0,0.0,0.0,0.0,0.0,0.0,0.0,0.0,0.0,0.0,0.0,0.0,0.0,0.0,0.0,0.0,0.0,0.0,0.0,0.0,0.0,0.0,0.0,0.0,0.0,1.3098,1.421,1.5868,1.675,1.6716,1.5038,1.3353,0.0,0.0,0.0,0.0,0.0,0.0,0.0,0.0,0.0,0.0,0.0,0.0,0.0,0.0,0.0,0.0,0.0,0.0,0.0,0.0,0.0,0.0,0.0,0.0,0.0,0.0,0.0,0.0,0.0,0.0,0.0,0.0,0.0,0.0,0.0,0.0,0.0,0.0,0.0,0.0,0.0,0.0,0.0,0.0,0.0,0.0,0.0,0.0,0.0,0.0,0.0,0.0,0.0,0.0,0.0,0.0,0.0,0.0,0.0,0.0,0.0,0.0,0.0,0.0,0.0,0.0,0.0,0.0,0.0,0.0,0.0,0.0,0.0,0.0,0.0,0.0,0.0,0.0,0.0,0.0,0.0,0.0,0.0,0.0,0.0,0.0,0.0,0.0,0.0,0.0,0.0,0.0,0.0,0.0,0.0,0.0,0.0,0.0,0.0,0.0,0.0,0.0,0.0,0.0,0.0,0.0,0.0,0.0,1.3665,1.4953,1.6367,1.7141,1.7256,1.5206,1.359,0.0,0.0,0.0,0.0,0.0,0.0,0.0,0.0,0.0,0.0,0.0,0.0,0.0,0.0,0.0,0.0,0.0,0.0,0.0,0.0,0.0,0.0,0.0,0.0,0.0,0.0,0.0,0.0,0.0,0.0,0.0,0.0,0.0,0.0,0.0,0.0,0.0,0.0,0.0,0.0,0.0,0.0,0.0,0.0,0.0,0.0,0.0,0.0,0.9922,0.0,0.0,0.0,0.0,0.0,0.0,0.0,0.0,0.0,0.0,0.0,0.0,0.0,0.0,0.0,0.0,0.0,0.0,0.0,0.0,0.0,0.0,0.0,0.0,0.0,0.0,0.0,0.0,0.0,0.0,0.0,0.0,0.0,0.0,0.0,0.0,0.0,0.0,0.0,0.0,0.0,0.0,0.0,0.0,0.0,0.0,0.0,0.0,0.0,0.0,0.0,0.0,0.0,0.0,0.0,0.0,0.0,0.0,0.0,1.4132,1.5496,1.6748,1.7419,1.7426,1.5837,1.4307,0.0,0.0,0.0,0.0,0.0,0.0,0.0,0.0,0.0,0.0,0.0,0.0,0.0,0.0,0.0,0.0,0.0,0.0,0.0,0.0,0.0,0.0,0.0,0.0,0.0,0.0,0.0,0.0,0.0,0.0,0.0,0.0,0.0,0.0,0.0,0.0,0.0,0.0,0.0,0.0,0.0,0.0,0.0,0.0,0.0,0.0,0.0,0.0,0.0,0.0,0.0,0.0,0.0,0.0,0.0,0.0,0.0,0.0,0.0,0.0,0.0,0.0,0.0,0.0,0.0,0.0,0.0,0.0,0.0,0.0,0.0,0.0,0.0,0.0,0.0,0.0,0.0,0.0,0.0,0.0,0.0,0.0,0.0,0.0,0.0,0.0,0.0,0.0,0.0,0.0,0.0,0.0,0.0,0.0,0.0,0.0,0.0,0.0,0.0,0.0,0.0,0.0,0.0,0.0,0.0,0.0,0.0,1.2912,1.4493,1.5998,1.7067,1.7582,1.7555,1.649,1.508,1.3312,0.0,0.0,0.0,0.0,0.0,0.0,0.0,0.0,0.0,0.0,0.0,0.0,0.0,0.0,0.0,0.0,0.0,0.0,0.0,0.0,0.0,0.0,0.0,0.0,0.0,0.0,0.0,0.0,0.0,0.0,0.0,0.0,0.0,0.0,0.0,0.0,0.0,0.0,0.8608,0.9084,0.0,0.0,0.0,0.0,0.0,0.0,0.0,0.0,0.948,0.0,0.0,0.0,0.0,0.0,0.0,0.0,0.0,0.0,0.0,0.0,0.0,0.0,0.0,0.0,0.0,0.0,0.0,0.0,0.0,0.0,0.0,0.0,0.0,0.0,0.0,0.0,0.0,0.0,0.0,0.0,0.0,0.0,0.0,0.0,0.0,0.0,0.0,0.0,0.0,0.0,0.0,0.0,0.0,0.0,0.0,0.0,0.0,0.0,0.0,0.0,0.0,0.0,0.0,0.0,0.0,1.2625,1.3315,1.4584,1.6519,1.723,1.7548,1.7399,1.6544,1.5213,1.3448,0.0,0.0,0.0,0.0,0.0,0.0,0.0,0.0,0.0,0.0,0.0,0.0,0.0,0.0,0.0,0.0,0.0,0.0,0.0,0.0,0.0,0.0,0.0,0.0,0.0,0.0,0.0,0.0,0.0,0.0,0.0,0.0,0.0,0.0,0.0,0.0,0.0,0.0,0.0,1.0211,1.0299,0.0,0.0,0.0,0.0,0.0,0.0,0.0,0.0,0.9567,0.0,0.0,0.0,0.0,0.0,0.0,0.0,0.0,0.0,0.0,0.0,0.0,0.0,0.0,0.0,0.0,0.0,0.0,0.0,0.0,0.0,0.0,0.0,0.0,0.0,0.0,0.0,0.0,0.0,0.0,0.0,0.0,0.0,0.0,0.0,0.0,0.0,0.0,0.0,0.0,0.0,0.0,0.0,0.0,0.0,0.0,0.0,0.0,0.0,0.0,0.0,0.0,0.0,0.0,0.0,1.2572,1.3821,1.5262,1.6904,1.7379,1.7575,1.7473,1.6293,1.4934,0.0,0.0,0.0,0.0,0.0,0.0,0.0,0.0,0.0,0.0,0.0,0.0,0.0,0.0,0.0,0.0,0.0,0.0,0.0,0.0,0.0,0.0,0.0,0.0,0.0,0.0,0.0,0.0,0.0,0.0,0.0,0.0,0.0,0.0,0.0,0.0,0.0,0.0,0.0,0.0,1.0747,1.1026,1.1732,0.0,0.0,0.0,0.0,0.0,0.0,1.0606,0.9828,0.0,0.0,0.0,0.0,0.0,0.0,0.0,0.0,0.0,0.0,0.0,0.0,0.0,0.0,0.0,0.0,0.0,0.0,0.0,0.0,0.0,0.0,0.0,0.0,0.0,0.0,0.0,0.0,0.0,0.0,0.0,0.0,0.0,0.0,0.0,0.0,0.0,0.0,0.0,0.0,0.0,0.0,0.0,0.0,0.0,0.0,0.0,0.0,0.0,0.0,0.0,0.0,0.0,0.0,0.0,1.2376,1.4215,1.5817,1.7127,1.7494,1.7622,1.7534,1.6056,1.4649,0.0,0.0,0.0,0.0,0.0,0.0,0.0,0.0,0.0,0.0,0.0,0.0,0.0,0.0,0.0,0.0,0.0,0.0,0.0,0.0,0.0,0.0,0.0,0.0,0.0,0.0,0.0,0.0,0.0,0.0,0.0,0.0,0.0,0.0,0.0,0.0,0.0,0.0,0.0,0.0,0.0,1.1755,1.2495,1.1217,0.0,0.0,0.0,0.0,1.2169,1.1476,0.0,0.0,0.0,0.0,0.0,0.0,0.0,0.0,0.0,0.0,0.0,0.0,0.0,0.0,0.0,0.0,0.0,0.0,0.0,0.0,0.0,0.0,0.0,0.0,0.0,0.0,0.0,0.0,0.0,0.0,0.0,0.0,0.0,0.0,0.0,0.0,0.0,0.0,0.0,0.0,0.0,0.0,0.0,0.0,0.0,0.0,0.0,0.0,0.0,0.0,0.0,0.0,0.0,0.0,0.0,0.0,1.2631,1.4204,1.5734,1.7141,1.7643,1.7724,1.7412,1.6097,1.471,0.0,0.0,0.0,0.0,0.0,0.0,0.0,0.0,0.0,0.0,0.0,0.0,0.0,0.0,0.0,0.0,0.0,0.0,0.0,0.0,0.0,0.0,0.0,0.0,0.0,0.0,0.0,0.0,0.0,0.0,0.0,0.0,0.0,0.0,0.0,0.0,0.0,0.0,0.0,0.0,0.0,1.2364,1.2338,1.1801,1.0889,0.0,0.0,1.241,1.4449,1.4136,0.0,0.0,0.0,0.0,0.0,0.0,0.0,0.0,0.0,0.0,0.0,0.0,0.0,0.0,0.0,0.0,0.0,0.0,0.0,0.0,0.0,0.0,0.0,0.0,0.0,0.0,0.0,0.0,0.0,0.0,0.0,0.0,0.0,0.0,0.0,0.0,0.0,0.0,0.0,0.0,0.0,0.0,0.0,0.0,0.0,0.0,0.0,0.0,0.0,0.0,0.0,0.0,0.0,0.0,0.0,1.1356,1.2709,1.4636,1.6157,1.7263,1.7582,1.7622,1.7399,1.5691,1.4238,0.0,0.0,0.0,0.0,0.0,0.0,0.0,0.0,0.0,0.0,0.0,0.0,0.0,0.0,0.0,0.0,0.0,0.0,0.0,0.0,0.0,0.0,0.0,0.0,0.0,0.0,0.0,0.0,0.0,0.0,0.0,0.0,0.0,0.0,0.0,0.0,0.0,0.0,0.0,0.0,0.0,0.0,1.2911,1.2885,0.0,0.0,0.0,1.3481,1.6057,0.0,0.0,0.0,0.0,0.0,0.0,0.0,0.0,0.0,0.0,0.0,0.0,0.0,0.0,0.0,0.0,0.0,0.0,0.0,0.0,0.0,0.0,0.0,0.0,0.0,0.0,0.0,0.0,0.0,0.0,0.0,0.0,0.0,0.0,0.0,0.0,0.0,0.0,0.0,0.0,0.0,0.0,0.0,0.0,0.0,0.0,0.0,0.0,0.0,0.0,0.0,0.0,0.0,0.0,0.0,0.0,0.0,1.28,1.5031,1.6592,1.7378,1.7568,1.7609,1.7426,1.565,0.0,0.0,0.0,0.0,0.0,0.0,0.0,0.0,0.0,0.0,0.0,0.0,0.0,0.0,0.0,0.0,0.0,0.0,0.0,0.0,0.0,0.0,0.0,0.0,0.0,0.0,0.0,0.6828,0.0,0.0,0.0,0.0,0.0,0.0,0.0,0.0,0.0,0.0,0.0,0.0,0.0,0.0,1.3132,1.3326,1.3685,1.3665,0.0,0.0,1.4341,1.699,1.6018,1.4212,0.0,0.0,0.0,0.0,0.0,0.0,0.0,0.0,0.0,0.0,0.0,0.0,0.0,0.0,0.0,0.0,0.0,0.0,0.0,0.0,0.0,0.0,0.0,0.0,0.0,0.0,0.0,0.0,0.0,0.0,0.0,0.0,0.0,0.0,0.0,0.0,0.0,0.0,0.0,0.0,0.0,0.0,0.0,0.0,0.0,0.0,0.0,0.0,0.0,0.0,0.0,0.0,0.0,0.0,0.0,1.3006,1.5282,1.6775,1.7392,1.7718,1.7792,1.7561,1.6421,1.501,0.0,0.0,0.0,0.0,0.0,0.0,0.0,0.0,0.0,0.0,0.0,0.0,0.0,0.0,0.0,0.0,0.0,0.0,0.0,0.0,0.0,0.0,0.0,0.0,0.0,0.0,0.0,0.0,0.0,0.0,0.0,0.0,0.0,0.0,0.0,0.0,0.0,0.0,0.0,0.0,0.0,1.3186,1.3217,1.3814,1.4148,0.0,1.3905,1.4825,1.704,1.7255,1.6145,1.3095,0.0,0.0,0.0,0.0,0.0,0.0,0.0,0.0,0.0,0.0,0.0,0.0,0.0,0.0,0.0,0.0,0.0,0.0,0.0,0.0,0.0,0.0,0.0,0.0,0.0,0.0,0.0,0.0,0.0,0.0,0.0,0.0,0.0,0.0,0.0,0.0,0.0,0.0,0.0,0.0,0.0,0.0,0.0,0.0,0.0,0.0,0.0,0.0,0.0,0.0,0.0,0.0,0.0,1.1964,1.2999,1.5309,1.683,1.7561,1.9491,1.9676,1.7827,1.8346,1.7522,0.0,0.0,0.0,0.0,0.0,0.0,0.0,0.0,0.0,0.0,0.0,0.0,0.0,0.0,0.0,0.0,0.0,0.0,0.0,0.0,0.0,0.0,0.0,0.0,0.0,0.0,0.0,0.0,0.8723,0.8723,0.8241,0.0,0.0,0.0,0.0,0.0,0.0,0.0,0.0,0.0,0.0,1.3556,1.4212,1.4864,0.0,0.0,1.4422,1.5153,1.5917,1.5978,1.5126,1.2817,1.2028,0.0,0.0,0.0,0.0,0.0,0.0,0.0,0.0,0.0,0.0,0.0,0.0,0.0,0.0,0.0,0.0,0.0,0.0,0.0,0.0,0.0,0.0,0.0,0.0,0.0,0.0,0.0,0.0,0.0,0.0,0.0,0.0,0.0,0.0,0.0,0.0,0.0,0.0,0.0,0.0,0.0,0.0,0.0,0.0,0.0,0.0,0.0,0.0,0.0,0.0,0.0,0.0,1.2081,1.3064,1.5425,1.7404,1.8908,2.1209,2.1366,1.934,2.1053,2.0407,0.0,0.0,0.0,0.0,0.0,0.0,0.0,0.0,0.0,0.0,0.0,0.0,0.0,0.0,0.0,0.0,0.0,0.0,0.0,0.0,0.0,0.0,0.0,0.0,0.0,0.0,0.0,0.0,0.9225,0.9028,0.8234,0.0,0.0,0.0,0.0,0.0,0.0,0.0,0.0,0.0,0.0,1.4014,1.4794,1.5394,1.5495,1.4715,1.4739,1.4848,1.4792,1.4856,1.4351,1.2691,0.0,0.0,0.0,0.0,0.0,0.0,0.0,0.0,0.0,0.0,0.0,0.0,0.0,0.0,0.0,0.0,0.0,0.0,0.0,0.0,0.0,0.0,0.0,0.0,0.0,0.0,0.0,0.8485,0.0,0.0,0.7994,0.0,0.0,0.0,0.0,0.0,0.0,0.0,0.0,0.0,0.0,0.0,0.0,0.0,0.0,0.0,0.0,0.0,0.0,0.0,0.0,0.0,0.0,1.2135,1.322,1.5674,1.856,2.1729,2.2538,2.2635,2.2214,2.4477,2.3377,1.8378,0.0,0.0,0.0,0.0,0.0,0.0,0.0,0.0,0.0,0.0,0.0,0.0,0.0,0.0,0.0,0.0,0.0,0.0,0.0,0.0,0.0,0.0,0.0,0.0,0.0,0.0,0.8383,0.856,0.8486,0.0,0.0,0.0,0.0,0.0,0.0,0.0,0.0,0.0,1.1199,1.3163,1.4514,1.4692,1.511,1.5634,1.6264,1.484,1.3695,1.3821,1.4309,1.4252,0.0,0.0,0.0,0.0,0.0,0.0,0.0,0.0,0.0,0.0,0.0,0.0,0.0,0.0,0.0,0.0,0.0,0.0,0.0,0.0,0.0,0.0,0.0,0.0,0.0,0.0,0.0,1.0141,1.1043,0.0,0.0,0.0,0.0,0.0,0.0,0.0,0.0,0.0,0.0,0.0,1.1071,1.145,0.0,0.0,0.0,0.0,0.0,0.0,0.0,0.0,0.0,0.0,0.0,0.0,1.2261,1.3397,1.5659,1.8666,2.227,2.25,2.3522,2.5475,2.5951,2.4439,2.0779,0.0,0.0,0.0,0.0,0.0,0.0,0.0,0.0,0.0,0.0,0.0,0.0,0.0,0.0,0.0,0.0,0.0,0.0,0.0,0.0,0.0,0.0,0.0,0.0,0.0,0.894,0.0,0.0,0.0,0.0,0.0,0.0,0.0,0.0,0.0,0.0,0.0,1.0522,1.1938,1.3078,1.3996,1.4606,1.5038,1.542,0.0,0.0,0.0,0.0,0.0,0.0,0.0,0.0,0.0,0.0,0.0,0.0,0.0,0.0,1.1235,1.1933,1.0901,0.9935,1.0005,0.0,0.0,0.0,0.0,0.0,0.0,0.0,0.0,0.0,0.0,0.0,0.0,0.0,0.0,1.2063,1.2902,1.0778,0.0,0.0,0.0,0.0,0.0,0.0,0.0,0.0,1.3081,1.3779,1.4884,1.4374,1.44,0.0,1.2925,1.2053,0.0,0.0,0.0,0.0,0.0,0.0,0.0,0.0,1.3735,1.4965,1.8034,2.1496,2.5116,2.5483,2.6497,2.8405,2.7627,2.5672,2.2596,2.1315,1.8725,0.0,0.0,0.0,0.0,0.0,0.0,0.0,0.0,0.0,0.0,0.0,0.0,0.0,0.0,0.0,0.0,0.0,0.0,0.0,0.0,0.0,0.0,0.0,0.9347,0.0,0.0,0.0,0.0,0.0,0.0,0.0,0.0,0.0,0.9702,1.0511,1.1554,1.2894,1.3644,1.4227,1.4577,0.0,0.0,0.0,0.0,0.0,0.0,0.0,1.3241,1.2698,1.264,1.2643,1.2562,1.3264,1.3274,1.1534,0.0,0.0,1.3877,1.319,1.2273,1.1666,1.1913,1.2218,1.2227,1.2637,1.3007,0.0,0.0,0.0,0.0,0.0,0.0,0.0,0.0,1.5178,1.4409,0.0,1.1913,0.0,0.0,0.0,0.0,0.0,1.197,0.0,0.0,1.7884,1.8866,2.0558,1.8631,1.8758,2.0486,1.6007,1.5627,1.8777,1.4744,0.0,0.0,0.0,0.0,0.0,0.0,1.6467,1.7881,2.2425,2.6698,3.0143,3.0901,3.1132,3.0817,2.9585,2.7373,2.4163,2.4708,2.2405,1.6591,1.4684,0.0,0.0,0.0,0.0,0.0,0.0,0.0,0.0,0.0,0.0,0.0,0.0,0.0,0.0,0.0,0.0,0.0,0.0,0.0,0.0,0.9557,0.0,0.0,0.0,0.0,0.0,0.0,0.0,0.0,0.0,0.0,1.0469,1.1631,1.2891,1.391,0.0,0.0,0.0,0.0,1.4752,1.3587,1.3467,1.3598,1.3853,1.4133,1.4269,1.4142,0.0,0.0,1.4468,1.4367,1.4135,1.33,1.384,1.4571,1.5139,1.5188,1.4746,1.3535,1.3407,1.3495,1.3526,1.3994,1.4436,2.3409,0.0,0.0,0.0,0.0,1.8823,1.9967,2.2387,1.9915,1.9491,2.0313,1.6221,0.0,0.0,0.0,0.0,0.0,0.0,1.778,1.9715,1.9957,2.0823,2.2186,2.1584,2.1619,2.2132,2.0533,2.0101,2.072,2.0386,1.7414,1.2116,0.0,0.0,0.0,0.0,1.871,2.0412,2.3323,2.6644,3.0316,2.8936,2.9087,3.0981,3.1936,3.1651,3.0,2.794,2.5403,2.2291,1.8082,0.0,0.0,0.0,0.0,0.0,0.0,0.0,0.0,0.0,0.0,0.0,0.0,0.0,0.0,0.0,0.0,0.0,0.0,0.0,0.8933,0.9474,0.959,0.0,0.0,0.0,0.0,0.0,0.0,0.0,0.0,0.0,1.245,1.258,1.2854,0.0,0.0,1.3868,1.3604,1.4211,1.4387,1.3524,1.4299,0.0,1.566,1.5195,1.479,1.4742,1.5194,1.5543,1.5586,1.582,1.5968,1.5834,1.605,1.6297,1.6404,1.6285,1.5844,1.5126,1.5133,1.5333,1.5337,1.5609,1.6503,2.8112,2.5008,2.3573,2.3312,2.3765,2.2927,2.3969,2.6086,2.3711,2.3183,2.3748,2.0001,1.7626,1.6378,1.5974,0.0,0.0,0.0,2.109,2.3732,2.3256,2.4081,2.5834,2.497,2.5017,2.5834,2.3709,2.3448,2.4945,2.4348,2.1989,1.7947,0.0,0.0,1.5854,1.9186,2.1742,2.3424,2.613,2.8926,3.1687,3.0697,3.0435,3.103,3.2992,3.3202,3.1363,2.9104,2.7221,2.5827,2.1137,1.735,0.0,0.0,0.0,0.0,0.0,0.0,0.0,0.0,0.0,0.0,0.0,0.8009,0.7135,0.0,0.0,0.0,0.8757,0.9367,0.9669,1.0091,0.0,0.0,0.0,0.0,0.0,0.0,0.0,1.1137,1.2128,1.2986,1.3657,1.3729,1.3841,1.4205,1.4335,1.4341,1.4181,0.0,1.4946,1.4366,1.5138,1.6094,1.6914,1.6276,1.5696,1.5782,1.5988,1.6199,1.6414,1.666,1.6857,1.697,1.7002,1.7006,1.7006,1.6833,1.6549,1.6121,1.7088,1.7963,1.8003,1.9006,2.0484,3.1473,3.0713,2.8013,2.7145,2.7553,2.781,2.8233,2.8653,2.6824,2.5884,2.5519,2.327,2.1736,2.0832,2.0301,0.0,2.3329,2.2096,2.4277,2.9021,2.7345,2.8073,3.0658,2.8487,2.8615,3.0706,2.6051,2.611,3.0053,2.7142,2.5399,2.5045,2.342,2.1618,1.9951,2.2833,2.5151,2.6609,2.9924,3.2424,3.3934,3.4749,3.3897,3.133,3.3213,3.2879,2.9944,2.9119,2.8341,2.7414,2.3677,2.0035,1.6783,0.0,0.0,0.0,0.0,0.0,0.0,0.0,0.0,0.0,0.0,0.0,0.0,0.0,0.0,0.0,1.0028,0.0,1.0951,1.1133,0.0,0.0,0.0,1.0404,1.1025,1.0801,1.1183,1.2647,0.0,0.0,1.4356,1.4903,1.5461,1.5916,1.5909,1.5788,1.5585,1.584,1.6017,1.5617,1.5984,1.6626,1.7542,1.7145,1.6714,1.6842,1.7004,1.6944,1.6951,1.6984,1.6991,1.7004,1.7004,1.6998,1.7004,1.6977,1.689,1.6579,1.8806,2.0832,2.0798,2.2784,2.4767,3.2488,3.21,3.1405,3.056,2.9677,2.9744,3.0072,3.0499,2.9842,2.9426,2.901,2.645,2.4839,2.4011,2.4133,2.5411,2.754,2.7682,2.8578,3.0013,2.9816,3.0193,3.1057,3.0484,3.0519,3.0987,2.9881,2.9785,3.064,2.987,2.9085,2.8371,2.7937,2.5827,2.2328,2.5048,2.7176,2.8376,3.0561,3.2635,3.4508,3.4789,3.4556,3.3902,3.4147,3.363,3.2215,3.1812,3.0292,2.7452,2.4326,2.1822,2.0069,1.4734,0.0,0.0,0.0,0.0,0.0,0.0,0.0,0.0,0.0,0.8899,0.7554,0.0,0.9212,0.0,1.0381,1.1212,1.1559,1.1549,0.0,0.0,1.1803,1.192,1.2715,1.2607,1.2799,1.3669,1.4609,1.531,1.5486,1.5715,1.6108,1.6638,1.6046,1.5459,1.5342,1.5954,1.6301,1.6144,1.6814,1.7459,1.7487,1.7286,1.706,1.7005,1.7004,1.7004,1.7004,1.7004,1.7004,1.7004,1.7004,1.7004,1.7123,1.7004,1.705,1.7066,1.9122,2.1048,2.1087,2.3295,2.5856,3.3012,3.277,3.2781,3.2221,3.1376,3.139,3.154,3.1809,3.1662,3.1378,3.0867,2.9127,2.8033,2.7506,2.778,2.8522,2.9639,3.0223,3.0673,3.099,3.1236,3.1542,3.1822,3.1822,3.181,3.181,3.1822,3.1754,3.1605,3.1436,3.1074,3.0484,3.0339,2.8837,2.618,2.7259,2.8323,2.9221,3.098,3.2624,3.4108,3.4455,3.4376,3.4013,3.3547,3.272,3.1475,2.9994,2.8252,2.6279,2.3398,2.1043,1.9315,1.5325,1.2745,0.0,0.0,0.0,0.0,0.0,0.0,0.0,0.0,0.0,0.0,0.0,0.9905,1.0186,1.1155,1.1957,1.2386,1.2462,1.2688,1.3163,1.3139,1.3356,1.4049,1.3928,1.4125,1.4909,1.5789,1.6315,1.6275,1.6442,1.6679,1.6977,1.6524,1.6183,1.6155,1.6536,1.6816,1.6924,1.7344,1.7602,1.7338,1.7249,1.7148,1.7025,1.7004,1.7004,1.7004,1.7004,1.7004,1.7004,1.7004,1.789,2.0055,2.0651,2.0648,2.099,2.2855,2.4097,2.3246,2.6076,2.9408,3.3293,3.3064,3.3064,3.2917,3.2689,3.2701,3.2673,3.2594,3.2594,3.2274,3.1726,3.1234,3.0872,3.0642,3.09,3.0887,3.0721,3.1169,3.1518,3.1821,3.2038,3.2328,3.2594,3.2594,3.2594,3.2594,3.2594,3.2594,3.2593,3.2302,3.1983,3.1647,3.1371,3.0799,2.9904,2.9181,2.9098,2.9671,3.1248,3.2491,3.3321,3.3788,3.3627,3.2798,3.2197,3.1089,2.9413,2.678,2.514,2.4697,2.2198,1.9755,1.755,1.6368,1.4396,0.0,1.0419,0.0,0.0,0.0,0.0,0.0,0.0,0.0,0.0,1.0522,1.0866,1.1438,1.2208,1.2884,1.3377,1.3658,1.3919,1.4233,1.4405,1.4658,1.506,1.5012,1.5238,1.6087,1.6657,1.6917,1.6789,1.7026,1.7134,1.7046,1.7107,1.7087,1.7147,1.7141,1.7288,1.7761,1.7546,1.7317,1.7229,1.7188,1.7121,1.7032,1.7004,1.7004,1.7004,1.7004,1.7004,1.7004,1.7004,1.8792,2.4189,2.5601,2.5949,2.5112,2.6962,2.8113,2.67,2.9472,3.3162,3.3627,3.3321,3.3321,3.3294,3.3253,3.3241,3.2998,3.2594,3.2594,3.2381,3.2038,3.2194,3.2087,3.1822,3.2114,3.2233,3.2193,3.2286,3.238,3.2433,3.2487,3.2541,3.2594,3.2594,3.2594,3.2594,3.2594,3.2594,3.2594,3.2541,3.2076,3.1318,3.149,3.1022,2.9958,0.0,0.0,0.0,3.1355,3.2183,3.3012,3.2706,3.2199,3.1546,3.1007,0.0,2.8823,2.7987,2.6446,2.4147,2.355,0.0,0.0,0.0,0.0,0.0,0.0,0.0,0.0,0.0,0.0,0.0,1.1742,1.1637,1.1111,1.1766,1.2448,1.2935,1.3329,1.3861,1.4579,1.4713,1.4846,1.5126,1.5433,1.5678,1.5883,1.5988,1.6219,1.6521,1.6836,1.7032,1.7093,1.7161,1.7195,1.7181,1.7283,1.7256,1.7073,1.7147,1.7188,1.7186,1.7153,1.712,1.7195,1.7127,1.7039,1.6998,1.7004,1.7004,1.6984,1.7096,1.7031,1.7011,1.7001,1.8726,2.4316,2.8708,3.0264,2.6366,2.7636,2.9141,2.8697,3.1088,3.3389,3.3976,3.3842,3.3842,3.3855,0.0,3.3842,3.3627,3.3237,3.3064,3.2811,3.257,3.2582,3.2514,3.2356,3.2527,3.2594,3.2607,3.2741,3.2796,3.2809,3.2931,3.2998,3.2985,3.2985,3.2998,3.2985,3.2985,3.2985,3.2984,3.2863,3.2489,3.1901,3.1915,3.1517,3.082,3.1099,3.1167,3.1009,3.1583,3.2317,3.3146,3.3065,3.2559,3.1653,3.0967,0.0,0.0,0.0,0.0,0.0,0.0,0.0,0.0,0.0,0.0,1.6783,1.5965,1.4605,1.2483,1.2261,1.2456,1.2997,1.3532,1.3427,1.2463,1.3061,1.3685,1.4151,1.438,1.4769,1.5462,1.56,1.5723,1.5909,1.6109,1.6218,1.63,1.6446,1.6582,1.6702,1.6874,1.7056,1.7188,1.7276,1.7284,1.7297,1.7419,1.7426,1.7249,1.7188,1.7154,1.7032,1.7004,1.7032,1.708,1.7046,1.6957,1.6884,1.6931,1.6957,1.6863,1.8067,1.8645,1.7412,1.6996,1.937,2.7119,3.1223,3.2136,2.9907,3.0065,3.0901,3.0976,3.2265,3.3495,3.435,3.4309,3.4309,3.4309,3.4309,3.4309,3.4189,3.3947,0.0,0.0,0.0,3.2823,3.2728,3.2662,3.2728,3.2742,3.2756,3.3024,3.3158,3.3171,3.3399,3.3508,3.3549,3.3508,3.3494,3.3481,3.3481,3.3455,3.3388,3.3186,3.2931,3.2662,3.2437,3.2185,3.1955,3.2157,3.1999,3.1558,3.1904,3.2466,3.324,3.348,3.3012,3.1836,3.1036,2.974,2.7856,2.7038,2.5586,2.3406,2.3388,2.2703,2.1075,2.1188,2.0227,1.7883,1.7607,1.6612,1.448,1.4041,1.4112,1.4618,1.5099,1.4984,1.4022,1.4335,1.4765,1.5186,1.5313,1.5591,1.6116,1.6266,1.6382,1.6497,1.6531,1.6532,1.6546,1.6682,1.681,1.6803,1.6958,1.7127,1.727,1.7372,1.7446,1.7453,1.7561,1.7575,1.7419,1.7257,1.7114,1.7038,1.7004,1.6991,1.6944,1.6937,1.6876,1.6702,1.6796,1.6849,1.7124,1.9047,2.0064,1.9272,1.847,2.2522,3.0264,3.2402,3.2518,3.263,3.2634,3.2646,3.2755,3.2999,3.3414,3.4576,3.4309,3.4309,3.4309,3.4309,3.4309,3.427,3.4202,3.3629,3.3253,3.2999,3.32,3.3172,3.2945,3.3173,3.3293,3.3294,3.3614,3.3774,3.3761,3.3814,3.3948,3.4162,3.3922,3.3827,3.3828,3.3828,3.3681,3.3415,3.3361,3.32,3.2998,3.312,3.3066,3.285,3.2852,3.2837,3.2732,3.233,3.2304,3.2689,3.2477,3.1809,3.0696,3.0287,2.9443,2.8179,2.7746,2.7352,2.6966,2.6582,2.5952,2.5027,2.4001,2.2079,1.9282,1.833,1.7079,1.5206,1.4995,1.5276,1.5947,1.6097,1.5908,1.5389,1.5539,1.5807,1.6076,1.6014,1.609,1.6402,1.6477,1.6498,1.6506,1.6607,1.6682,1.6689,1.6938,1.7121,1.7107,1.725,1.7392,1.7487,1.7561,1.7568,1.7595,1.7711,1.7731,1.744,1.7183,1.7035,1.7006,1.7004,1.6924,1.6789,1.6742,1.6765,1.6565,1.6732,1.7003,1.7216,1.943,2.1578,2.3485,2.3743,2.6329,3.163,3.218,3.22,3.2633,3.2661,3.2662,3.2986,3.2932,3.2944,3.4923,3.479,3.4777,3.4777,3.4777,3.4629,3.4589,3.4536,3.4095,3.3829,3.3695,3.3681,3.3681,3.3681,3.3495,3.3495,3.3681,3.3841,3.3907,3.3907,3.4068,3.4163,3.427,3.4189,3.4042,3.3907,3.3907,3.3721,3.3415,3.3389,3.3279,3.3012,3.2972,3.2971,3.2998,3.2999,3.3078,3.32,3.2946,3.2972,3.3292,3.3293,3.3027,3.2519,3.1929,3.1194,3.0348,2.9711,2.9232,2.89,2.8688,2.855,2.851,2.8241,2.6898,2.4296,2.2422,2.0449,1.8252,1.6728,1.613,1.6625,1.6686,1.6646,1.6573,1.6361,1.6292,1.6402,1.6403,1.6518,1.6748,1.6842,1.6904,1.6972,1.7033,1.7087,1.7101,1.7189,1.7311,1.7324,1.7378,1.7453,1.7575,1.7609,1.7663,1.7751,1.7847,1.7792,1.7548,1.7345,1.711,1.6899,1.6773,1.6706,1.6615,1.66,1.7088,1.8212,1.8561,1.9202,2.0359,2.2816,2.4427,2.4937,2.6924,2.9665,3.2064,3.1895,3.1939,3.2089,3.2209,3.2237,3.2397,3.261,3.2971,3.5191,3.5191,3.5191,3.5191,3.5177,3.4963,3.4896,3.4856,3.4616,3.4496,3.4456,3.4161,3.4096,3.4243,3.3815,3.3748,3.3988,3.4068,3.4107,3.4121,3.4309,3.4443,3.4496,3.443,3.4295,3.4134,3.4094,3.3907,3.3561,3.3508,3.3374,3.3092,3.2877,3.2877,3.3066,3.3104,3.3187,3.3388,3.3389,3.3521,3.3774,3.4068,3.4136,3.3962,3.348,3.2918,3.2318,3.1704,3.1169,3.0732,3.0681,3.0946,3.1432,3.1233,3.0359,2.858,2.551,2.253,2.0025,1.7924,1.6816,1.7066,1.708,1.7175,1.7331,1.6985,1.6701,1.6708,1.6803,1.6912,1.7066,1.7168,1.7277,1.7392,1.7392,1.7365,1.7385,1.7433,1.7446,1.7446,1.7487,1.7575,1.7636,1.7656,1.7717,1.786,1.7915,1.7833,1.7643,1.7547,1.7318,1.6888,1.6617,1.6531,1.6529,1.6518,1.7217,1.9135,1.9783,2.0645,2.2639,2.5616,2.6904,2.5475,2.8666,3.1374,3.1711,3.1719,3.1764,3.1879,3.1903,3.1874,3.2048,3.2463,3.3011,3.5204,3.5191,3.5217,3.5191,3.5217,3.519,3.5177,3.5177,3.5124,3.511,3.5044,3.451,3.4296,3.4296,3.423,3.4216,3.4283,3.4576,3.4709,3.4696,3.4749,3.4896,3.5044,3.4869,3.4723,3.4682,3.4695,3.4375,3.3867,3.3854,3.3681,3.34,3.3334,3.3347,3.3374,3.3374,3.3374,3.3414,3.3389,3.3427,3.3455,3.3761,3.3654,3.3145,3.3574,3.3546,3.2958,3.3092,3.3121,3.3082,3.3032,3.3206,3.3282,3.0958,2.9588,2.9834,2.4949,2.0516,1.798,1.7403,1.7525,1.7358,1.7519,1.7466,1.7433,1.7358,1.7317,1.7445,1.7405,1.7324,1.7365,1.7365,1.7399,1.7439,1.7439,1.7392,1.7439,1.75,1.7575,1.7588,1.7717,1.784,1.7847,1.7854,1.7881,1.7895,1.7915,1.7833,1.7683,1.7738,1.7636,1.7143,1.6836,1.6907,1.7008,1.6605,1.7321,1.7363,1.8803,2.0822,2.2752,2.5289,2.7154,2.6743,2.8284,3.1545,3.1758,3.1717,3.1785,3.1905,3.2009,3.213,3.2408,3.2595,3.2877,3.5725,3.5725,3.5738,3.5725,3.5725,3.5738,3.5725,3.5725,3.5511,3.5445,3.5391,3.5017,3.483,3.4817,3.4457,3.4403,3.4602,3.4736,3.4789,3.4802,3.4963,3.5097,3.5164,3.5097,3.4976,3.4816,3.4789,3.4575,3.4202,3.4136,3.4068,3.3949,3.3935,3.3935,3.3909,3.3774,3.3774,3.3909,3.3762,3.3855,3.4161,3.4002,3.3947,3.4054,3.4108,3.4042,3.3814,3.3882,3.3855,3.3734,3.3957,3.4117,3.4122,3.2982,3.2429,3.2388,2.8899,2.5403,2.2663,2.2504,2.1837,2.0262,2.0116,1.95,1.7875,1.7697,1.8333,1.9719,1.8522,1.7426,1.7555,1.7528,1.7575,1.7677,1.7697,1.7697,1.7684,1.7745,1.7779,1.7792,1.7854,1.7915,1.7915,1.7915,1.7915,1.7915,1.7915,1.7854,1.7785,1.784,1.7792,1.8045,2.0099,2.1338,2.0059,1.9117,1.9966,2.2229,2.3831,2.4814,2.659,2.814,2.9671,2.8499,3.0267,3.1582,3.1714,3.1712,3.1766,3.1928,3.2076,3.2238,3.2742,3.2836,3.3024,3.6099,3.6099,3.6099,3.6099,3.6099,3.6099,3.6099,3.6073,3.5845,3.5698,3.5578,3.5391,3.5271,3.5151,3.4737,3.467,3.4896,3.4909,3.4923,3.495,3.519,3.5298,3.5324,3.5418,3.5297,3.5043,3.503,3.483,3.4443,3.4323,3.4309,3.4309,3.4309,3.4309,3.4283,3.4082,3.4108,3.4256,3.4096,3.4268,3.4668,3.4375,3.4388,3.4829,3.467,3.455,3.4537,3.4617,3.4549,3.4294,3.4639,3.4773,3.4576,3.468,3.4342,3.3343,3.1534,2.9167,2.6412,2.6213,2.5006,2.2477,2.2082,2.0913,1.8591,1.7942,1.8848,2.0286,1.889,1.7793,1.8776,1.8177,1.7812,1.7942,1.7956,1.7956,1.7949,1.7935,1.7895,1.7915,1.7908,1.7915,1.7915,1.7915,1.7915,1.7915,1.7915,1.7915,1.7915,1.7901,1.7902,1.8171,2.273,2.4736,2.2666,2.2023,2.3734,2.5468,2.6829,2.8066,3.0599,3.0968,3.1652,3.0278,3.1334,3.1707,3.1704,3.1702,3.1839,3.1969,3.221,3.2545,3.3038,3.3092,3.3173,3.6099,3.6113,3.6113,3.6139,3.6113,3.6126,3.6113,3.6153,3.6099,3.5912,3.5658,3.5605,3.5445,3.5244,3.5177,3.5164,3.5177,3.5177,3.5177,3.5244,3.5445,3.5578,3.5591,3.5899,3.5859,3.5525,3.5498,3.5231,3.4697,3.443,3.4309,3.4323,3.435,3.4336,3.4349,3.4336,3.4309,3.4363,3.431,3.4482,3.4789,3.4802,3.4923,3.523,3.5151,3.5137,3.5204,3.5404,3.5391,3.5137,3.5351,3.5391,3.5177,3.5164,3.4004,3.1702,3.1104,2.9733,2.735,2.7014,2.5752,2.3093,2.306,2.1382,1.9235,1.8941,1.9247,1.8557,1.9122,1.9526,2.1305,1.9521,1.8127,1.8091,1.8084,1.8077,1.8091,1.7996,1.7915,1.7915,1.7915,1.7915,1.7915,1.7915,1.7915,1.7915,1.7915,1.8053,1.8295,1.8164,1.7909,1.9122,2.2497,2.5843,2.3868,2.4277,2.499,2.6657,2.853,2.8618,2.9128,2.9898,3.1007,3.1721,3.1702,3.1705,3.1702,3.1843,3.2061,3.2339,3.2799,3.3173,3.324,3.3334,3.3362,3.6794,3.662,3.662,3.6606,3.6593,3.6606,3.6593,3.6593,3.642,3.6299,3.6166,3.5992,3.5872,3.5792,3.5778,3.5672,3.5458,3.5284,3.5391,3.5712,3.5658,3.5698,3.5925,3.6059,3.5925,3.5658,3.5618,3.5405,3.507,3.491,3.487,3.4883,3.4883,3.487,3.483,3.4709,3.4696,3.4843,3.4723,3.4963,3.5565,3.5631,3.5845,3.6219,3.5725,3.5565,3.5778,3.5859,3.5778,3.5471,3.5551,3.5471,3.5257,3.5364,3.5046,3.4087,3.4107,3.3663,3.2548,3.2524,3.1378,2.8688,2.8301,2.6824,2.4684,2.4079,2.4744,2.5805,2.4753,2.4684,2.4067,2.1068,1.8131,1.8219,1.824,1.8199,1.8145,1.8139,1.8112,1.7956,1.7915,1.7915,1.8081,1.7922,1.7915,1.7915,1.7929,1.8777,1.9917,1.9241,1.8244,1.9488,2.5403,3.1222,3.0586,2.8675,2.8348,2.9705,3.0932,3.1049,3.1408,3.1295,3.2174,3.2113,3.1977,3.2014,3.2113,3.2288,3.2469,3.2658,3.3133,3.3281,3.3349,3.3375,3.3389,3.7342,3.7073,3.706,3.7047,3.7047,3.6953,3.6966,3.702,3.678,3.658,3.6487,3.6313,3.6179,3.6113,3.6099,3.6046,3.5872,3.5618,3.5725,3.6073,3.5952,3.6019,3.622,3.6326,3.6179,3.5885,3.5685,3.5458,3.5231,3.5191,3.5191,3.5177,3.5191,3.5191,3.5164,3.5017,3.503,3.5137,3.503,3.5324,3.6006,3.6099,3.6367,3.6726,3.6326,3.6072,3.6233,3.6233,3.6072,3.5832,3.5832,3.5765,3.5551,3.5658,3.5752,3.5778,3.5925,3.6006,3.5818,3.5992,3.4774,3.1934,3.0676,2.9088,2.6389,2.6006,2.7035,2.7922,2.7297,2.5903,2.4943,2.1218,1.8316,1.8354,1.8361,1.832,1.8253,1.8266,1.8199,1.8091,1.8057,1.8385,1.9029,1.8447,1.9048,2.0221,2.0007,2.0488,2.2526,2.2104,2.067,2.1394,2.8104,3.2529,3.2878,3.1393,3.0727,3.1878,3.2156,3.2592,3.2716,3.2675,3.2625,3.2492,3.2456,3.2481,3.258,3.2741,3.2861,3.2984,3.3133,3.3308,3.3361,3.3375,3.3389,3.7649,3.7409,3.741,3.7409,3.7369,3.7154,3.7141,3.7301,3.7074,3.682,3.6647,3.6527,3.6393,3.6193,3.6193,3.6287,3.6393,3.6206,3.6113,3.6206,3.6367,3.6446,3.6527,3.6713,3.6673,3.6406,3.5872,3.5498,3.5284,3.5257,3.5231,3.5204,3.5204,3.5191,3.5191,3.5164,3.5177,3.5177,3.5177,3.5471,3.6033,3.6059,3.63,3.678,3.6793,3.6687,3.65,3.65,3.638,3.6166,3.6313,3.6367,3.6113,3.6073,3.6113,3.6099,3.6126,3.6126,3.6113,3.6139,3.5024,3.2667,2.9627,2.7874,2.6051,2.5063,2.5147,2.5566,2.5082,2.4135,2.3929,2.1711,1.9434,1.8503,1.8517,1.8539,1.8777,1.8645,1.8527,1.898,1.9311,1.9739,2.1056,2.0751,2.1084,2.3933,2.3769,2.3324,2.5759,2.5686,2.6049,2.7213,3.0225,3.3213,3.3614,3.3556,3.3406,3.3392,3.3172,3.3213,3.3012,3.2918,3.2918,3.2821,3.2787,3.2811,3.296,3.3085,3.3036,3.3132,3.3253,3.3334,3.3361,3.3389,3.3389,3.7957,3.7689,3.7676,3.7661,3.7688,3.7797,3.7823,3.7661,3.7555,3.7382,3.7115,3.6887,3.674,3.6659,3.6646,3.6686,3.678,3.6687,3.666,3.6619,3.6526,3.6606,3.678,3.6846,3.6739,3.6473,3.6126,3.5899,3.5778,3.5578,3.5471,3.5445,3.5284,3.5191,3.5204,3.5191,3.5191,3.5191,3.5191,3.5391,3.5725,3.5765,3.5952,3.6326,3.6513,3.6646,3.6766,3.678,3.6646,3.6407,3.6446,3.646,3.6407,3.6353,3.638,3.6393,3.6553,3.6553,3.646,3.6741,3.6502,3.5362,3.4474,3.3862,3.2753,3.218,3.2092,3.2193,3.2469,3.1892,2.9843,2.8757,2.5221,1.9403,1.8723,1.9821,2.1552,2.3239,2.4453,2.4666,2.4607,2.5031,2.547,2.455,2.4882,2.6584,2.6206,2.6585,2.8578,2.8105,2.8668,3.1694,3.3265,3.3421,3.3468,3.3563,3.3581,3.3547,3.3481,3.3415,3.3253,3.3146,3.3146,3.3162,3.3127,3.3166,3.3317,3.3328,3.3251,3.3252,3.3334,3.3362,3.3375,3.3389,3.3389,3.8532,3.8169,3.8248,3.8288,3.8289,3.8425,3.8397,3.8221,3.7929,3.7716,3.7489,3.7087,3.6899,3.6939,3.7127,3.71,3.6939,3.7113,3.7113,3.6913,3.674,3.6753,3.6886,3.6899,3.6752,3.6513,3.6326,3.6193,3.6086,3.5885,3.5792,3.5752,3.5618,3.5484,3.5378,3.5324,3.5298,3.5204,3.5191,3.5324,3.5591,3.5818,3.6086,3.6406,3.6767,3.7033,3.722,3.722,3.7114,3.686,3.6727,3.6646,3.6646,3.6646,3.6633,3.67,3.6886,3.6993,3.6901,3.7261,3.7475,3.7202,3.6412,3.5441,3.5055,3.5105,3.5239,3.4756,3.4652,3.446,3.2623,3.1138,2.7953,2.3068,2.2407,2.2981,2.4893,2.6436,2.737,2.7324,2.7386,2.806,2.8782,2.7891,2.8651,2.9527,2.9445,2.9777,3.1501,3.1129,3.2869,3.3915,3.372,3.364,3.3449,3.3493,3.3589,3.3574,3.3547,3.3494,3.3387,3.3321,3.3308,3.3374,3.3364,3.3352,3.3478,3.3412,3.3334,3.3375,3.3389,3.3389,3.3389,3.3389,3.3389,3.9265,3.8809,3.9036,3.9088,3.9061,3.8902,3.8929,3.8956,3.8328,3.7995,3.7808,3.7407,3.7113,3.7207,3.7661,3.7594,3.7207,3.7594,3.7607,3.726,3.7113,3.7126,3.7073,3.6953,3.678,3.6593,3.654,3.6406,3.6246,3.6153,3.6126,3.6099,3.6032,3.5939,3.5685,3.5631,3.5538,3.5364,3.5297,3.5445,3.5712,3.6166,3.6593,3.686,3.734,3.7661,3.7702,3.7727,3.7676,3.7422,3.7101,3.6953,3.6953,3.6953,3.6993,3.7007,3.7261,3.7368,3.7462,3.7662,3.7782,3.7545,3.5715,3.3134,3.3264,3.393,3.3932,3.2973,3.3248,3.3318,3.2673,3.1237,2.9303,2.8652,2.7987,2.7975,2.809,2.8543,2.9523,2.9169,2.8675,2.9398,3.2012,3.0204,3.145,3.3462,3.3307,3.3527,3.4346,3.4448,3.4973,3.4939,3.4492,3.4058,3.3922,3.3744,3.3803,3.3668,3.3614,3.3507,3.3467,3.3415,3.3389,3.3468,3.3523,3.3536,3.3535,3.3441,3.3389,3.3389,3.3389,3.3389,3.3442,3.3509,3.3601,3.9491,3.9371,3.9423,3.9464,3.9491,3.9583,3.9585,3.9464,3.9224,3.8917,3.8701,3.8395,3.8155,3.822,3.8355,3.8369,3.8262,3.8383,3.8436,3.8248,3.8221,3.7955,3.7527,3.7113,3.6886,3.6806,3.678,3.6766,3.6687,3.6487,3.6379,3.638,3.622,3.6086,3.5966,3.5966,3.5952,3.5885,3.5845,3.5992,3.6232,3.642,3.6633,3.6913,3.7342,3.7635,3.7808,3.8036,3.8024,3.7702,3.7408,3.7382,3.75,3.7528,3.7515,3.7541,3.7621,3.7702,3.7756,3.7997,3.8051,3.7863,3.7219,3.6741,3.6224,3.6302,3.6293,3.6041,3.6299,3.626,3.6162,3.5429,3.4976,3.4879,3.2895,3.1475,3.1697,3.3573,3.5048,3.4655,3.4492,3.4832,3.4809,3.4764,3.4538,3.5749,3.5712,3.5114,3.592,3.6193,3.5964,3.5832,3.5444,3.4834,3.441,3.4181,3.4004,3.3815,3.3668,3.348,3.3428,3.3389,3.3389,3.3415,3.3446,3.3461,3.3457,3.3415,3.3401,3.343,3.3401,3.3428,3.3708,3.3843,3.3961,3.9893,3.98,3.992,4.0003,3.9987,4.0147,4.0105,3.9933,3.9693,3.9504,3.9249,3.8862,3.8703,3.873,3.8957,3.8902,3.8757,3.897,3.8916,3.8675,3.8649,3.8396,3.7955,3.7488,3.7234,3.7073,3.698,3.6899,3.6859,3.6726,3.6673,3.6633,3.6513,3.638,3.6259,3.6287,3.626,3.6246,3.6273,3.6393,3.6633,3.6927,3.7127,3.7368,3.7702,3.805,3.8196,3.837,3.8263,3.7875,3.7648,3.7635,3.7768,3.7809,3.7809,3.7823,3.7929,3.801,3.8076,3.8398,3.853,3.8448,3.8651,3.858,3.8207,3.8191,3.8183,3.8065,3.7959,3.7823,3.7809,3.7809,3.7809,3.7302,3.6157,3.4971,3.4694,3.6356,3.7438,3.742,3.7421,3.7448,3.7154,3.7114,3.6954,3.6753,3.6618,3.6387,3.65,3.6556,3.6557,3.6369,3.6248,3.5751,3.5125,3.4803,3.4297,3.4069,3.3895,3.3668,3.3521,3.3469,3.3417,3.3419,3.3396,3.3474,3.3652,3.3677,3.3514,3.3514,3.3457,3.3587,3.3869,3.4016,3.4148,4.0348,4.0064,4.0376,4.0496,4.047,4.0496,4.0443,4.0391,3.996,3.9733,3.9613,3.9129,3.9077,3.8945,3.9506,3.9412,3.893,3.9384,3.9277,3.9064,3.893,3.8784,3.8505,3.8023,3.7689,3.7421,3.7127,3.7073,3.7087,3.7047,3.7047,3.7073,3.7033,3.686,3.674,3.6674,3.6607,3.6647,3.6714,3.6927,3.7233,3.7634,3.7901,3.817,3.8504,3.8743,3.8797,3.881,3.8596,3.8021,3.7941,3.8009,3.801,3.7969,3.7996,3.8076,3.8277,3.8426,3.8478,3.8903,3.9195,3.9208,3.9478,3.9469,3.9059,3.8909,3.8804,3.8874,3.8258,3.8037,3.7996,3.7943,3.7969,3.7979,3.8013,3.8086,3.7983,3.7888,3.7875,3.7836,3.7808,3.7716,3.7543,3.7436,3.7328,3.7195,3.706,3.6954,3.6847,3.6808,3.6822,3.6755,3.6692,3.6653,3.6019,3.5429,3.4815,3.4349,3.4229,3.4029,3.3788,3.3669,3.3525,3.3488,3.3534,3.3857,3.4306,3.419,3.3883,3.3754,3.3803,3.3908,3.4054,3.4082,3.4188,4.0657,4.0403,4.0456,4.0496,4.0496,4.0496,4.0496,4.0498,4.0376,4.0296,4.0256,4.0136,4.0054,4.0067,4.0162,4.0095,3.9718,3.9865,3.981,3.977,3.9731,3.9573,3.9173,3.8558,3.8037,3.7756,3.7648,3.7595,3.7595,3.7581,3.7742,3.7877,3.7528,3.7368,3.7474,3.7315,3.7222,3.7249,3.7422,3.7767,3.8168,3.8395,3.8703,3.9078,3.9292,3.9372,3.9398,3.9412,3.9346,3.9171,3.8969,3.8836,3.8768,3.8768,3.8782,3.8782,3.8836,3.8916,3.9022,3.941,3.9797,3.9783,4.0027,4.0254,4.0129,3.9608,3.9501,3.9459,3.8967,3.8503,3.8436,3.8489,3.8449,3.8449,3.8516,3.8556,3.8516,3.8475,3.8261,3.8009,3.8051,3.8078,3.7769,3.7743,3.7662,3.7595,3.7462,3.7329,3.7221,3.7101,3.7005,3.695,3.6984,3.6895,3.6504,3.5872,3.5257,3.4844,3.471,3.4643,3.4389,3.4216,3.4205,3.3984,3.37,3.4138,3.4654,3.4654,3.4345,3.4253,3.4202,3.4402,3.4522,3.4389,3.4362,4.083,4.0682,4.0697,4.0617,4.055,4.0746,4.0802,4.0737,4.0844,4.0802,4.0695,4.0682,4.0601,4.0496,4.0483,4.0374,4.0281,4.0226,4.0146,4.0039,3.9985,3.9772,3.9398,3.8931,3.8464,3.8076,3.7848,3.7808,3.7836,3.7956,3.8105,3.8292,3.8063,3.8116,3.8209,3.8076,3.8116,3.8222,3.8328,3.8649,3.9037,3.9131,3.9211,3.9547,3.9614,3.9614,3.9586,3.9718,3.9706,3.9666,3.9693,3.9611,3.9398,3.9329,3.9343,3.9329,3.9329,3.9329,3.9464,3.9717,3.9999,4.0024,4.0321,4.0573,4.0562,4.0168,3.9739,3.9557,3.9177,3.8849,3.8715,3.8689,3.8689,3.8689,3.8689,3.8689,3.8689,3.8689,3.8623,3.8329,3.8397,3.8304,3.8171,3.8064,3.7903,3.7782,3.7702,3.7582,3.7526,3.7377,3.712,3.7066,3.7166,3.7079,3.6786,3.6288,3.5685,3.5404,3.5324,3.5364,3.5324,3.5164,3.5045,3.4582,3.4095,3.4393,3.4809,3.4783,3.4824,3.4774,3.4776,3.499,3.5043,3.4883,3.4896,4.1,4.0945,4.096,4.0844,4.0708,4.1092,4.1118,4.0947,4.1132,4.1,4.0869,4.0827,4.0657,4.0536,4.0496,4.0485,4.0351,4.0298,4.0067,3.9782,3.977,3.9528,3.9181,3.8968,3.8743,3.8345,3.8143,3.8009,3.8076,3.8211,3.8411,3.8451,3.8571,3.8636,3.8702,3.8769,3.8769,3.8901,3.9021,3.9235,3.9585,3.9693,3.9801,3.9893,3.9855,3.9841,3.9882,3.9959,4.0,3.9801,4.0229,4.0176,3.9908,3.968,3.9666,3.9651,3.9651,3.9651,3.9733,3.9957,4.0197,4.0144,4.0439,4.0776,4.0882,4.0498,4.0023,3.9616,3.9292,3.8954,3.8742,3.8689,3.8689,3.8689,3.8689,3.8689,3.8689,3.8689,3.8676,3.8663,3.8596,3.8504,3.8424,3.8331,3.8157,3.7995,3.7915,3.7861,3.7805,3.7669,3.744,3.7305,3.7406,3.7342,3.7066,3.6919,3.6287,3.6019,3.5952,3.6019,3.6099,3.6005,3.5724,3.4914,3.4596,3.4845,3.4988,3.5026,3.5068,3.515,3.523,3.5297,3.5324,3.5337,3.5444,4.1497,4.1239,4.1239,4.1212,4.1185,4.1279,4.1185,4.092,4.1027,4.0813,4.063,4.0561,4.0603,4.0496,4.0496,4.0242,3.9988,3.9948,3.9733,3.9435,3.9396,3.9235,3.9113,3.8901,3.873,3.8649,3.8502,3.8476,3.8503,3.861,3.877,3.8876,3.8862,3.8902,3.9143,3.9061,3.9235,3.9407,3.9542,3.9783,4.0012,4.0227,4.043,4.0548,4.0428,4.0321,4.0323,4.0376,4.0405,4.0378,4.0458,4.0416,4.0267,4.0065,3.9985,3.9959,4.0025,4.0037,4.0012,4.0439,4.068,4.0829,4.0907,4.1065,4.107,4.0744,4.0311,4.0029,3.9491,3.898,3.8729,3.8729,3.8715,3.8702,3.8755,3.8755,3.8755,3.8755,3.8755,3.8755,3.8743,3.869,3.8597,3.8544,3.8436,3.8316,3.825,3.821,3.8169,3.8021,3.7779,3.7726,3.7713,3.7569,3.737,3.7304,3.7035,3.6727,3.6606,3.6606,3.6673,3.6739,3.635,3.5898,3.5258,3.5046,3.5152,3.5204,3.5323,3.5431,3.5485,3.5565,3.5832,3.6059,3.5979,4.1726,4.1577,4.1561,4.1452,4.137,4.1652,4.1615,4.1416,4.151,4.1336,4.1029,4.0909,4.075,4.0563,4.0496,4.0309,4.0136,4.0069,3.988,3.9623,3.9436,3.9235,3.91,3.8821,3.8715,3.8703,3.8689,3.8715,3.8715,3.8834,3.9128,3.9502,3.9556,3.9838,4.0155,4.0317,4.0209,4.0234,4.0371,4.0519,4.0651,4.084,4.0987,4.1027,4.0974,4.0855,4.0708,4.0695,4.063,4.0538,4.0496,4.0496,4.0496,4.0495,4.0399,4.0332,4.0478,4.0519,4.0399,4.0775,4.096,4.0724,4.0842,4.0867,4.0842,4.0632,4.0443,4.0105,3.9637,3.9046,3.8914,3.8901,3.8901,3.8942,3.905,3.9131,3.9129,3.9071,3.8992,3.8901,3.8809,3.8755,3.8703,3.8663,3.869,3.865,3.8571,3.8531,3.8518,3.833,3.813,3.8163,3.8123,3.7947,3.7772,3.7703,3.765,3.7394,3.7247,3.7247,3.722,3.726,3.7445,3.7384,3.6663,3.5706,3.5245,3.5271,3.5471,3.5725,3.5925,3.6166,3.6553,3.6754,3.6647,4.1886,4.1886,4.1871,4.1721,4.1586,4.1973,4.2044,4.1871,4.1975,4.1706,4.1265,4.1187,4.0922,4.0603,4.0496,4.0483,4.0496,4.0485,4.0254,3.9957,3.9757,3.9503,3.9209,3.9022,3.8956,3.9131,3.9062,3.8914,3.8982,3.9116,3.9543,3.9985,4.0416,4.0748,4.1012,4.1025,4.1279,4.129,4.129,4.1303,4.1385,4.1345,4.1345,4.1372,4.1345,4.1187,4.1,4.0987,4.0827,4.0708,4.0657,4.0657,4.0659,4.0842,4.0867,4.0775,4.1078,4.1,4.0922,4.0909,4.0987,4.0724,4.0565,4.0523,4.0523,4.051,4.0361,3.9984,3.9635,3.9288,3.9235,3.9193,3.9195,3.9249,3.9426,3.9573,3.9475,3.9377,3.9253,3.9122,3.8938,3.8821,3.8782,3.8849,3.8861,3.8876,3.8823,3.8809,3.8755,3.865,3.8505,3.8571,3.852,3.8356,3.8217,3.8103,3.805,3.7929,3.7848,3.7862,3.7795,3.7756,3.7918,3.7966,3.7542,3.663,3.6005,3.5511,3.5831,3.6137,3.6432,3.67,3.6981,3.7182,3.7181,4.2149,4.2165,4.2165,4.2122,4.2095,4.2162,4.2058,4.1831,4.1873,4.1512,4.1012,4.096,4.0815,4.0563,4.0496,4.0496,4.051,4.0523,4.0414,4.0184,4.005,3.9863,3.9613,3.9533,3.9598,3.9705,3.977,3.969,3.9611,3.9611,3.988,4.0416,4.0722,4.0933,4.1174,4.1374,4.129,4.1303,4.1316,4.1452,4.1641,4.1494,4.1534,4.1601,4.1506,4.1345,4.1294,4.1267,4.1134,4.0922,4.108,4.1067,4.0947,4.112,4.1225,4.1225,4.1263,4.1263,4.1174,4.1174,4.1027,4.0844,4.0657,4.0536,4.0496,4.0483,4.0361,4.0052,3.9892,3.9758,3.9571,3.9546,3.9531,3.9558,3.9638,3.9693,3.9651,3.9767,3.9614,3.9466,3.9324,3.9046,3.8874,3.8966,3.9046,3.9061,3.9061,3.9061,3.8976,3.8827,3.8781,3.8807,3.8879,3.8742,3.8552,3.845,3.8409,3.8369,3.8289,3.8289,3.8157,3.8023,3.8008,3.7961,3.7664,3.7436,3.6845,3.6496,3.6428,3.6509,3.6739,3.7021,3.7303,3.7489,3.7716,4.2202,4.2202,4.2202,4.2202,4.2202,4.2202,4.2135,4.2042,4.2018,4.1681,4.1198,4.1132,4.0893,4.0563,4.0496,4.059,4.0695,4.0735,4.076,4.0693,4.0571,4.0424,4.0334,4.0187,4.0201,4.0267,4.0306,4.0453,4.0388,4.0308,4.0401,4.0893,4.1094,4.1345,4.1508,4.1735,4.1815,4.1826,4.1826,4.1879,4.1948,4.1908,4.1866,4.2002,4.1882,4.1735,4.1601,4.1575,4.1428,4.1214,4.1263,4.125,4.1225,4.1388,4.159,4.1603,4.1748,4.1652,4.1385,4.1492,4.1334,4.1002,4.0804,4.0683,4.0563,4.0483,4.0456,4.0323,4.012,3.9959,3.9865,3.9838,3.9825,3.9852,3.9933,4.0014,4.0027,4.0052,4.0034,3.987,3.9709,3.9459,3.9261,3.9343,3.9423,3.9383,3.937,3.9356,3.918,3.8936,3.8924,3.8956,3.9053,3.9106,3.8893,3.8743,3.8702,3.8622,3.8385,3.8371,3.8318,3.8237,3.818,3.8045,3.7793,3.7592,3.7416,3.7251,3.6987,3.6998,3.7033,3.7328,3.765,3.8076,3.8223,4.2135,4.2202,4.2202,4.2162,4.2109,4.2162,4.2202,4.2202,4.2189,4.1853,4.1401,4.116,4.0842,4.0617,4.059,4.0762,4.1,4.108,4.1241,4.1294,4.1241,4.1082,4.0922,4.0746,4.075,4.0819,4.0882,4.1096,4.1254,4.1214,4.1187,4.1519,4.1559,4.1746,4.2055,4.2135,4.2122,4.2122,4.2135,4.2218,4.2314,4.2325,4.2312,4.2325,4.2282,4.2191,4.1951,4.1884,4.1735,4.1508,4.1546,4.1572,4.1508,4.171,4.1884,4.1908,4.2042,4.1975,4.1773,4.1761,4.1697,4.1336,4.0909,4.0777,4.0536,4.0496,4.0496,4.0471,4.0308,4.0172,4.0104,4.0132,4.0147,4.0201,4.0309,4.0416,4.0483,4.0361,4.0306,4.0197,4.0075,4.0009,3.9865,3.9825,3.9785,3.9705,3.9678,3.9665,3.9476,3.9185,3.9172,3.9235,3.9289,3.9386,3.9251,3.909,3.9036,3.8929,3.8692,3.8626,3.8679,3.8476,3.8272,3.8111,3.7925,3.7603,3.7335,3.7433,3.7508,3.7418,3.7421,3.7704,3.8038,3.8464,3.8636,4.1978,4.2202,4.2189,4.2055,4.1873,4.2095,4.2202,4.2162,4.2175,4.1826,4.1239,4.0829,4.059,4.0565,4.0724,4.0947,4.125,4.159,4.167,4.1726,4.1726,4.1534,4.1385,4.1334,4.1403,4.1592,4.1563,4.1764,4.2042,4.1962,4.2002,4.2135,4.2015,4.2109,4.2189,4.2202,4.2202,4.2202,4.2202,4.2365,4.2514,4.2581,4.2597,4.2624,4.2608,4.2514,4.2202,4.2135,4.2029,4.1777,4.1908,4.1935,4.1844,4.1962,4.2095,4.2122,4.2165,4.2122,4.2069,4.1922,4.1806,4.1606,4.1231,4.0764,4.0523,4.0496,4.0496,4.0496,4.0388,4.0401,4.0414,4.0456,4.0389,4.0403,4.043,4.0456,4.0496,4.0483,4.0443,4.0456,4.0403,4.0281,4.0267,4.0174,4.0107,4.0027,4.0,3.9987,3.9855,3.9637,3.9574,3.9585,3.9613,3.9613,3.9574,3.9479,3.9424,3.9358,3.92,3.92,3.9253,3.8956,3.8633,3.8279,3.8093,3.7673,3.7296,3.7238,3.7295,3.7559,3.7755,3.7904,3.8212,3.8597,3.8702,4.1721,4.1666,4.1884,4.1991,4.2058,4.2149,4.2109,4.1964,4.1951,4.1617,4.104,4.0668,4.0496,4.0536,4.0603,4.0909,4.1265,4.1399,4.1708,4.1948,4.2015,4.1962,4.1853,4.1826,4.1906,4.2018,4.2029,4.2055,4.2175,4.2362,4.2488,4.2474,4.2336,4.2216,4.2202,4.2242,4.2216,4.2202,4.2229,4.2381,4.2584,4.2501,4.2488,4.2691,4.2461,4.2352,4.2202,4.2202,4.2151,4.2095,4.2149,4.2095,4.2044,4.2149,4.2189,4.2202,4.2202,4.2202,4.2202,4.2055,4.1911,4.143,4.0989,4.063,4.0536,4.0496,4.0496,4.0496,4.0496,4.0496,4.0496,4.0483,4.047,4.0496,4.0496,4.0496,4.0496,4.0496,4.055,4.055,4.051,4.0443,4.0456,4.0456,4.0403,4.0336,4.0308,4.0269,4.0122,4.0042,3.996,3.9933,3.9948,3.9841,3.9788,3.9773,3.9772,3.9733,3.9681,3.9628,3.9586,3.9493,3.9145,3.8725,3.8173,3.7676,3.7285,3.701,3.7041,3.7258,3.7607,3.7955,3.8302,3.8717,3.8797,4.171,4.1599,4.1831,4.1978,4.2082,4.2162,4.2044,4.1833,4.1806,4.1456,4.0893,4.0695,4.0617,4.0657,4.0871,4.1069,4.1454,4.1615,4.1868,4.2055,4.2175,4.2202,4.2202,4.2175,4.2135,4.2202,4.2231,4.2231,4.2392,4.2595,4.2718,4.2731,4.2621,4.2539,4.2499,4.2362,4.2296,4.2229,4.2338,4.2514,4.2758,4.2662,4.2563,4.2768,4.2568,4.2338,4.2242,4.2202,4.2202,4.2175,4.2202,4.2202,4.2202,4.2202,4.2202,4.2202,4.2202,4.2202,4.2202,4.2162,4.1975,4.1563,4.1107,4.0802,4.063,4.055,4.0496,4.0496,4.0496,4.0496,4.0496,4.0496,4.0496,4.0496,4.0496,4.0496,4.0496,4.0496,4.059,4.0657,4.059,4.0536,4.0603,4.0603,4.0523,4.0456,4.0416,4.0403,4.0363,4.0309,4.0281,4.0267,4.0283,4.0136,3.9988,4.0055,4.0107,4.0122,4.0029,3.984,3.9773,3.9706,3.9691,3.9426,3.8753,3.7824,3.7434,3.7351,3.7119,3.6925,3.75,3.8197,3.8435,3.8809,3.8916,4.1937,4.2175,4.2162,4.2044,4.1913,4.2095,4.2044,4.1766,4.1726,4.1416,4.092,4.084,4.084,4.0949,4.1243,4.1497,4.171,4.1951,4.2122,4.2162,4.2202,4.2202,4.2202,4.2202,4.2202,4.2202,4.2231,4.2338,4.2597,4.2664,4.2825,4.2956,4.2913,4.2939,4.3036,4.2825,4.2528,4.2325,4.2571,4.2825,4.3022,4.3022,4.298,4.3006,4.2755,4.2488,4.2352,4.2216,4.2202,4.2202,4.2202,4.2202,4.2202,4.2202,4.2202,4.2202,4.2202,4.2202,4.2202,4.2202,4.2015,4.1737,4.1294,4.1094,4.088,4.0695,4.055,4.0588,4.0523,4.0496,4.0496,4.0496,4.0496,4.051,4.051,4.0577,4.059,4.0682,4.0802,4.0882,4.0695,4.0575,4.0682,4.0737,4.0615,4.0548,4.051,4.0496,4.051,4.0483,4.0428,4.0428,4.043,4.0376,4.0256,4.0363,4.043,4.0458,4.0338,4.0095,3.996,3.9907,3.9898,3.9909,3.9424,3.8574,3.8122,3.7785,3.7663,3.7618,3.7995,3.8518,3.873,3.8928,3.9128,4.1951,4.2189,4.2018,4.1991,4.2071,4.2149,4.1935,4.1479,4.1281,4.108,4.0933,4.0893,4.0893,4.0987,4.1147,4.1483,4.1806,4.1844,4.1978,4.2189,4.2202,4.2202,4.2202,4.2202,4.2202,4.2202,4.2216,4.2271,4.2338,4.2611,4.2734,4.2851,4.3046,4.3086,4.3089,4.2982,4.2873,4.2833,4.2926,4.3073,4.3314,4.3233,4.3207,4.3337,4.2969,4.2677,4.2501,4.2336,4.2229,4.2216,4.2202,4.2202,4.2202,4.2202,4.2202,4.2202,4.2202,4.2202,4.2202,4.2175,4.2084,4.1817,4.1534,4.1321,4.116,4.0922,4.0802,4.0706,4.0628,4.059,4.0496,4.0525,4.0538,4.055,4.0603,4.0748,4.0813,4.0985,4.1118,4.1145,4.1054,4.1,4.1025,4.1,4.088,4.0787,4.0762,4.063,4.059,4.0536,4.0468,4.0483,4.0483,4.0483,4.0496,4.0577,4.0617,4.0617,4.0443,4.0189,4.0094,4.012,3.9818,3.9688,3.9552,3.9374,3.9092,3.8821,3.8511,3.8512,3.8823,3.9026,3.9211,3.941,3.9582,4.2044,4.216,4.2018,4.2044,4.2189,4.2202,4.1922,4.1468,4.1158,4.1025,4.1052,4.1147,4.1229,4.1256,4.135,4.1481,4.194,4.1951,4.1962,4.2202,4.2202,4.2202,4.2202,4.2202,4.2202,4.2229,4.2338,4.2392,4.2445,4.2702,4.2865,4.2958,4.3089,4.3231,4.3233,4.3167,4.2993,4.298,4.3046,4.3377,4.3538,4.3564,4.3511,4.3514,4.3276,4.2918,4.2688,4.2485,4.2309,4.2256,4.2216,4.2202,4.2202,4.2202,4.2202,4.2202,4.2202,4.2202,4.2202,4.2202,4.2111,4.1978,4.1641,4.1494,4.1428,4.1214,4.1078,4.0974,4.0827,4.0802,4.0762,4.0748,4.0748,4.0802,4.0869,4.1014,4.108,4.1239,4.1372,4.1399,4.1372,4.1343,4.133,4.1263,4.1185,4.1092,4.0998,4.0867,4.0746,4.0632,4.0636,4.068,4.0664,4.0676,4.0705,4.0735,4.0762,4.0775,4.0642,4.0481,4.0428,4.0453,3.9945,3.9585,3.9804,3.9997,4.0103,3.9901,3.9442,3.9328,3.9558,3.9693,3.976,3.9825,3.993,4.2202,4.2202,4.2202,4.2189,4.2202,4.2202,4.2029,4.1777,4.1468,4.1319,4.1316,4.1617,4.1686,4.1806,4.2002,4.2095,4.2135,4.2149,4.2175,4.2189,4.2202,4.2202,4.2202,4.2202,4.2242,4.2352,4.2461,4.2581,4.2691,4.2728,4.2875,4.3009,4.306,4.3137,4.311,4.3073,4.298,4.3127,4.3367,4.3645,4.3821,4.3952,4.3938,4.3885,4.3714,4.3367,4.3103,4.2809,4.2581,4.2405,4.2242,4.2216,4.2202,4.2202,4.2202,4.2202,4.2202,4.2202,4.2202,4.2202,4.2202,4.2111,4.1937,4.1846,4.171,4.1521,4.1374,4.1292,4.1185,4.1212,4.121,4.1198,4.1185,4.1225,4.1267,4.1334,4.1347,4.1454,4.1588,4.1599,4.1532,4.1519,4.1532,4.1492,4.1532,4.1519,4.1452,4.1441,4.1248,4.0832,4.0865,4.1021,4.1005,4.0948,4.0937,4.0958,4.0987,4.1014,4.1094,4.0972,4.0933,4.0796,4.044,4.0267,4.0411,4.05,4.0402,4.0333,4.02,4.0187,4.0122,4.0094,4.0067,4.0039,4.0077,4.2202,4.2202,4.2202,4.2202,4.2202,4.2202,4.2162,4.2042,4.179,4.1657,4.1686,4.175,4.1833,4.182,4.1886,4.2044,4.2151,4.2202,4.2202,4.2202,4.2202,4.2202,4.2202,4.2216,4.2338,4.2501,4.2637,4.2691,4.2637,4.2662,4.2496,4.2469,4.2712,4.2667,4.2723,4.2755,4.3103,4.3407,4.3661,4.3835,4.4035,4.4165,4.4202,4.4205,4.4192,4.3915,4.3674,4.318,4.2939,4.2819,4.2403,4.2229,4.2202,4.2202,4.2202,4.2202,4.2202,4.2202,4.2202,4.2202,4.2202,4.2202,4.2111,4.2109,4.1989,4.1828,4.1657,4.1601,4.1506,4.1463,4.145,4.145,4.145,4.1492,4.1546,4.1641,4.1655,4.1761,4.1882,4.1882,4.1828,4.1815,4.1815,4.1855,4.1895,4.1935,4.1922,4.1882,4.1755,4.1341,4.1188,4.1346,4.145,4.1427,4.1219,4.1165,4.1223,4.1265,4.1372,4.1399,4.1254,4.1099,4.092,4.0856,4.0845,4.0695,4.0506,4.0506,4.0586,4.047,4.0389,4.0389,4.0389,4.0321,4.0279,4.2029,4.2042,4.2162,4.2202,4.2202,4.2202,4.2202,4.2175,4.2015,4.1967,4.1967,4.1964,4.1935,4.1978,4.1975,4.2055,4.2189,4.2202,4.2202,4.2202,4.2202,4.2202,4.2202,4.2245,4.2408,4.2597,4.2691,4.2691,4.2624,4.2408,4.2216,4.224,4.2282,4.2378,4.2528,4.2795,4.3129,4.3447,4.3714,4.3875,4.4045,4.4229,4.4362,4.4429,4.4499,4.4392,4.3989,4.3391,4.3257,4.3143,4.2691,4.2787,4.2784,4.2766,4.2592,4.2565,4.2309,4.2256,4.2202,4.2202,4.2202,4.2202,4.2202,4.2189,4.2149,4.2029,4.1962,4.1908,4.1773,4.1679,4.1666,4.1666,4.1666,4.1663,4.1799,4.1935,4.2015,4.2095,4.2135,4.2175,4.2162,4.2162,4.2175,4.2202,4.2202,4.2135,4.2095,4.2082,4.2029,4.1859,4.1703,4.1752,4.1896,4.1944,4.1701,4.147,4.1541,4.1639,4.1746,4.1732,4.1575,4.1452,4.1308,4.1226,4.1175,4.103,4.0931,4.0941,4.0989,4.0802,4.067,4.0655,4.0601,4.0496,4.047,4.1817,4.1831,4.2082,4.2202,4.2202,4.2202,4.2202,4.2202,4.2175,4.2202,4.2175,4.2165,4.2122,4.2109,4.2082,4.2109,4.2189,4.2202,4.2202,4.2202,4.2202,4.2202,4.2216,4.2258,4.2474,4.2637,4.2731,4.2771,4.2624,4.2408,4.2202,4.2213,4.2418,4.2514,4.2541,4.2699,4.2899,4.298,4.3284,4.3511,4.3898,4.4179,4.4406,4.4443,4.4499,4.4449,4.3725,4.3418,4.3431,4.3338,4.3357,4.3588,4.3549,4.3314,4.31,4.2846,4.2469,4.2269,4.2202,4.2202,4.2202,4.2202,4.2202,4.2202,4.2175,4.2149,4.2109,4.2095,4.1975,4.1946,4.1946,4.1948,4.1962,4.1946,4.2029,4.2082,4.2122,4.2175,4.2175,4.2202,4.2202,4.2202,4.2202,4.2202,4.2202,4.2202,4.2202,4.2202,4.2175,4.2122,4.208,4.2053,4.2101,4.2135,4.2063,4.1877,4.1919,4.2015,4.2082,4.1962,4.1724,4.1686,4.1713,4.1639,4.1597,4.1527,4.1457,4.1418,4.1283,4.104,4.092,4.0933,4.0869,4.0748,4.059,4.1991,4.1833,4.2082,4.2202,4.2202,4.2202,4.2202,4.2202,4.2202,4.2202,4.2162,4.2031,4.2031,4.2191,4.2031,4.2029,4.2175,4.2202,4.2202,4.2202,4.2202,4.2202,4.2285,4.2434,4.2597,4.2744,4.2838,4.2851,4.2608,4.2365,4.2202,4.2216,4.2352,4.2378,4.2378,4.2496,4.2509,4.2549,4.2779,4.318,4.3604,4.3925,4.4165,4.4309,4.4419,4.4566,4.4125,4.4005,4.3925,4.3811,4.3827,4.3921,4.3971,4.3407,4.314,4.2993,4.2536,4.2282,4.2202,4.2202,4.2202,4.2202,4.2202,4.2202,4.2202,4.2202,4.2202,4.2202,4.2202,4.2202,4.2202,4.2202,4.2202,4.2202,4.2202,4.2202,4.2202,4.2202,4.2202,4.2202,4.2202,4.2202,4.2202,4.2202,4.2202,4.2202,4.2202,4.2202,4.2202,4.2175,4.2162,4.2149,4.2162,4.2185,4.2162,4.2149,4.2122,4.2122,4.2149,4.2018,4.1875,4.1907,4.1949,4.2033,4.202,4.1909,4.1808,4.1784,4.161,4.1323,4.1214,4.1227,4.1185,4.1107,4.0842,4.1537,4.1472,4.1857,4.2018,4.2029,4.2165,4.2202,4.2202,4.2202,4.2202,4.2189,4.2071,4.2071,4.2218,4.2044,4.2004,4.2189,4.2202,4.2202,4.2202,4.2202,4.2202,4.2338,4.2557,4.2637,4.2758,4.2811,4.2755,4.2499,4.2352,4.2202,4.2202,4.2202,4.2216,4.2216,4.2202,4.2202,4.2229,4.2421,4.2793,4.3271,4.3541,4.3738,4.3909,4.4069,4.4192,4.3928,4.3728,4.3714,4.3714,4.3795,4.3955,4.3875,4.342,4.3153,4.2939,4.2605,4.2202,4.2202,4.2202,4.2202,4.2202,4.2202,4.2202,4.2202,4.2202,4.2202,4.2202,4.2202,4.2202,4.2202,4.2202,4.2202,4.2202,4.2202,4.2202,4.2202,4.2202,4.2202,4.2202,4.2202,4.2202,4.2202,4.2202,4.2202,4.2202,4.2202,4.2202,4.2202,4.2202,4.2202,4.2202,4.2202,4.2202,4.2189,4.2189,4.2175,4.2202,4.2202,4.2138,4.2047,4.2128,4.2199,4.2185,4.2183,4.2159,4.2081,4.2021,4.188,4.1603,4.155,4.1537,4.1494,4.141,4.1187,4.0987,4.1027,4.1523,4.1724,4.1764,4.1975,4.2095,4.2151,4.2135,4.2135,4.2138,4.2109,4.2178,4.2218,4.2095,4.2149,4.2189,4.2202,4.2202,4.2202,4.2202,4.2202,4.2352,4.2568,4.2731,4.2758,4.2758,4.2541,4.2256,4.2322,4.2403,4.2269,4.2213,4.2226,4.2216,4.2202,4.2202,4.2202,4.2352,4.2592,4.2859,4.3103,4.33,4.3418,4.3404,4.3164,4.3009,4.2985,4.3129,4.326,4.3594,4.3928,4.3901,4.357,4.322,4.2953,4.2539,4.2269,4.2202,4.2202,4.2202,4.2202,4.2202,4.2202,4.2202,4.2202,4.2202,4.2202,4.2202,4.2202,4.2202,4.2202,4.2202,4.2202,4.2202,4.2202,4.2202,4.2202,4.2202,4.2202,4.2202,4.2202,4.2202,4.2202,4.2202,4.2202,4.2202,4.2202,4.2202,4.2202,4.2202,4.2202,4.2202,4.2202,4.2202,4.2202,4.2202,4.2202,4.2202,4.2202,4.2178,4.2107,4.211,4.221,4.2212,4.2208,4.2211,4.2152,4.1998,4.1844,4.1857,4.1831,4.1802,4.1706,4.1532,4.1225,4.1239,4.1359,4.1399,4.1412,4.145,4.1612,4.186,4.1871,4.1871,4.1857,4.19,4.1993,4.2178,4.1652,4.1692,4.2189,4.2202,4.2202,4.2202,4.2202,4.2202,4.2309,4.2579,4.2929,4.2918,4.2744,4.2501,4.2298,4.2576,4.263,4.2229,4.2501,4.2448,4.2216,4.2202,4.2202,4.2202,4.2285,4.2485,4.2835,4.3036,4.31,4.314,4.3073,4.3153,4.3193,4.3167,4.3127,4.314,4.3247,4.3754,4.3821,4.3557,4.31,4.2859,4.2443,4.2282,4.2202,4.2202,4.2202,4.2202,4.2202,4.2202,4.2202,4.2202,4.2202,4.2202,4.2202,4.2202,4.2202,4.2202,4.2202,4.2202,4.2202,4.2202,4.2202,4.2202,4.2202,4.2202,4.2202,4.2202,4.2202,4.2202,4.2202,4.2202,4.2202,4.2202,4.2202,4.2202,4.2216,4.2202,4.2202,4.2202,4.2202,4.2202,4.2202,4.2202,4.2202,4.2202,4.2122,4.1951,4.1978,4.2165,4.2202,4.2194,4.221,4.2214,4.2169,4.2071,4.2109,4.2122,4.2082,4.2002,4.1815]}]]